ECMWFNIL_250_spd_000.txt.gz
Wind_Speed
47 46 46 47 47 47 47 48 48 48 48 48 49 49 50 52 53 54 54 54 52 51 49 48 48 48 47 47 48 49 51 53 55 56 56 57 60 66 72 74 74 76
48 47 47 47 47 47 47 48 48 48 49 49 49 50 52 53 55 56 57 57 56 55 53 51 49 49 49 49 49 49 51 52 54 56 58 58 60 65 70 73 73 75
49 48 48 48 48 48 48 48 48 49 49 50 50 51 53 55 57 58 59 60 60 58 56 54 52 51 50 50 49 49 50 52 54 55 57 59 61 64 68 72 73 75
50 50 49 49 49 49 49 49 49 49 49 50 51 52 54 57 59 60 61 62 62 61 59 57 55 53 52 51 50 49 49 50 52 55 57 60 62 63 67 71 75 76
51 50 50 50 50 50 51 51 51 51 50 50 51 53 56 58 61 62 63 63 63 63 62 60 58 56 54 53 51 49 48 49 51 53 56 60 61 64 67 71 75 78
52 52 51 51 51 51 52 52 52 51 51 51 52 54 57 60 62 64 64 64 64 64 63 62 60 59 57 55 53 50 49 49 50 51 54 58 61 63 66 71 74 78
53 53 52 52 52 52 53 53 52 52 52 53 54 56 59 61 63 65 66 66 65 65 64 63 62 61 59 57 55 53 50 49 49 49 50 55 61 63 66 69 73 76
54 54 53 53 53 53 53 53 53 53 53 55 57 59 61 63 65 66 66 66 65 65 64 64 64 63 62 60 58 56 52 50 49 47 48 53 59 63 65 68 71 74
55 55 54 54 54 54 54 53 53 54 55 57 60 61 63 64 65 66 66 66 65 65 65 64 64 64 63 62 61 58 55 52 50 46 46 50 56 61 64 67 70 73
56 56 56 55 55 55 55 54 54 55 57 59 62 64 65 66 66 66 67 66 66 65 65 64 64 64 63 63 61 60 57 54 52 47 44 47 52 57 63 67 69 73
57 57 57 56 56 56 56 55 55 56 59 61 64 66 67 67 67 67 67 67 66 66 66 65 64 64 64 64 62 60 58 55 52 47 43 43 47 54 61 66 68 72
57 57 57 56 56 57 57 57 57 58 61 63 65 67 68 68 68 68 68 68 67 67 67 66 66 65 64 65 63 60 58 56 53 48 42 40 43 50 57 63 67 71
58 57 56 56 56 57 57 58 59 60 63 65 66 68 69 70 70 70 70 70 69 68 68 68 67 66 65 65 64 61 58 55 52 48 42 39 40 46 53 59 65 70
58 57 56 56 57 57 58 59 61 63 65 67 69 70 72 73 73 74 74 73 72 71 69 69 68 67 67 66 65 62 58 53 50 47 42 38 38 43 49 55 62 67
58 57 57 57 57 58 59 61 62 65 67 69 71 73 74 76 77 77 78 77 75 74 72 70 69 69 69 68 65 62 57 52 48 45 42 38 37 41 45 51 58 64
58 58 58 57 58 59 61 63 65 67 68 70 73 75 77 79 80 80 81 81 79 77 75 73 71 70 69 68 65 60 56 51 45 43 41 38 36 38 42 47 53 60
60 60 59 59 59 61 63 65 67 68 70 72 75 77 79 81 82 83 84 84 83 81 78 75 73 72 70 68 62 57 53 48 43 41 40 38 36 37 40 43 49 55
60 60 60 60 60 62 66 68 68 69 71 74 77 79 82 83 84 85 85 86 85 84 81 77 74 73 71 66 59 54 50 45 41 39 39 37 36 37 38 40 45 51
61 61 61 61 62 64 67 68 69 71 73 75 79 81 83 84 85 86 87 87 87 85 83 79 75 73 70 64 57 51 46 41 38 38 37 37 37 36 36 38 42 47
62 62 62 63 64 66 67 68 69 72 74 77 80 83 84 86 87 88 88 89 88 86 83 79 76 73 67 61 54 48 43 38 36 36 36 36 37 35 35 36 39 43
62 63 63 65 66 67 68 69 70 73 76 79 81 84 85 87 89 90 90 90 89 86 83 79 75 70 64 57 51 46 40 35 34 34 34 35 35 34 33 35 37 40
63 64 65 66 67 68 69 71 72 74 77 81 83 85 86 88 89 90 90 90 90 88 83 78 73 67 60 53 48 44 38 33 32 33 33 34 34 32 32 33 35 38
64 64 65 66 67 69 71 73 74 77 79 82 85 87 87 88 89 90 90 90 90 87 83 77 70 64 57 50 46 41 35 31 31 32 33 33 32 30 30 31 33 36
64 64 65 67 69 71 73 75 77 79 82 84 87 89 89 89 90 90 90 90 89 87 82 75 67 61 54 48 44 39 33 30 31 31 32 32 31 30 29 29 30 33
65 65 66 69 71 73 76 78 80 82 84 86 89 90 91 91 90 90 89 89 87 84 79 71 63 57 51 45 41 37 32 30 30 31 32 31 30 29 28 27 27 28
66 67 69 71 73 75 78 81 83 85 86 88 91 92 92 91 90 89 87 86 82 79 74 67 58 52 47 43 38 35 31 29 30 31 31 30 30 29 28 27 26 24

ECMWFNIL_250_spd_003.txt.gz
Wind_Speed
49 49 49 49 49 49 48 48 48 48 48 48 47 47 46 46 45 45 44 44 44 44 44 45 46 46 47 48 49 49 50 49 49 49 49 50 51 52 52 54 55 57
50 50 50 49 49 49 49 49 49 49 49 48 48 47 47 46 46 45 45 45 44 44 45 46 47 48 49 50 51 52 51 51 50 50 50 50 51 52 54 55 56 57
52 51 50 50 49 49 49 49 49 49 48 48 48 47 47 46 46 46 46 45 44 44 45 47 48 50 51 52 52 53 53 52 52 51 51 51 51 52 53 55 57 58
54 53 52 51 50 49 49 49 49 48 48 47 47 47 46 46 45 46 46 45 44 44 46 47 49 51 53 54 54 54 54 53 53 53 52 52 52 52 53 55 57 59
55 55 54 53 51 50 50 51 50 49 48 47 47 46 46 45 45 45 45 45 45 45 47 49 50 52 55 56 57 57 57 55 54 54 54 53 52 52 53 54 56 58
57 57 56 54 53 52 51 51 51 50 49 48 48 47 46 46 46 46 46 46 46 47 50 52 53 54 57 59 60 61 61 59 57 55 54 54 52 51 52 53 55 57
59 59 58 57 55 53 52 52 52 51 51 50 49 48 47 47 46 47 47 48 49 50 53 55 57 58 60 61 63 64 64 62 60 58 57 55 53 52 51 52 53 56
61 61 60 59 57 55 54 53 52 52 53 52 51 49 49 49 48 49 49 50 51 53 55 58 60 62 63 64 65 66 65 63 62 61 59 57 55 53 52 51 52 55
64 63 63 61 59 58 56 54 52 52 52 53 53 52 50 50 51 51 52 53 54 56 58 61 63 64 66 66 68 67 64 62 63 62 61 60 57 53 51 51 52 53
66 66 65 63 62 60 58 57 55 53 53 53 54 55 54 53 53 54 54 55 57 59 60 62 64 66 68 69 70 68 64 62 63 62 61 61 59 55 52 51 51 52
69 68 66 65 64 63 61 59 57 55 54 54 54 56 56 56 56 57 57 58 59 61 63 64 65 65 68 71 73 72 68 64 63 62 62 61 60 57 54 52 51 51
70 70 68 66 65 64 63 62 60 57 56 56 56 57 57 58 58 59 60 61 62 63 65 66 67 66 66 68 73 77 76 69 64 64 64 62 60 57 56 54 51 50
71 71 70 68 66 65 64 63 61 59 58 58 58 59 59 59 59 60 61 62 64 65 66 68 69 69 68 67 69 75 78 74 69 69 67 64 60 57 56 54 51 48
73 72 71 70 68 67 66 65 62 60 59 59 59 60 60 60 60 61 62 64 65 66 68 69 71 72 72 70 70 72 75 74 70 69 67 63 60 57 54 52 49 47
75 74 73 71 70 68 68 66 64 62 61 60 60 61 61 61 61 62 63 65 66 67 69 71 73 75 75 74 74 74 73 72 69 66 64 61 57 55 52 49 47 46
76 75 74 73 71 70 69 68 66 64 62 61 61 61 61 61 62 63 64 66 67 68 70 72 75 77 77 77 77 76 74 71 68 64 61 58 55 52 49 46 44 44
78 76 76 75 73 72 71 69 67 65 63 62 61 61 62 62 63 64 65 67 68 70 72 73 77 80 80 79 80 79 76 73 68 63 59 56 52 49 46 43 41 40
79 78 77 76 74 74 73 71 68 66 64 63 62 62 62 63 64 65 66 67 70 72 74 76 78 80 81 81 82 80 78 74 68 62 57 53 49 46 44 41 38 37
80 80 78 76 76 75 74 71 69 67 65 64 63 63 63 64 64 65 66 69 72 74 77 79 79 79 81 83 83 80 77 73 67 61 55 50 46 44 41 39 36 35
82 81 79 78 77 75 74 72 69 67 65 64 64 64 64 65 65 66 68 71 75 77 79 82 82 82 83 84 83 79 76 71 65 60 53 46 43 41 39 36 33 33
83 82 80 79 77 76 74 72 69 67 65 64 65 65 65 66 66 67 69 73 77 80 82 84 84 84 84 84 82 78 74 68 63 57 50 43 40 38 37 34 31 31
84 82 81 80 78 76 74 71 69 66 65 65 66 66 66 67 68 70 72 75 78 81 83 85 85 85 85 84 82 77 70 65 60 53 45 39 37 35 34 32 29 29
85 83 81 79 77 75 74 72 69 67 66 66 66 67 69 70 71 74 76 79 81 82 84 85 86 86 84 83 80 73 66 61 56 49 41 36 33 32 31 29 27 27
86 84 81 78 75 73 72 70 69 69 68 67 68 70 71 72 75 77 79 81 83 85 86 86 87 86 83 79 75 68 62 56 51 44 37 33 31 29 27 26 24 25
87 84 81 78 75 72 68 68 70 73 71 70 71 72 73 75 78 80 82 84 85 87 88 88 87 86 81 75 68 62 56 51 46 39 33 31 29 26 25 24 24 24
87 84 80 77 74 71 69 70 72 74 74 73 74 74 76 78 80 82 84 87 88 89 89 89 88 84 77 69 61 55 51 46 40 33 29 28 26 25 24 23 24 24

ECMWFNIL_250_spd_006.txt.gz
Wind_Speed
54 55 56 57 57 57 58 57 57 57 57 56 56 55 53 52 50 49 47 46 44 43 44 43 42 42 41 41 40 39 39 38 40 41 42 42 41 42 42 43 44 45
54 56 58 58 59 60 60 60 59 59 58 58 57 57 56 54 53 51 50 47 45 45 44 43 43 42 42 41 41 40 39 40 41 42 43 43 42 42 43 44 46 48
54 57 59 60 61 62 62 63 62 61 60 60 59 59 58 57 56 54 52 50 48 47 46 44 43 43 42 42 42 42 41 41 43 44 45 45 44 44 44 46 48 50
54 59 61 61 63 63 64 65 63 62 62 62 61 61 60 59 57 55 54 52 50 49 47 46 45 44 43 43 44 44 43 44 45 46 47 47 46 47 48 49 50 51
54 61 62 62 65 65 66 66 64 63 64 64 63 62 61 60 58 56 54 53 52 51 49 47 46 45 45 45 45 46 46 46 47 47 49 50 49 50 51 52 52 52
55 63 63 64 66 66 68 67 65 64 66 66 66 64 62 60 58 57 55 54 53 52 51 49 47 46 46 46 47 48 48 49 49 50 51 52 52 53 54 53 53 53
56 65 65 66 69 69 69 69 67 66 68 70 70 67 65 62 60 58 56 55 54 53 52 50 49 47 47 47 48 49 50 51 52 52 53 54 55 56 57 56 55 54
55 65 68 69 71 71 71 71 69 68 70 73 72 71 69 66 63 60 58 57 55 54 53 52 50 49 48 48 49 50 52 53 53 54 55 56 57 58 59 59 58 57
54 65 71 73 73 73 73 73 72 71 72 73 72 71 70 68 66 64 61 59 57 55 54 53 52 51 50 50 50 51 53 54 55 56 57 58 58 60 61 61 60 60
56 65 72 76 76 75 75 75 75 74 75 75 73 71 69 68 67 65 63 61 59 57 56 54 53 53 52 52 52 52 54 56 56 57 58 59 60 62 63 62 61 61
60 66 72 78 79 77 78 77 77 77 78 77 75 73 71 69 68 66 65 63 61 59 58 55 54 54 54 54 54 55 56 57 57 58 59 61 62 64 65 64 63 62
64 67 74 80 80 79 80 79 79 79 79 79 78 76 73 70 69 67 65 63 62 60 58 57 55 54 54 54 55 57 58 59 59 59 60 62 63 65 66 65 64 62
67 70 77 81 80 80 81 80 80 80 80 81 81 79 75 72 70 68 65 63 61 59 58 56 54 54 54 55 56 58 60 61 62 62 63 64 65 66 67 66 64 61
69 73 79 81 81 82 82 81 82 82 82 84 85 81 77 74 72 68 65 63 60 58 56 55 55 55 55 55 57 59 61 63 65 66 66 68 68 68 67 65 63 60
72 77 81 81 82 84 83 82 83 83 85 87 86 81 78 76 73 68 65 63 60 57 55 55 57 57 56 56 57 60 62 64 66 68 68 70 70 69 68 65 62 59
78 80 82 83 84 85 84 84 84 85 87 88 85 81 78 76 71 66 64 62 59 57 56 56 58 59 58 58 59 61 63 65 68 69 70 71 71 70 68 64 60 57
81 81 83 85 86 86 86 84 84 86 88 87 83 80 79 76 69 65 63 60 58 58 58 58 59 60 60 60 61 63 65 68 70 71 71 72 72 70 67 63 58 55
82 83 85 86 87 88 86 83 83 87 89 86 84 82 81 76 67 63 62 61 61 61 60 59 60 61 61 62 64 66 68 70 72 72 72 72 71 69 65 60 56 52
83 85 86 87 89 89 84 81 83 89 90 88 86 85 82 74 67 65 65 64 64 63 61 60 60 62 63 64 66 69 71 72 73 72 72 70 68 66 63 57 52 49
86 87 87 88 88 86 81 80 85 92 93 91 89 86 82 76 72 70 67 64 62 62 62 62 62 64 66 66 68 72 73 74 74 72 70 68 65 62 59 53 48 46
88 89 88 88 88 85 81 82 89 95 94 93 91 87 84 81 76 71 66 62 61 62 64 65 66 68 69 70 72 74 75 75 74 71 67 64 61 57 53 48 45 43
89 90 90 89 88 85 82 86 94 96 94 93 92 89 86 82 75 69 65 63 63 65 67 69 70 71 72 73 74 75 75 74 72 68 64 61 58 53 48 44 41 39
89 91 90 89 88 83 83 91 98 97 94 94 92 88 85 80 72 68 68 67 68 70 72 73 74 75 75 75 75 75 74 72 69 65 62 59 55 49 43 39 37 35
91 91 90 89 86 83 88 96 100 98 96 94 90 87 83 75 69 70 72 72 72 75 77 78 79 79 77 76 76 76 74 71 67 65 61 57 52 45 40 36 34 32
92 92 91 89 86 87 94 100 102 100 97 93 90 86 77 70 70 74 75 75 77 79 80 80 80 79 79 79 79 80 78 73 69 65 60 55 49 42 37 34 31 30
95 93 90 88 87 91 99 103 102 100 97 93 88 79 71 70 74 77 77 78 80 81 81 83 84 84 84 83 82 82 80 76 71 65 59 53 46 39 35 32 30 28

ECMWFNIL_250_spd_009.txt.gz
Wind_Speed
55 56 56 56 58 59 56 51 47 52 61 64 67 68 68 70 69 67 66 65 65 65 62 59 55 52 49 47 45 43 42 41 41 42 43 44 45 46 47 47 47 47
56 57 57 57 59 59 55 49 47 53 61 64 67 70 71 72 71 69 68 68 69 68 66 62 57 54 51 49 47 45 43 42 42 42 43 43 45 46 47 48 48 49
57 58 58 58 59 57 52 49 50 55 61 64 67 71 73 73 73 71 69 70 72 71 69 65 60 56 53 50 48 46 44 43 43 43 43 44 45 46 47 48 49 50
57 57 59 60 59 56 52 51 54 58 62 64 67 72 74 74 74 71 70 73 75 74 71 67 63 60 56 52 49 46 44 43 43 44 44 44 45 46 47 49 50 51
58 59 60 61 60 55 51 50 54 59 63 65 68 72 73 75 75 70 69 75 76 75 73 70 68 66 61 56 50 46 44 43 42 43 44 45 46 47 48 50 51 53
59 61 62 63 62 54 48 48 53 59 64 67 69 71 73 76 74 68 69 76 78 77 76 74 72 70 65 58 52 48 46 44 42 42 43 44 46 48 49 51 53 54
60 63 63 65 62 53 45 46 52 57 64 69 70 72 76 78 75 70 71 78 81 81 81 78 74 72 66 59 54 51 49 46 44 42 42 43 44 47 49 51 53 55
61 65 65 67 61 50 45 47 53 59 64 70 72 75 78 79 79 77 76 80 84 85 84 82 76 71 65 58 54 52 49 46 44 42 42 43 44 46 48 50 52 55
64 67 68 67 58 48 45 49 57 61 64 70 75 77 78 79 80 78 75 79 85 87 87 85 79 72 64 58 56 54 50 47 45 43 42 43 44 46 48 50 51 53
68 69 69 64 52 46 47 52 61 64 64 70 77 79 79 79 79 77 75 78 83 88 90 89 83 76 67 61 60 58 54 51 49 47 45 44 45 46 47 49 51 53
70 70 65 56 47 46 49 56 65 66 66 71 78 82 81 80 83 83 80 80 82 89 93 91 87 80 71 66 63 60 57 55 54 52 49 47 46 47 47 48 50 53
68 64 55 47 45 48 53 62 68 67 68 73 79 84 85 84 87 89 85 80 82 90 94 92 89 82 74 68 64 59 56 55 55 53 51 49 48 48 49 50 52 55
66 61 50 45 48 52 58 66 69 69 73 77 81 86 88 87 90 92 88 81 83 91 96 95 91 83 74 68 62 56 55 55 54 53 52 51 51 51 52 53 55 58
67 59 50 48 51 56 62 67 70 72 76 81 84 87 89 89 91 95 91 83 84 92 97 97 93 84 75 67 59 55 55 56 55 54 54 54 54 56 56 57 57 59
67 58 51 51 55 61 67 71 74 76 82 87 89 89 90 91 93 97 94 86 86 92 98 99 94 85 76 65 57 55 58 59 58 57 56 56 57 59 60 60 60 61
63 54 50 53 60 67 73 78 81 85 90 93 91 90 91 92 95 98 95 88 87 93 99 99 93 84 74 62 56 58 61 61 61 59 57 58 58 60 63 63 63 64
51 50 53 59 66 72 78 83 87 89 91 90 88 90 92 94 97 99 96 90 89 94 100 99 91 81 71 63 61 65 66 65 63 61 60 60 61 62 63 63 62 62
53 59 64 68 71 75 81 85 86 86 86 86 87 89 91 95 99 100 97 92 91 96 101 99 91 81 73 69 69 70 69 67 66 64 63 64 65 64 63 61 59 60
62 67 70 74 75 78 83 86 85 84 85 86 88 90 92 98 101 101 97 93 92 98 101 98 92 83 76 74 73 72 71 70 69 68 68 68 68 67 64 61 60 60
64 69 74 77 79 82 87 88 85 85 86 89 90 91 94 100 103 101 98 94 95 100 102 98 92 85 79 77 75 74 74 74 74 74 73 73 71 69 67 65 64 62
69 73 76 79 82 87 89 88 86 87 90 92 92 92 96 103 105 102 99 96 98 103 103 99 93 86 81 78 77 76 77 77 78 78 78 77 75 73 70 68 65 63
69 72 77 83 87 88 88 86 86 89 93 95 93 94 100 105 106 103 99 99 102 105 104 99 93 87 82 80 79 79 80 80 80 80 79 78 76 73 70 67 64 62
70 75 83 86 87 88 88 87 88 91 95 95 94 97 103 107 106 103 101 102 105 106 103 98 92 86 82 81 81 82 82 82 81 81 80 77 74 71 68 65 62 59
80 84 86 85 87 89 89 88 91 95 95 95 96 102 107 108 106 104 103 105 107 106 102 96 90 86 83 82 83 84 84 83 81 80 78 75 71 68 65 62 59 55
85 85 83 84 88 88 88 90 94 96 95 95 100 106 109 108 106 106 106 107 108 106 102 96 90 86 84 84 84 83 82 81 79 76 73 71 69 66 63 60 55 52
82 82 83 87 88 87 89 94 96 95 95 98 104 109 109 107 106 107 108 109 109 106 102 96 91 88 86 85 84 82 81 79 76 72 69 68 67 64 62 57 52 49

ECMWFNIL_250_spd_012.txt.gz
Wind_Speed
46 48 49 51 52 52 52 48 48 53 57 58 55 50 46 45 47 49 52 54 56 59 63 68 72 76 78 80 80 78 78 80 83 78 65 54 48 46 45 46 46 48
49 50 51 54 55 54 52 47 48 55 60 59 54 49 46 46 48 51 53 55 57 59 64 68 73 78 79 80 83 83 81 82 85 83 73 60 51 48 45 44 45 46
50 52 54 55 55 53 49 46 50 57 61 58 51 44 43 46 49 52 54 56 58 61 66 70 75 80 79 79 84 86 85 84 86 86 79 66 55 49 47 43 42 43
52 53 55 56 54 51 47 48 54 59 60 55 46 40 42 46 50 54 55 58 61 65 69 73 79 81 79 78 82 87 87 86 87 88 83 71 58 50 47 44 41 41
53 54 56 56 54 50 49 53 58 58 57 52 44 41 44 48 51 55 56 60 63 67 71 76 80 80 78 78 82 87 90 88 88 89 86 75 61 50 45 43 41 40
53 55 56 57 55 51 52 56 57 56 55 52 47 46 47 49 52 54 57 61 65 69 74 77 79 79 78 80 83 87 91 91 89 89 87 79 65 51 44 41 41 41
54 56 57 58 57 55 56 57 55 54 55 54 53 51 49 50 52 54 57 62 66 72 76 77 79 80 81 82 84 87 91 93 91 89 87 81 68 54 45 42 42 42
57 58 59 60 59 58 58 57 55 55 55 55 57 55 52 52 54 55 59 64 68 74 77 78 80 82 83 84 85 87 91 95 94 91 88 82 71 58 49 47 46 44
59 59 60 61 61 60 58 57 58 57 56 57 59 59 56 55 56 58 61 66 70 77 80 80 82 84 86 86 86 88 92 96 97 95 92 85 74 62 55 53 51 47
59 60 62 63 62 60 59 59 60 60 60 59 59 60 59 57 58 60 64 67 71 77 82 82 83 87 89 89 89 89 92 97 99 99 96 89 78 66 59 56 53 49
61 64 65 64 62 62 62 61 62 63 63 59 57 59 59 59 60 62 66 69 71 76 81 83 84 88 90 90 91 91 93 97 101 101 99 93 82 70 61 57 54 51
64 64 64 63 63 65 66 65 64 64 61 55 54 57 58 59 61 64 67 70 71 76 81 83 86 89 91 92 92 92 93 97 102 103 101 95 85 73 64 59 56 54
61 61 62 62 63 66 67 66 64 61 56 53 53 55 57 60 63 66 71 73 74 77 81 85 87 90 93 93 92 92 93 98 104 105 102 96 86 75 66 62 60 58
58 58 60 61 64 67 67 64 60 57 55 53 52 55 60 64 67 72 75 75 76 79 83 87 90 91 95 96 94 94 96 100 106 107 104 98 87 76 68 65 63 61
57 59 63 64 66 68 64 57 56 58 58 55 55 59 64 68 73 77 78 77 79 82 86 91 93 94 97 98 96 96 98 103 108 109 106 99 87 76 70 67 66 64
60 64 66 67 68 69 62 55 56 61 62 60 61 64 67 71 75 78 78 80 84 88 90 94 97 97 98 100 99 98 100 105 109 110 107 98 85 75 71 70 68 67
66 66 65 66 67 64 57 54 57 60 63 64 66 69 71 74 76 78 81 86 91 93 94 98 100 99 100 102 102 101 103 107 111 111 106 96 83 74 71 71 71 70
65 63 61 60 58 54 53 55 58 61 64 66 68 71 73 75 77 81 86 93 96 96 98 102 103 101 101 104 105 104 106 110 112 110 104 93 82 75 72 73 74 73
58 54 51 48 47 50 54 56 58 62 66 68 70 73 75 77 81 86 92 98 99 98 101 105 104 102 103 106 108 108 108 112 114 109 100 89 81 76 75 77 77 76
48 43 42 46 50 55 58 61 64 69 71 73 75 77 80 83 87 92 97 99 99 99 104 106 105 103 105 108 110 110 111 114 114 107 97 87 81 79 79 80 80 77
42 40 46 55 60 62 65 68 71 74 75 77 80 83 86 90 93 95 98 98 99 103 106 106 105 104 105 109 112 112 113 114 111 104 94 86 83 83 84 83 80 77
44 47 53 60 64 65 69 72 74 76 79 81 84 87 90 93 95 96 98 100 103 107 107 105 104 104 106 111 113 113 113 112 107 98 89 84 85 88 87 84 81 77
49 52 56 59 62 66 70 73 74 77 79 83 87 91 94 95 97 99 101 104 107 107 105 103 103 105 109 112 113 113 111 108 101 92 85 85 89 90 88 86 83 79
56 59 62 63 67 71 75 77 79 81 84 89 93 95 97 99 101 103 105 107 107 104 103 103 104 107 111 113 112 112 108 102 94 87 84 88 91 91 90 89 86 81
65 68 70 73 75 78 82 86 88 90 92 94 95 96 98 101 104 106 107 106 105 105 104 104 105 109 112 112 111 110 104 97 92 89 89 91 93 93 94 92 87 81
77 78 80 81 84 87 90 93 95 95 95 96 97 98 99 102 106 108 107 106 106 105 103 103 107 110 111 111 110 107 100 96 95 93 93 95 95 96 98 95 88 80

ECMWFNIL_250_spd_015.txt.gz
Wind_Speed
43 44 45 46 47 48 48 48 49 48 47 48 49 50 49 48 46 45 46 46 47 47 47 46 47 50 53 54 55 57 59 62 64 66 67 71 75 79 82 83 85 86
45 47 48 49 50 49 48 49 49 47 46 49 51 52 52 50 48 49 50 51 52 53 54 53 52 52 55 57 57 58 61 63 65 68 70 73 77 80 83 86 86 87
48 50 51 52 52 50 49 48 47 45 47 50 52 54 56 54 51 51 53 53 55 57 58 58 55 54 56 59 59 59 62 66 68 69 72 75 78 81 84 87 89 88
50 53 53 53 53 50 49 48 45 45 49 50 52 56 58 55 52 54 54 54 56 58 60 60 56 54 57 59 59 60 63 68 69 70 74 77 79 82 85 88 91 91
53 55 55 55 53 50 50 51 46 47 51 51 52 56 56 54 55 57 57 55 58 60 61 60 56 55 57 59 60 61 65 70 71 72 75 79 81 83 86 89 92 94
56 58 56 57 55 51 52 53 49 50 54 52 51 52 54 57 60 61 61 60 62 62 60 58 57 58 59 60 61 64 68 71 72 74 77 81 84 84 86 89 92 95
56 58 57 56 54 51 52 52 50 54 57 53 50 52 56 61 63 63 64 65 64 62 60 58 59 61 61 61 63 65 69 72 74 76 79 84 86 85 86 89 93 97
57 58 56 54 51 49 49 50 53 57 57 53 53 56 59 63 64 65 67 68 65 62 61 61 61 61 61 62 63 65 69 73 76 79 83 86 87 85 86 90 94 99
57 56 53 49 46 44 47 51 55 57 56 54 56 59 60 63 67 68 69 70 67 64 63 62 61 62 62 63 65 68 72 75 78 83 87 88 87 86 88 91 96 100
51 49 49 45 43 46 51 55 55 56 56 58 60 60 59 65 70 70 71 72 68 64 63 62 63 64 65 66 69 72 75 76 81 87 90 88 87 88 90 93 98 101
45 45 49 49 50 54 58 58 57 58 61 64 65 63 63 69 71 69 71 71 67 64 63 63 64 67 68 70 72 75 77 80 86 91 91 89 89 90 93 96 100 102
44 49 52 55 56 58 60 58 58 61 63 65 67 66 69 71 69 68 70 69 66 64 64 64 66 68 70 72 75 77 79 84 90 92 91 91 92 94 96 98 101 102
45 51 52 53 55 57 57 57 59 62 63 66 69 70 71 70 68 69 69 66 64 65 65 65 66 68 71 73 75 78 82 87 91 91 92 93 95 96 97 100 101 102
44 47 48 52 54 54 54 55 60 64 67 71 73 71 70 68 67 68 66 63 64 66 66 67 68 70 72 74 76 80 85 89 91 92 94 95 97 98 100 101 102 103
38 41 46 50 53 53 53 58 64 67 69 71 69 67 67 65 65 66 65 64 66 68 69 70 70 72 73 75 79 83 86 90 93 95 96 97 98 99 101 102 102 102
32 37 44 49 54 57 59 62 65 66 67 68 66 66 67 67 66 66 65 67 70 70 70 70 71 73 75 78 82 86 90 94 97 98 98 98 99 100 101 102 102 102
34 39 45 48 53 56 56 59 63 65 67 68 69 70 70 69 68 67 67 70 71 70 71 71 72 75 79 83 87 90 94 97 98 99 99 98 98 99 100 101 102 103
41 45 49 52 55 55 56 61 66 69 70 71 71 71 70 69 68 68 69 70 70 70 72 74 77 81 85 89 92 95 98 99 99 98 97 97 99 100 100 101 103 104
49 51 52 54 57 59 59 62 65 67 68 69 70 70 69 68 68 69 70 70 70 72 76 80 84 88 91 94 96 99 101 99 96 95 95 98 102 102 101 102 104 105
54 57 57 56 58 61 61 61 63 65 66 67 68 69 70 69 69 69 71 74 77 80 84 88 91 94 96 99 100 101 99 95 92 94 97 101 103 102 103 104 105 106
55 57 59 59 59 62 64 65 65 66 66 66 68 69 70 70 71 73 77 82 85 88 91 94 97 99 101 101 99 96 94 92 92 96 100 102 102 102 104 105 106 108
56 54 55 57 59 64 67 68 69 70 70 70 70 71 72 74 77 80 85 89 92 95 97 99 100 100 99 97 95 95 94 92 93 98 102 103 103 104 106 106 108 110
58 56 55 56 60 66 69 71 75 76 77 77 76 76 77 79 83 87 91 95 97 98 98 98 98 97 95 95 96 97 94 90 94 101 104 104 105 107 107 108 110 111
63 64 61 59 63 69 71 72 75 77 79 79 78 79 81 85 89 92 94 96 96 95 94 95 95 95 96 98 98 95 91 91 97 103 104 106 108 109 109 110 111 112
66 65 62 61 67 72 72 72 75 77 79 81 82 84 87 91 94 95 95 96 95 94 94 95 97 98 99 98 95 92 92 96 101 103 105 109 111 111 111 111 112 115
66 65 62 63 68 71 71 74 79 81 83 84 85 86 89 91 93 93 95 95 92 91 92 92 92 92 92 91 89 91 95 99 102 105 108 111 111 110 111 112 114 116

ECMWFNIL_250_spd_018.txt.gz
Wind_Speed
37 37 37 38 39 40 40 41 42 42 42 40 37 35 35 38 40 42 41 38 38 42 46 46 47 48 50 51 52 51 50 50 50 51 52 53 55 56 57 58 60 62
39 40 41 41 41 41 42 41 41 39 38 38 36 36 37 39 40 41 41 40 41 46 49 48 48 50 51 51 53 54 53 51 51 52 54 54 55 56 57 59 62 63
42 43 43 42 43 43 43 43 40 35 34 36 37 37 38 38 40 41 40 41 44 49 50 48 49 51 52 53 55 57 56 54 53 55 56 56 56 57 58 61 63 64
44 44 45 45 46 46 45 46 41 35 33 35 35 35 36 39 43 44 42 43 47 50 51 50 50 53 55 56 58 59 59 56 56 57 58 58 58 58 59 62 64 65
45 46 47 47 48 48 47 46 41 35 35 35 34 36 40 44 48 47 44 44 48 49 50 52 53 56 59 61 63 62 61 58 58 58 59 60 60 59 60 62 64 66
46 47 48 49 49 49 49 47 42 38 37 38 41 44 47 50 50 47 44 46 49 51 53 55 58 61 63 65 66 65 62 59 58 58 59 61 63 61 61 62 64 66
48 48 49 50 50 50 49 47 42 39 39 40 43 47 49 50 50 49 48 50 53 54 57 60 63 65 66 68 68 66 62 59 58 58 59 61 64 63 62 63 65 67
48 48 48 50 51 49 47 46 43 41 40 39 40 44 47 49 53 53 52 53 54 57 61 65 66 67 67 68 68 66 63 60 59 59 59 62 65 65 65 66 68 70
48 48 48 49 51 50 47 46 46 44 42 40 40 43 46 51 54 55 55 56 58 62 67 68 66 65 65 66 67 66 64 62 60 60 61 64 66 68 69 69 70 73
46 47 48 49 50 51 49 47 48 48 47 45 42 42 46 51 56 57 58 60 64 68 69 66 63 63 64 66 66 66 66 64 62 62 64 67 69 70 71 71 73 77
46 46 48 49 50 52 51 50 50 52 53 52 47 43 44 50 56 59 60 63 66 68 66 62 60 62 64 66 67 67 66 65 65 66 67 68 70 71 72 74 78 81
47 47 49 50 51 52 51 51 53 55 57 55 50 45 45 50 56 58 60 63 65 65 62 61 62 64 67 68 68 66 66 66 67 68 68 69 71 73 75 79 82 86
49 49 50 51 53 52 49 50 54 56 58 56 52 50 51 53 55 57 60 62 62 62 62 64 66 67 69 69 67 64 64 65 67 68 70 73 75 78 81 83 86 89
50 51 50 50 52 51 50 52 55 55 56 56 54 55 57 58 58 59 59 61 62 63 64 66 68 70 69 68 66 65 65 66 68 70 74 77 80 84 86 88 89 89
51 51 50 48 49 52 53 54 52 47 48 52 54 56 58 59 59 60 60 62 63 64 66 67 69 70 69 69 69 68 68 69 72 75 79 82 86 89 90 91 90 89
53 51 50 46 44 47 50 51 46 42 43 47 51 54 57 58 60 62 64 66 67 69 70 71 72 72 72 72 72 72 73 74 77 81 84 87 91 92 93 92 91 90
55 52 50 46 41 39 44 48 48 48 48 49 53 57 60 61 63 66 69 70 72 74 75 76 77 76 75 74 74 75 77 79 82 85 89 92 95 96 95 94 93 92
56 54 51 48 42 38 45 51 54 56 57 56 61 65 64 64 67 71 72 72 74 76 77 78 78 77 76 76 77 79 82 85 87 89 94 97 99 99 98 95 94 94
55 54 52 50 44 38 45 53 57 61 64 65 70 73 72 70 72 74 74 75 77 80 81 81 80 79 80 82 83 85 87 88 90 94 98 101 101 99 97 96 96 98
55 54 52 51 45 39 45 54 60 67 73 74 75 75 74 74 76 77 79 80 83 86 87 87 87 87 87 87 87 88 90 92 95 99 102 102 100 98 96 96 97 98
56 54 53 51 45 42 48 56 62 70 75 77 77 75 75 77 79 80 82 84 87 89 91 92 92 91 91 90 90 91 94 97 100 101 101 99 97 95 93 93 94 94
57 55 54 50 46 46 53 59 64 71 75 77 80 80 80 80 80 81 84 87 90 91 91 92 93 92 91 91 92 95 97 98 98 98 96 93 90 89 89 89 90 91
59 57 55 50 47 51 57 61 66 71 75 78 81 83 83 84 85 87 90 92 92 91 91 92 93 93 93 93 94 94 94 94 94 92 89 86 86 87 88 89 91 92
61 60 57 53 49 52 57 61 66 71 75 78 80 83 85 87 89 91 91 91 90 89 90 91 92 92 92 91 90 90 89 89 88 86 84 85 86 88 90 91 93 95
63 61 60 58 55 55 59 64 68 71 74 77 80 83 85 86 86 86 85 85 85 85 86 87 88 87 87 86 85 84 84 83 82 82 83 85 86 88 90 92 94 96
65 64 62 59 57 58 61 66 69 71 73 76 77 78 78 79 79 79 78 79 80 80 80 80 81 81 81 81 80 80 79 80 81 82 84 86 88 89 92 95 97 99

ECMWFNIL_250_spd_021.txt.gz
Wind_Speed
37 37 37 37 37 37 37 38 39 40 40 41 41 40 36 32 34 35 35 38 40 39 39 41 41 41 41 43 45 47 49 51 50 51 54 54 52 51 51 50 50 51
39 38 38 38 38 38 37 37 37 38 39 40 41 41 37 34 35 36 37 39 41 42 42 42 41 42 44 45 47 49 51 52 52 54 55 53 52 53 52 51 51 51
40 40 39 39 39 38 37 36 37 38 39 40 42 40 36 34 35 37 39 41 43 44 44 41 41 44 45 46 48 51 53 53 54 55 55 53 54 54 54 53 52 51
42 42 41 40 40 39 38 38 38 40 40 41 42 41 37 35 35 36 38 41 44 45 44 42 43 46 47 48 50 52 53 54 56 56 54 54 55 55 54 53 52 51
43 43 42 41 41 41 41 40 41 42 42 43 44 44 41 37 37 38 40 43 44 45 45 43 44 47 49 51 51 51 54 56 57 56 55 56 56 55 55 54 52 52
44 44 43 43 43 43 43 43 43 44 44 44 45 46 44 41 41 43 44 44 44 45 45 44 46 48 49 51 52 53 56 58 58 57 57 56 56 57 59 58 56 55
45 46 45 44 44 44 44 45 46 45 45 46 47 47 46 45 45 45 45 44 44 44 44 44 47 49 50 53 55 56 58 59 58 58 57 58 60 61 60 57 55 54
46 47 46 46 46 46 46 47 47 47 47 48 48 48 47 46 46 47 48 46 44 43 42 44 47 50 53 55 57 57 58 58 58 59 59 61 61 59 56 54 54 55
48 48 48 48 47 47 48 48 48 48 48 49 50 50 49 48 47 48 48 46 44 43 43 45 49 51 53 54 56 56 57 57 58 59 61 61 60 60 60 60 60 61
49 50 50 49 50 50 50 50 50 50 50 50 50 50 50 49 47 47 47 46 44 43 44 46 49 49 50 52 54 55 57 58 59 59 60 61 62 64 65 65 65 65
51 52 52 52 52 52 52 52 52 52 52 51 50 50 50 50 50 50 49 46 44 45 46 47 48 49 50 52 54 56 57 58 58 59 61 63 64 65 66 66 67 68
53 53 54 54 54 55 55 53 53 52 52 51 51 52 53 53 54 53 51 47 45 46 47 47 49 51 53 55 57 58 59 59 60 61 62 63 65 66 67 69 70 72
55 55 55 55 56 57 56 53 52 52 51 51 52 54 55 55 52 50 50 48 47 49 51 52 55 57 59 62 63 63 63 63 63 63 64 66 67 69 71 72 75 77
56 55 55 54 55 57 57 54 51 49 51 54 53 52 52 51 48 47 48 50 53 56 57 58 60 62 65 68 69 69 68 68 69 70 72 74 76 77 79 80 81 83
57 55 54 53 51 52 53 52 50 51 54 55 53 50 50 50 50 50 52 57 59 59 59 59 62 65 68 71 73 74 75 76 77 78 80 82 84 85 86 86 87 89
57 55 54 51 49 47 45 45 48 53 55 54 52 53 53 54 54 54 56 60 61 60 61 62 64 68 71 75 78 81 82 83 84 85 86 88 90 90 90 90 91 92
57 55 54 51 49 46 41 40 43 49 54 56 54 55 56 55 55 56 58 61 62 63 64 66 70 74 77 81 85 86 87 88 89 90 92 93 94 94 94 94 93 91
57 56 55 53 51 48 43 40 38 41 51 56 53 53 57 56 55 57 61 64 66 68 70 74 79 81 84 87 88 88 90 92 93 94 95 96 96 96 95 94 91 87
57 57 57 56 54 51 48 44 39 39 46 51 50 53 55 55 57 62 67 70 72 75 78 82 84 86 88 90 90 91 93 95 95 96 96 96 96 94 91 86 81 79
58 59 60 59 58 55 53 51 48 44 44 46 53 59 60 60 64 69 72 76 78 81 84 86 88 89 91 92 93 95 96 96 96 96 94 93 90 85 79 74 72 73
61 62 63 63 61 60 58 57 55 51 46 47 54 61 64 67 72 74 78 82 84 85 88 89 91 92 92 93 94 95 96 96 95 91 87 84 80 75 71 71 72 74
63 64 66 67 66 64 63 62 61 58 54 53 57 61 65 70 73 76 79 82 84 86 88 90 91 92 93 94 93 93 93 90 86 82 78 77 76 74 74 75 76 77
65 67 69 70 70 69 67 66 65 64 62 60 62 64 66 69 71 74 78 80 81 84 86 88 90 92 92 91 88 86 83 80 77 77 77 77 77 76 75 76 78 81
67 69 71 72 73 72 69 68 67 68 66 64 63 63 64 66 69 72 75 76 78 80 83 85 87 88 87 85 81 78 76 75 75 76 77 77 76 75 76 78 81 84
69 70 72 73 73 72 70 69 68 67 66 64 63 63 64 66 68 70 72 74 76 79 81 81 80 79 77 76 74 73 72 71 72 73 75 76 77 79 81 83 86 89
71 72 72 72 72 72 71 69 66 65 64 63 63 64 63 64 65 68 70 73 74 76 76 75 74 73 72 70 68 66 65 65 67 72 75 77 80 83 86 89 92 95

ECMWFNIL_250_spd_027.txt.gz
Wind_Speed
28 29 30 31 31 31 31 32 32 33 34 35 36 36 37 38 39 41 42 42 43 43 43 42 42 41 39 37 36 36 38 41 44 47 48 47 46 45 45 45 46 46
30 30 31 32 32 33 33 33 34 35 36 37 38 39 39 40 42 43 44 45 45 45 44 44 43 41 38 37 35 36 39 42 45 49 51 50 49 48 47 47 47 47
32 32 33 33 34 34 35 35 36 36 37 38 40 41 42 43 44 45 46 46 46 45 44 44 42 40 38 37 35 37 40 43 47 50 50 50 51 50 49 48 48 48
34 34 34 35 36 36 37 38 38 38 39 40 41 43 44 45 47 47 47 47 46 45 43 42 40 39 38 38 37 39 41 45 48 49 48 49 51 51 50 49 50 50
35 36 36 37 37 38 39 40 40 41 41 42 43 45 47 48 49 49 49 48 47 45 43 41 40 40 40 39 40 41 43 46 48 48 47 50 51 51 51 51 52 52
37 37 38 38 39 40 41 42 43 43 44 44 45 47 49 50 50 50 50 48 46 45 43 41 41 42 41 40 41 43 45 47 47 47 49 51 52 52 52 53 54 53
38 39 40 40 41 42 43 44 45 45 46 47 47 49 50 51 51 51 50 48 47 45 44 43 44 44 43 42 43 46 47 47 47 49 51 53 53 53 53 55 56 56
40 41 42 43 43 44 44 45 46 48 49 49 50 52 53 52 52 51 50 48 46 45 45 45 45 44 44 46 48 50 49 49 49 50 52 54 54 54 55 57 58 59
42 43 44 44 45 46 46 46 47 50 50 50 53 55 55 54 53 52 50 48 45 45 46 46 45 45 47 50 52 52 51 50 50 52 53 55 55 56 57 58 60 61
44 45 46 46 47 48 47 47 49 51 51 51 54 56 57 55 54 52 50 48 47 46 47 47 46 47 49 52 53 53 52 52 53 54 56 57 57 57 58 60 62 63
46 47 48 48 49 49 48 48 50 53 54 53 55 57 58 56 55 53 51 49 48 47 47 47 47 48 50 53 54 54 55 56 57 57 59 60 60 60 61 61 62 65
49 50 50 50 51 51 51 50 52 55 56 56 56 58 59 58 56 54 52 50 49 48 48 48 49 50 51 53 55 56 57 58 59 59 60 61 62 63 63 63 63 65
51 52 52 53 53 53 53 53 54 56 57 57 58 59 59 58 57 55 53 51 50 50 49 50 52 52 53 55 57 57 57 58 59 60 60 62 63 64 64 64 65 67
53 54 54 55 55 55 55 55 56 58 58 57 58 59 59 58 57 56 54 52 51 51 51 53 54 55 57 58 57 56 58 60 61 61 61 62 63 64 65 66 68 70
55 56 56 57 57 57 57 57 58 59 59 58 59 59 58 58 57 56 55 53 53 53 54 55 56 58 60 59 57 56 60 62 62 63 63 63 64 65 66 68 70 72
58 58 58 58 59 58 58 59 60 61 60 60 60 60 59 58 57 57 55 55 55 56 56 57 59 60 61 59 57 58 62 64 64 64 64 63 64 65 67 69 70 72
60 60 60 61 61 60 60 60 62 63 62 62 62 60 59 59 58 58 56 56 58 59 59 60 61 62 62 61 59 60 64 66 66 66 65 62 64 66 67 69 70 72
62 62 63 63 62 61 61 62 63 64 64 63 62 61 60 59 59 59 58 58 60 61 62 63 64 65 66 62 61 64 67 67 68 68 60 56 61 67 68 69 71 73
64 64 65 65 64 62 62 63 64 65 66 64 63 62 61 59 59 59 60 60 61 62 64 65 66 68 66 61 62 67 69 67 69 67 57 55 64 69 69 71 72 73
66 66 66 66 65 64 64 64 65 66 66 66 64 64 63 61 61 60 61 62 63 64 66 66 69 69 63 61 66 70 69 69 70 67 63 64 69 70 70 72 72 71
67 67 68 68 67 67 67 66 66 66 67 67 66 65 64 64 63 63 63 64 65 66 68 68 69 68 64 65 70 71 70 71 71 70 69 69 70 70 71 72 70 68
69 69 69 69 69 70 69 69 67 67 67 67 66 66 65 65 66 65 66 67 67 69 70 70 71 70 69 71 72 71 72 73 72 71 71 71 71 71 72 71 67 63
71 71 71 71 71 72 72 71 70 69 69 68 67 67 66 66 67 67 68 69 70 71 72 73 72 72 72 73 73 73 74 73 73 72 71 71 71 71 72 66 57 57
74 74 74 74 74 74 74 73 71 71 70 69 68 67 67 67 68 69 70 71 72 73 74 74 74 73 73 74 75 75 74 73 72 71 70 71 71 72 70 60 54 60
77 76 75 75 75 75 75 74 72 72 71 70 69 69 69 69 69 70 72 73 74 75 75 75 75 74 75 76 77 75 73 71 71 70 70 72 74 72 68 63 65 72
79 78 77 76 76 75 75 74 73 72 72 71 70 70 70 70 71 72 73 74 75 74 75 76 77 77 78 79 78 74 70 70 71 73 74 75 75 72 69 69 73 76

ECMWFNIL_250_spd_030.txt.gz
Wind_Speed
26 26 27 27 28 28 29 29 30 31 32 33 34 35 35 35 36 37 38 39 40 41 42 43 43 42 41 40 39 37 37 37 37 37 36 37 38 41 42 43 42 43
28 28 28 29 29 30 30 31 31 32 33 35 36 37 37 37 38 39 40 41 42 43 44 44 44 44 43 41 40 38 38 38 38 37 38 40 42 45 45 44 44 45
29 29 30 30 31 31 32 32 33 34 35 36 38 39 39 40 40 40 41 42 44 45 45 45 45 44 43 42 40 39 38 38 38 39 41 43 46 47 47 46 47 49
31 31 32 32 32 33 33 34 34 36 36 38 39 40 40 41 42 42 42 44 46 47 46 46 46 45 43 42 41 41 40 39 40 42 44 45 47 48 48 49 50 51
33 33 33 34 34 34 35 35 36 37 38 39 40 41 42 43 43 44 44 45 47 48 48 48 48 47 45 44 43 42 42 42 44 45 47 48 49 50 51 52 52 52
35 35 35 35 36 36 36 37 38 38 39 41 42 43 44 45 45 46 46 46 48 49 50 50 49 49 47 45 44 44 44 45 46 48 49 50 52 53 55 54 52 52
37 37 37 37 38 38 38 39 39 40 41 42 43 44 46 47 47 48 48 49 49 50 52 51 50 50 49 47 46 45 46 47 48 50 51 53 54 56 57 54 51 52
39 39 39 39 40 40 41 41 41 42 43 44 45 46 48 49 49 49 50 50 51 52 53 53 52 51 50 49 48 47 48 49 50 51 53 54 56 58 57 54 52 53
41 41 41 42 42 43 43 43 43 44 45 45 47 48 50 50 50 51 51 51 52 54 55 54 53 52 51 51 50 49 49 50 51 53 54 56 57 58 58 55 54 56
44 44 44 44 45 45 45 45 45 45 46 47 48 50 51 52 52 53 53 53 54 55 56 56 54 54 53 52 51 50 51 52 53 54 56 57 58 59 59 57 56 58
46 46 47 47 47 48 48 48 47 47 48 48 49 51 53 54 54 55 56 56 55 56 58 57 56 55 54 53 53 52 53 54 55 56 57 58 59 60 59 57 57 60
49 49 49 49 50 50 50 50 49 49 51 51 51 51 54 56 57 57 58 58 57 58 58 59 57 55 54 54 53 53 54 55 56 57 58 59 61 61 58 55 58 61
51 52 52 52 52 52 53 53 52 52 53 54 54 53 55 57 58 59 59 60 60 59 60 60 58 56 56 54 54 55 55 55 57 59 60 61 62 60 56 56 61 62
53 54 54 54 54 55 55 55 54 54 55 56 56 56 56 57 58 60 61 62 62 61 61 61 60 58 57 56 56 56 55 56 59 61 62 62 62 59 57 60 62 61
55 56 56 56 57 57 57 57 57 57 56 57 58 59 59 59 59 60 62 63 64 63 62 61 60 59 58 57 56 53 53 58 62 63 64 63 62 61 61 62 61 61
57 58 58 58 59 59 60 60 59 59 59 59 60 61 61 61 60 61 62 63 65 64 63 61 61 60 59 57 54 51 55 61 64 65 65 63 63 64 64 63 62 63
59 59 60 60 61 61 62 62 62 61 61 61 61 62 62 62 62 61 61 62 64 65 65 63 62 61 60 58 55 55 59 63 65 66 65 65 66 67 65 65 65 64
61 61 61 62 63 63 64 64 64 64 64 64 64 64 64 64 63 62 62 62 63 65 65 64 63 62 62 60 60 60 63 64 65 66 66 67 68 68 67 67 66 64
62 62 63 64 64 65 65 65 66 66 66 66 66 66 66 65 65 64 64 63 63 63 64 65 64 64 63 62 62 63 64 65 66 67 67 68 69 68 67 66 64 62
64 65 65 66 66 67 67 67 68 69 69 68 68 68 68 67 67 67 66 65 64 63 64 64 65 65 65 64 64 65 66 66 68 68 69 70 70 69 67 66 63 62
66 67 67 67 68 68 69 69 70 71 71 70 70 70 70 70 69 69 68 67 66 65 64 65 65 66 66 65 66 67 67 68 69 70 71 71 71 70 68 65 63 64
67 68 69 69 69 70 71 72 72 73 73 73 72 72 72 72 71 70 69 68 67 67 66 66 66 67 67 67 67 68 69 69 70 71 71 71 71 70 66 63 64 68
68 69 70 71 71 72 73 74 75 75 75 75 74 74 73 73 73 72 70 69 69 69 68 67 67 68 69 69 69 69 70 71 71 71 72 72 71 68 65 64 67 70
69 70 71 73 74 74 75 77 77 78 77 77 76 75 74 74 73 72 72 71 70 70 70 69 69 69 70 71 72 72 72 72 72 72 72 73 71 68 66 67 70 72
71 72 73 74 76 77 78 80 80 80 80 79 77 76 75 73 72 71 72 72 71 71 71 71 70 71 72 73 74 74 73 73 73 72 72 73 72 70 70 72 73 75
73 73 74 75 77 79 80 82 82 83 82 80 79 77 74 72 71 71 71 72 72 72 72 72 72 72 73 74 75 75 75 74 73 73 73 73 73 72 74 76 77 78

ECMWFNIL_250_spd_033.txt.gz
Wind_Speed
25 25 25 24 24 24 25 26 27 28 29 30 31 31 31 32 32 33 34 35 36 37 38 39 40 41 42 43 44 44 44 43 42 41 41 40 39 38 38 38 39 40
27 27 26 26 26 26 27 27 28 30 30 31 32 33 33 34 34 34 35 36 37 38 40 41 41 42 43 44 45 46 45 44 43 42 41 41 40 39 39 39 40 41
28 28 27 27 27 28 28 29 30 31 32 32 33 34 35 36 37 37 37 37 39 40 41 42 43 43 44 44 46 47 46 45 45 43 42 42 41 41 41 41 42 43
29 28 29 29 29 30 30 31 32 33 33 34 35 35 36 37 39 40 40 40 40 41 42 43 44 44 45 45 46 47 47 47 46 45 44 43 43 42 43 44 44 44
30 29 30 31 32 32 32 33 34 35 35 36 36 37 38 39 40 41 42 43 43 43 44 45 45 46 46 47 47 48 48 48 48 47 45 44 44 44 45 45 46 46
31 31 32 33 34 34 35 35 36 37 37 38 38 39 39 40 41 42 44 44 45 46 47 47 48 48 48 49 50 50 50 50 49 48 47 46 46 46 47 46 46 49
32 33 34 35 36 36 37 37 38 39 39 39 40 40 41 42 43 43 44 46 46 47 48 49 50 50 51 51 52 52 52 52 51 50 49 48 48 49 48 46 48 51
35 35 36 37 38 38 39 40 40 41 41 42 41 42 43 44 45 45 46 47 48 49 50 50 51 52 53 53 54 54 54 54 53 52 52 51 50 51 49 48 50 53
37 38 38 39 40 40 41 42 43 43 44 44 43 43 45 46 47 47 48 49 49 50 51 52 52 53 54 55 56 56 56 55 55 54 54 53 52 52 51 50 52 54
40 40 41 42 42 43 43 44 45 45 46 46 46 46 47 47 48 49 50 51 51 52 52 53 53 54 55 56 57 57 57 57 56 55 55 54 53 53 53 52 54 55
43 43 44 44 45 45 45 46 47 47 48 48 48 48 49 49 50 51 52 53 53 53 54 54 55 55 56 57 58 58 58 58 57 56 56 55 54 55 55 55 56 57
46 46 46 47 48 47 48 49 49 49 49 49 50 50 51 52 52 54 54 54 55 55 55 56 56 57 57 58 59 59 59 58 58 57 57 56 56 57 57 56 57 58
48 48 49 51 50 49 50 51 51 51 52 51 51 51 52 53 55 56 56 56 56 57 57 57 58 58 58 58 59 59 59 58 56 56 58 58 58 59 58 58 59 60
50 51 52 53 52 51 52 52 53 54 54 54 53 53 53 55 56 57 57 57 57 58 58 58 59 60 59 59 59 59 60 59 58 58 59 59 60 60 60 60 61 61
53 54 55 54 53 53 54 54 55 55 56 55 55 55 55 56 58 59 59 59 59 59 59 60 60 60 61 60 60 60 61 61 61 60 60 60 61 61 61 62 63 63
56 57 57 56 55 55 55 56 56 56 56 57 57 58 58 58 59 60 60 60 60 60 61 62 62 61 61 62 62 62 62 62 62 61 61 61 62 62 63 64 64 65
58 58 58 58 57 58 58 58 58 58 58 59 60 60 60 60 61 61 62 62 62 62 63 64 64 64 63 63 63 63 63 63 62 62 62 62 63 64 65 65 65 65
60 60 60 60 60 60 60 61 60 60 61 60 60 60 61 61 62 63 63 63 64 65 65 66 66 66 66 66 65 63 62 63 63 63 63 63 64 65 66 66 66 67
61 61 61 61 62 63 63 63 62 62 62 61 61 61 62 63 64 65 64 65 66 67 67 68 68 68 68 68 66 63 62 63 64 64 65 65 66 66 67 68 68 68
62 62 63 63 64 65 65 65 65 65 64 63 63 64 65 66 67 68 67 67 67 68 68 69 69 70 69 68 65 63 64 64 64 65 66 67 68 68 68 69 68 68
65 64 65 66 67 67 66 67 67 67 66 66 66 68 69 69 71 71 70 70 70 69 69 69 70 71 69 68 66 66 66 65 65 66 67 68 69 69 69 69 69 69
68 67 67 68 68 68 67 68 68 69 69 68 68 70 71 73 74 74 73 73 72 71 71 71 72 71 70 69 68 68 68 66 66 67 68 69 69 69 69 69 70 70
71 69 68 69 69 68 68 69 70 71 70 70 69 71 73 75 76 76 76 76 75 74 74 73 73 72 71 70 69 68 68 67 67 68 68 69 70 70 70 70 71 72
72 71 71 71 70 70 70 71 72 72 72 71 71 71 74 76 77 78 78 79 78 78 77 77 75 73 71 69 68 67 67 67 68 68 69 70 70 70 71 72 74 75
74 74 73 73 72 72 72 73 74 74 73 73 72 73 76 78 79 79 80 81 81 81 79 78 77 74 71 69 68 67 67 68 68 69 69 70 70 71 73 74 76 77
77 76 76 75 75 74 74 75 75 74 73 73 74 76 78 80 81 82 83 83 83 82 80 77 75 73 71 69 69 69 69 69 69 70 70 70 71 73 75 76 78 78

ECMWFNIL_250_spd_036.txt.gz
Wind_Speed
19 20 22 24 24 24 25 25 24 24 24 24 25 25 27 28 29 30 31 33 34 36 37 38 38 39 40 40 40 40 40 41 42 42 42 42 42 42 42 41 40 39
19 21 23 24 25 26 26 27 27 26 26 26 27 27 28 29 31 31 32 33 35 37 38 39 40 41 42 42 41 42 42 42 42 43 43 43 43 43 43 43 42 41
20 22 24 25 26 27 28 29 29 28 28 28 29 29 30 31 32 34 34 35 36 38 39 40 41 42 43 43 43 43 43 43 43 43 43 43 44 44 45 45 44 42
22 22 24 26 27 28 29 30 31 31 30 30 31 31 32 33 34 35 36 37 38 39 40 42 43 43 44 45 45 45 45 45 45 45 45 45 45 45 46 46 45 44
23 24 25 27 29 30 31 32 33 33 33 33 33 34 34 35 36 37 38 38 39 40 42 43 44 45 45 46 46 47 46 46 47 47 46 47 47 47 48 47 46 46
25 25 26 28 30 31 32 34 35 35 35 35 35 36 37 37 38 38 39 40 40 41 42 43 45 46 46 47 47 48 48 48 48 48 48 49 49 49 50 49 48 48
28 27 28 29 30 32 34 35 36 37 37 37 38 39 39 40 41 41 41 42 42 43 44 44 45 46 47 48 48 49 49 49 50 50 51 51 51 52 52 51 51 50
30 30 30 31 32 33 35 37 38 39 39 39 40 41 42 43 43 44 45 45 45 44 45 46 46 47 48 48 49 50 50 50 52 53 53 54 54 54 54 53 52 51
32 32 32 33 34 36 37 39 41 42 42 43 43 43 44 45 45 46 47 47 46 46 47 49 49 48 48 49 50 51 51 51 52 54 55 56 57 57 57 54 52 52
35 36 36 36 37 38 39 40 42 44 45 45 45 46 46 46 47 48 48 49 48 48 50 51 50 49 48 49 51 52 53 53 53 54 56 57 58 59 58 55 54 55
39 39 40 40 40 40 41 42 43 45 46 47 48 48 48 49 49 50 50 51 50 51 52 52 51 50 49 50 52 54 54 55 55 56 56 58 59 59 58 57 57 57
41 42 42 43 42 42 42 44 45 46 47 48 49 50 51 51 51 52 53 53 52 53 53 53 53 53 52 53 55 56 57 58 58 58 58 59 59 59 58 58 58 59
43 44 44 45 44 44 44 45 47 48 49 50 51 52 52 53 53 54 54 55 55 55 55 55 55 56 57 57 58 59 60 60 61 61 61 61 60 59 59 59 60 60
45 45 46 47 46 45 45 46 48 49 50 52 53 53 54 54 54 55 56 57 57 56 57 57 58 59 59 59 60 61 62 62 62 63 62 62 62 60 60 61 61 61
47 47 48 49 48 47 47 48 49 50 52 53 54 54 54 55 56 57 58 58 59 59 59 59 60 61 61 61 61 62 62 63 63 63 63 63 63 62 62 62 62 62
49 49 50 51 50 49 49 49 50 51 53 53 54 55 55 56 58 58 58 59 60 61 61 62 62 62 62 62 62 63 63 64 64 65 65 64 64 64 64 63 63 63
51 52 52 53 52 50 49 50 51 52 53 54 55 56 57 59 59 59 59 60 62 63 64 64 65 65 65 64 63 65 66 65 66 67 67 66 65 65 65 65 64 63
51 53 53 52 51 50 50 51 52 54 55 57 58 58 59 60 61 61 61 62 64 65 66 66 67 68 67 66 65 67 68 67 67 67 68 68 66 66 66 66 65 64
51 52 53 52 52 52 52 53 55 57 58 59 60 60 61 61 62 62 63 64 66 67 68 69 69 70 68 67 67 68 68 68 68 68 69 69 67 67 66 66 66 66
53 54 55 56 57 57 57 57 59 60 61 61 62 63 63 64 64 64 65 67 68 70 70 71 71 71 69 68 68 70 69 68 69 70 70 70 69 68 67 67 67 65
57 58 59 60 61 61 61 61 62 63 63 63 64 66 66 66 66 67 68 69 71 72 73 73 73 72 70 69 71 72 70 70 71 71 71 70 70 68 67 67 66 65
62 62 63 64 65 65 65 66 65 66 66 66 67 68 69 68 68 68 69 71 72 73 75 76 75 73 72 73 74 73 71 71 72 72 71 70 69 68 68 66 65 65
65 66 66 67 69 69 69 69 68 68 68 69 70 71 71 70 70 70 71 71 73 74 76 76 75 74 74 75 75 73 72 73 73 73 71 69 68 67 66 65 65 65
68 69 69 70 71 71 70 69 70 71 72 71 72 72 72 71 71 71 72 72 74 75 76 75 74 74 75 75 74 73 73 73 72 71 70 68 67 66 65 65 65 64
72 73 73 73 72 72 72 73 75 76 75 74 74 74 73 73 72 72 73 74 75 76 75 74 73 74 75 73 72 73 73 73 71 70 68 68 67 66 66 66 65 66
76 76 76 75 75 75 76 78 80 80 78 76 75 75 75 74 74 74 74 75 75 76 76 75 74 74 74 72 71 72 73 72 70 69 68 68 67 67 67 67 67 68

ECMWFNIL_250_spd_039.txt.gz
Wind_Speed
17 17 17 17 16 16 15 15 16 17 18 19 21 23 24 25 26 26 27 28 30 31 32 34 35 35 35 36 37 38 37 37 37 37 37 38 38 39 40 41 41 41
18 19 20 20 20 19 18 17 17 18 19 20 22 24 25 26 27 28 29 30 31 32 34 35 37 36 36 37 39 39 39 38 38 39 39 39 40 40 42 43 44 44
20 21 21 22 22 22 21 20 19 20 20 21 23 25 26 28 29 30 31 32 33 34 35 37 38 38 39 39 41 41 40 39 39 40 40 40 41 42 43 44 45 46
22 22 22 23 24 24 24 23 22 22 22 22 24 26 28 29 30 32 33 35 35 36 37 38 39 40 41 41 42 42 42 41 42 43 43 43 43 43 44 46 46 47
25 24 24 24 25 26 26 26 25 25 25 25 26 28 29 31 32 33 34 36 37 38 39 39 40 41 42 42 43 44 44 45 45 47 47 46 45 46 46 46 47 48
27 27 27 27 27 27 28 28 28 28 28 28 29 30 31 33 34 34 35 37 38 39 40 41 41 42 43 44 44 45 46 47 48 50 50 50 49 49 48 48 49 50
29 30 30 30 30 30 30 30 30 30 31 32 32 32 33 34 35 35 36 38 39 40 41 42 43 44 45 45 46 46 47 48 50 51 52 52 52 52 51 52 52 52
31 32 33 32 32 33 33 32 32 33 34 34 34 34 35 36 36 36 37 39 40 41 42 42 43 45 46 47 48 48 49 50 51 52 53 54 54 54 54 54 55 54
32 33 33 33 33 33 33 33 34 35 36 36 36 36 37 37 37 37 38 39 40 41 41 42 44 46 48 49 49 50 50 51 53 54 55 55 56 56 55 56 56 56
33 34 33 33 33 34 34 34 35 37 37 37 38 38 39 39 38 38 39 40 40 41 41 43 45 46 48 50 51 51 52 53 54 55 56 57 57 57 56 56 57 58
35 35 35 35 35 36 37 37 38 38 38 38 39 40 41 41 40 39 40 40 40 41 42 44 46 48 49 50 52 53 53 54 56 57 58 59 59 58 57 58 59 60
37 38 37 37 37 38 39 39 39 39 39 40 40 42 43 42 41 40 41 41 42 43 45 46 48 49 50 51 53 54 55 56 57 58 59 60 61 60 59 60 61 62
40 40 39 38 39 40 41 42 41 41 41 41 42 44 45 43 42 42 42 43 44 45 47 48 49 50 51 53 54 55 56 57 58 60 61 62 62 61 60 61 62 63
42 42 41 41 41 42 43 43 43 43 42 43 44 46 46 43 42 44 45 46 47 48 50 50 51 52 53 54 56 57 58 59 60 62 63 64 64 63 61 62 64 65
44 44 44 43 43 44 45 44 44 43 43 44 46 47 45 43 44 47 48 49 50 51 52 53 54 54 55 56 57 59 61 62 62 63 64 65 65 64 63 64 65 65
45 46 46 46 45 45 46 46 45 45 45 46 48 48 46 46 48 50 52 52 53 54 54 55 56 56 57 58 59 61 62 64 64 65 65 66 66 65 65 65 66 64
47 48 48 47 47 47 48 48 48 47 48 49 50 50 49 49 51 53 55 56 56 57 57 58 58 58 58 59 60 62 63 65 66 66 67 67 67 67 67 66 65 64
49 48 49 49 49 50 50 50 49 50 51 53 53 53 52 52 54 56 58 58 59 59 60 60 60 60 60 61 63 64 64 65 66 68 68 68 68 68 68 66 65 63
50 50 50 51 51 52 52 52 52 53 55 56 57 56 55 56 58 59 60 60 61 62 62 62 62 62 61 63 65 65 65 66 67 68 69 69 69 68 67 66 65 64
53 52 52 53 54 54 54 55 56 57 57 58 59 58 59 60 61 61 62 62 63 63 64 63 62 62 63 65 67 67 67 68 68 69 70 70 68 66 65 65 65 67
55 55 55 56 57 57 58 59 59 59 60 61 61 62 62 63 63 64 64 64 64 64 65 64 63 62 64 67 68 68 67 68 71 72 70 68 67 66 64 64 67 70
59 58 58 59 60 61 61 62 62 63 64 65 65 65 65 65 65 66 66 65 65 66 66 65 63 63 66 68 69 67 67 69 70 69 66 66 66 63 60 64 71 73
63 62 62 62 63 64 64 64 66 68 68 68 68 68 67 67 67 67 67 66 67 67 67 65 64 65 67 69 69 67 67 67 64 61 62 63 62 59 61 68 75 73
67 66 65 66 66 67 67 69 71 72 72 72 71 71 70 70 69 69 68 69 69 69 68 66 66 67 69 70 68 67 66 63 60 61 64 64 63 63 66 72 73 71
70 69 68 70 70 70 71 73 75 75 76 75 74 73 73 72 72 72 71 72 72 71 69 68 68 69 70 69 68 67 65 63 65 68 68 66 65 66 67 70 70 68
73 72 72 74 75 75 75 77 78 78 77 77 77 77 76 75 75 75 75 75 74 72 70 70 70 71 70 69 68 68 67 67 69 70 68 66 65 66 67 67 66 64

ECMWFNIL_250_spd_042.txt.gz
Wind_Speed
15 14 13 13 13 14 14 14 15 15 16 17 17 17 17 18 18 18 18 19 20 22 23 24 25 26 27 27 28 30 32 33 34 35 36 37 38 39 40 41 42 43
16 15 15 15 15 16 16 15 16 16 17 18 19 19 19 21 22 22 21 21 21 22 24 25 26 27 28 28 29 30 32 34 35 36 37 38 39 40 42 43 45 46
18 17 17 17 17 17 17 17 17 18 18 19 21 21 22 23 24 25 24 22 23 24 25 26 27 28 28 29 29 31 32 34 36 37 38 39 41 42 44 45 47 48
20 19 19 19 19 19 19 19 19 19 20 21 22 23 24 24 26 27 26 24 24 25 26 27 28 29 29 29 31 32 34 35 37 38 40 41 43 44 46 47 49 50
21 21 21 20 20 21 21 21 21 22 23 23 24 26 26 27 28 29 28 26 26 26 28 28 29 30 30 30 32 34 35 37 38 39 41 43 45 46 48 49 51 52
23 23 23 22 23 23 23 23 24 25 26 25 26 28 29 29 30 30 29 28 27 28 29 30 31 32 32 32 33 35 37 39 40 41 43 45 47 48 50 51 53 54
26 26 26 26 26 26 26 26 25 26 27 27 28 29 29 30 31 32 31 30 29 29 30 31 32 33 33 34 35 36 39 40 41 42 44 46 49 51 52 53 54 55
29 29 29 29 28 29 29 28 26 27 27 28 28 29 30 31 32 33 32 31 31 31 32 33 33 34 35 35 36 38 39 41 43 44 45 48 50 52 53 54 56 56
32 32 31 31 31 31 30 29 28 28 29 30 30 30 31 32 33 34 34 33 32 33 35 35 35 35 36 36 37 39 40 43 44 45 47 48 50 52 55 55 56 58
34 34 33 33 32 31 31 30 30 30 31 32 32 32 32 33 34 36 36 34 34 36 37 37 36 36 37 38 39 40 42 44 45 46 47 48 50 53 55 56 58 58
35 35 35 34 33 33 32 32 32 33 34 34 34 34 34 34 35 37 37 35 35 37 39 38 37 37 39 40 41 42 44 45 46 47 47 48 50 52 55 57 58 58
36 36 36 35 35 35 34 34 35 36 36 36 36 36 36 36 36 38 38 36 37 39 40 39 39 40 41 42 43 44 45 47 48 48 48 49 50 52 56 58 58 59
37 37 37 37 37 37 37 38 38 39 39 38 38 38 38 38 38 39 39 39 39 41 42 41 42 42 43 44 44 45 47 48 48 49 49 49 50 53 56 58 61 61
39 39 40 40 40 40 40 41 41 42 41 40 40 40 41 40 40 41 41 41 42 43 43 44 44 45 45 45 46 47 48 49 49 50 51 50 51 54 58 62 62 54
42 42 43 43 43 44 44 44 44 44 43 42 42 42 43 43 43 44 45 45 45 45 45 46 48 47 47 48 48 49 50 50 50 51 52 52 52 54 61 63 54 47
45 45 46 46 46 46 46 47 47 46 45 44 44 45 46 47 46 47 48 48 48 48 48 49 50 49 49 50 50 51 52 53 52 52 53 52 52 57 62 55 45 45
48 48 48 48 49 49 49 49 49 48 47 47 47 47 49 49 49 50 52 51 50 50 50 52 52 50 52 53 53 54 55 55 54 54 54 53 53 58 56 44 40 45
51 51 51 51 52 52 52 52 51 50 50 50 50 50 51 51 53 54 55 54 53 53 53 54 53 53 55 55 55 56 57 58 57 56 55 55 56 57 52 44 44 46
54 53 54 54 55 55 55 55 54 53 53 53 53 54 53 53 55 57 58 57 57 56 56 56 56 56 57 57 58 59 60 60 60 58 57 59 58 56 53 53 53 50
58 57 57 58 57 57 57 57 56 56 56 56 57 57 56 56 57 59 60 60 60 60 59 58 58 59 59 60 61 62 63 63 62 60 60 61 60 57 56 58 58 54
61 61 61 60 60 59 58 58 58 58 59 59 60 61 60 60 60 61 63 63 63 63 62 61 61 61 62 63 63 65 66 65 63 63 63 64 62 60 61 62 61 59
64 64 64 63 62 61 60 60 60 61 61 62 63 64 64 63 63 64 66 66 66 66 65 64 64 64 64 65 66 68 68 67 66 66 66 66 65 64 64 65 64 61
67 67 67 67 66 64 63 63 63 63 64 65 65 67 68 67 67 68 69 68 69 69 68 68 67 67 67 68 69 70 70 68 68 69 69 68 67 67 67 67 65 62
71 70 70 70 70 68 67 66 66 66 67 68 68 69 70 71 71 71 72 72 72 72 71 71 70 69 70 70 72 73 71 70 70 70 70 70 69 69 69 68 67 64
74 73 73 73 73 72 71 70 70 70 70 71 71 71 72 74 75 75 75 76 76 76 75 73 72 72 73 73 74 74 72 71 72 71 71 72 71 70 70 68 66 64
77 76 76 76 76 76 75 74 74 74 74 74 74 75 75 75 77 78 79 79 79 78 76 74 74 75 75 75 77 76 74 73 73 72 73 74 73 71 69 66 65 64

ECMWFNIL_250_spd_045.txt.gz
Wind_Speed
18 17 16 15 14 13 12 12 11 10 10 10 10 11 11 12 14 15 16 17 18 18 19 20 20 20 21 21 22 22 23 25 27 29 30 32 34 35 37 40 42 44
20 19 18 17 16 15 15 14 13 12 11 12 13 13 14 14 15 17 18 19 20 20 21 22 22 22 23 23 24 24 24 26 28 30 32 33 35 36 38 40 42 45
22 21 20 19 19 18 17 17 15 14 13 14 15 16 16 16 17 18 20 21 21 22 22 23 24 24 24 25 25 25 26 27 28 30 32 35 37 38 39 41 43 45
24 23 22 21 21 20 20 19 18 16 16 16 16 18 18 19 19 19 21 22 22 22 23 24 25 26 26 27 27 27 27 28 29 31 33 36 38 40 41 43 44 46
25 25 24 23 22 22 22 21 20 19 19 19 19 20 20 21 21 21 21 22 22 22 23 25 27 28 28 29 29 29 29 29 29 32 34 37 39 41 43 44 46 48
25 25 25 25 24 24 24 23 22 22 22 22 22 23 23 22 22 22 23 23 23 23 24 26 28 30 30 31 31 31 31 30 30 33 35 37 39 41 43 44 47 49
27 27 27 27 27 26 26 25 25 25 25 25 26 25 25 24 23 24 25 25 25 24 25 27 29 31 32 32 32 32 32 31 32 34 36 38 40 42 43 44 47 49
29 29 29 29 29 29 29 28 27 27 27 28 29 28 27 26 25 25 26 27 27 26 26 28 30 33 33 33 33 34 34 34 34 35 37 39 42 44 44 44 47 50
32 31 31 31 31 31 31 30 29 29 29 30 31 30 28 28 27 27 28 29 29 29 28 29 32 34 34 34 34 35 36 36 37 37 38 40 43 45 46 45 47 49
34 33 33 33 33 33 33 32 32 32 31 32 32 31 30 30 29 29 30 31 31 31 31 32 34 36 36 36 36 37 38 38 39 39 40 41 43 46 47 46 47 49
36 36 36 35 35 35 35 34 34 34 33 33 33 33 33 32 31 31 32 33 33 33 33 34 36 37 38 38 39 40 40 41 41 41 41 42 44 47 48 47 48 49
38 37 37 37 37 36 36 36 35 35 34 34 34 34 35 34 34 34 34 35 36 36 36 36 37 39 40 40 41 42 42 43 43 43 43 43 45 48 49 49 49 50
40 39 38 38 37 37 37 37 37 36 36 35 36 36 37 36 36 36 36 37 38 39 38 38 39 40 41 42 43 44 44 44 45 45 45 45 46 49 51 51 51 51
41 40 39 39 38 38 38 39 38 38 38 38 38 39 39 38 38 38 38 39 41 41 40 40 41 42 43 44 45 46 46 46 47 47 47 47 48 50 53 53 52 52
42 41 41 40 40 40 40 40 41 41 41 41 41 41 41 41 41 41 41 41 42 43 43 43 44 45 45 45 47 48 48 48 49 49 49 50 51 53 54 55 54 53
44 43 43 43 43 43 43 44 44 44 44 45 45 44 44 43 43 43 43 43 44 45 45 45 46 47 47 47 48 50 50 50 51 51 52 53 53 55 56 56 56 55
47 46 46 46 47 47 47 47 47 47 48 48 48 48 46 45 45 45 45 45 46 47 48 49 49 50 50 50 51 52 52 52 53 53 55 56 56 57 59 59 58 57
51 50 50 49 50 50 50 50 50 50 51 52 51 50 49 48 47 47 47 47 48 50 51 52 52 53 53 53 53 54 54 54 55 56 57 59 59 60 61 61 59 59
54 54 53 53 53 53 53 52 52 53 54 54 54 53 51 50 50 49 49 50 51 52 53 54 55 55 56 56 56 56 56 56 57 58 60 62 62 63 64 63 60 60
56 56 57 56 56 55 55 54 55 56 56 56 56 55 53 52 52 51 51 52 53 54 55 56 58 58 58 58 59 59 59 58 59 60 62 64 65 65 66 65 62 61
59 59 60 59 59 58 57 56 57 58 58 58 58 56 55 55 54 53 54 54 55 56 57 59 60 61 61 61 61 62 61 60 61 63 65 67 67 66 67 66 64 62
62 63 63 63 62 61 60 59 60 60 61 61 59 58 57 57 57 57 57 57 57 58 59 62 63 64 64 64 64 65 64 62 63 64 66 68 69 68 68 67 64 62
66 66 67 66 66 66 65 64 64 63 63 63 62 61 60 60 60 61 60 60 61 61 63 65 66 67 67 67 68 68 67 66 65 66 68 69 70 71 70 67 64 62
69 70 70 70 69 70 70 69 68 67 66 65 65 65 64 64 64 64 64 64 64 65 67 69 69 70 70 71 71 71 70 69 68 68 70 70 71 72 71 67 64 63
67 70 71 72 72 73 73 73 72 70 69 69 68 69 69 68 67 66 67 69 69 69 71 72 71 72 73 74 74 73 73 71 71 70 71 72 72 73 71 68 65 63
62 64 66 68 70 71 72 73 73 72 72 72 71 72 72 72 71 70 71 72 73 73 74 74 73 74 75 76 76 75 73 73 72 72 72 72 72 72 70 68 65 62

ECMWFNIL_250_spd_048.txt.gz
Wind_Speed
21 19 18 17 15 14 13 12 12 10 8 8 7 7 7 8 9 9 10 11 12 14 15 16 17 17 17 17 18 19 21 23 24 24 24 26 28 30 32 34 36 39
23 21 20 19 18 17 16 16 14 12 11 10 10 10 10 11 11 12 13 14 15 16 17 18 18 18 18 18 18 19 21 23 24 25 25 26 28 30 32 33 35 37
24 23 21 20 20 20 19 18 17 15 13 13 13 13 13 13 14 15 15 16 17 17 18 19 19 20 19 19 19 20 21 23 24 25 26 27 29 30 32 33 34 36
26 24 23 23 22 22 22 21 19 18 16 16 16 16 16 16 17 18 18 18 19 19 20 20 21 22 22 22 21 21 22 23 24 25 26 28 30 31 33 33 34 36
27 27 26 25 24 24 24 23 22 21 20 19 19 19 19 20 20 21 21 21 21 21 21 22 23 23 24 24 24 23 23 24 24 26 27 28 30 32 33 34 34 36
29 29 28 27 27 26 26 25 24 23 22 22 22 22 22 22 23 23 24 24 23 23 23 23 24 25 26 26 26 25 25 25 25 26 28 29 31 32 34 35 35 37
29 29 29 29 28 28 27 26 25 24 24 24 24 25 25 25 25 26 26 26 25 24 25 25 26 26 27 28 27 27 27 27 27 28 29 30 32 33 35 35 36 37
30 30 30 29 29 29 28 27 27 26 26 27 27 27 27 28 28 28 28 28 27 26 27 27 27 28 29 30 29 29 29 29 28 29 30 31 33 35 36 36 37 38
30 31 30 30 30 30 29 29 29 29 29 30 30 29 30 30 29 29 29 29 28 27 28 29 30 30 31 31 31 32 31 31 30 30 31 33 35 37 37 37 38 39
31 31 31 31 31 31 31 32 32 32 32 32 32 31 31 31 31 30 30 29 29 29 29 31 32 32 32 33 33 34 34 33 33 33 33 34 36 39 39 39 40 40
32 32 32 32 32 32 33 33 34 34 33 33 33 33 33 32 32 31 31 31 31 31 31 32 33 34 34 35 35 36 36 36 36 36 36 36 38 40 41 41 41 42
34 34 34 33 33 34 34 35 35 35 35 35 35 35 34 34 33 32 32 32 32 33 33 34 35 36 37 37 37 38 38 38 39 39 39 39 39 41 43 43 43 44
37 36 35 35 35 36 36 36 36 36 36 36 35 35 35 35 35 34 34 34 34 35 36 37 38 39 39 39 39 40 41 41 41 42 42 42 42 43 44 44 45 45
39 38 37 37 37 37 38 37 37 37 37 36 36 37 37 37 36 36 36 36 36 37 38 39 40 41 41 41 41 41 43 44 44 44 44 44 44 45 46 46 46 47
41 40 40 39 39 40 39 39 39 39 38 38 38 38 38 38 38 38 38 38 39 40 40 41 42 43 43 43 43 43 45 46 47 47 46 46 46 47 48 48 48 49
41 41 41 41 41 41 41 41 41 40 40 39 39 39 40 40 40 40 40 41 41 42 43 43 44 44 45 45 45 46 47 48 49 49 48 48 48 49 50 50 50 51
43 43 43 43 43 43 42 42 42 42 42 42 42 42 42 42 43 43 43 43 44 44 44 45 45 46 46 47 48 49 49 50 51 52 51 50 51 51 52 52 53 54
46 46 46 46 46 45 45 44 44 44 45 46 46 46 45 45 46 46 45 45 46 46 47 47 47 48 49 49 50 51 51 52 53 54 54 54 54 54 55 55 55 56
48 48 49 49 48 48 47 47 46 47 48 48 49 48 48 48 48 48 47 47 48 49 49 49 50 51 51 52 53 53 54 55 55 57 57 57 57 57 58 58 58 58
51 51 51 51 51 50 49 49 49 50 50 51 51 51 50 50 51 50 50 50 51 51 51 51 52 54 54 55 55 56 57 57 58 59 60 61 61 60 60 60 61 61
53 53 53 53 53 53 52 53 53 53 53 53 53 53 53 53 53 53 53 54 54 54 53 54 56 57 58 58 59 59 60 60 60 62 63 64 64 64 63 63 63 64
57 56 56 55 55 56 57 57 57 56 56 56 56 56 56 56 56 57 57 57 57 57 57 58 59 60 61 62 62 63 63 63 63 65 65 66 66 66 66 65 65 67
58 58 57 57 58 59 60 61 61 60 60 59 59 60 60 59 60 60 61 61 61 61 61 62 63 63 65 66 66 66 66 66 66 67 67 67 68 69 68 68 67 68
55 56 56 57 58 59 60 61 62 62 62 62 62 62 62 62 63 63 63 64 64 65 65 65 65 66 67 68 69 69 69 68 68 68 68 68 69 69 69 69 68 68
50 51 53 54 54 55 56 57 57 57 58 59 59 59 59 60 61 62 62 62 62 63 63 63 63 64 65 67 68 69 69 68 67 66 66 67 67 68 68 68 67 66
45 46 47 48 49 49 50 51 52 52 52 52 53 53 53 54 55 55 56 57 57 57 56 56 57 58 59 61 63 63 64 64 62 61 62 63 63 63 65 66 65 63

ECMWFNIL_250_spd_051.txt.gz
Wind_Speed
18 17 16 16 14 13 12 11 11 10 9 8 8 8 8 8 9 9 9 10 12 14 15 17 17 17 16 16 16 16 17 18 19 19 20 21 21 22 23 24 26 27
20 20 19 19 17 16 15 15 14 13 12 11 11 11 11 12 11 11 12 12 13 15 17 18 19 18 18 18 17 17 17 18 19 20 21 21 22 23 23 24 26 27
23 22 22 21 20 19 19 18 16 15 15 15 14 14 14 14 14 14 15 15 16 17 18 19 20 20 20 19 19 19 18 19 20 21 22 23 24 24 24 25 26 27
24 24 23 22 22 22 21 20 19 18 18 17 18 18 17 17 17 18 18 18 19 20 21 21 22 21 21 21 21 21 21 20 20 22 23 24 25 26 26 26 27 28
25 24 24 24 23 24 24 23 22 21 20 20 20 20 20 20 20 20 21 21 21 22 24 24 23 23 22 22 23 23 22 22 22 23 24 26 27 27 27 27 28 29
26 25 24 25 25 26 25 24 23 23 23 22 22 22 22 22 22 22 22 23 24 24 26 27 26 25 24 24 24 24 24 24 24 25 26 27 28 29 29 29 29 30
27 26 26 27 28 27 26 25 24 24 24 24 25 24 24 24 23 23 24 24 25 26 27 28 29 27 26 25 25 25 25 25 26 26 27 29 30 30 31 31 31 32
27 28 29 30 29 28 27 26 25 25 26 26 26 25 25 25 25 25 26 26 27 27 28 29 30 30 29 27 26 27 27 27 28 28 29 30 31 32 32 32 32 33
28 29 30 31 31 30 28 27 27 27 27 27 27 27 27 27 28 28 28 28 28 29 29 30 31 31 31 29 28 29 29 29 29 30 30 31 32 34 34 34 34 34
29 30 31 31 31 30 28 28 28 28 28 28 28 29 29 29 29 30 30 30 30 30 30 30 30 31 31 31 31 31 31 31 31 31 32 32 33 35 36 36 36 36
31 32 32 31 30 29 29 29 29 29 29 30 30 31 31 31 31 31 31 31 31 31 31 31 31 31 32 33 33 33 33 33 33 33 34 34 35 36 38 38 38 38
33 33 33 31 30 29 30 30 30 30 31 31 32 32 33 32 32 33 33 33 33 33 33 32 32 33 34 34 34 35 35 36 36 36 36 37 38 38 39 40 40 40
35 34 33 32 31 31 32 32 32 32 32 33 34 34 34 34 34 34 34 35 34 34 34 34 34 34 35 36 36 37 38 38 39 39 39 39 40 41 41 42 42 42
36 34 33 32 32 33 34 34 34 34 34 35 35 36 37 37 37 37 37 37 36 36 36 36 36 36 37 38 38 39 40 40 41 41 42 42 42 43 44 44 45 44
36 34 34 33 33 35 35 35 35 36 36 37 37 38 38 38 38 38 39 38 38 38 38 38 38 39 39 40 41 41 42 42 43 43 44 44 45 45 46 47 47 47
37 36 35 35 35 36 37 37 37 37 37 38 38 38 39 39 39 39 39 39 39 39 39 40 41 42 42 43 43 44 44 44 44 44 45 47 47 48 49 49 50 50
38 38 37 37 37 38 38 38 38 38 38 38 38 39 39 39 40 40 40 40 41 41 42 43 44 45 45 45 45 46 46 46 46 47 47 49 50 51 52 52 53 53
40 39 39 40 40 40 40 40 39 39 40 40 40 40 40 41 42 42 43 43 43 44 45 46 47 47 48 48 48 48 48 49 49 50 51 52 53 55 56 56 56 56
42 41 42 43 43 43 43 42 42 43 43 43 43 43 44 44 45 45 45 46 46 46 47 48 49 50 50 50 51 51 51 51 52 54 54 55 56 58 59 59 59 59
45 44 45 45 45 45 45 45 45 46 46 46 46 46 46 47 47 48 48 48 48 49 50 51 52 52 53 53 54 54 54 55 56 57 58 59 60 61 61 62 62 62
47 47 47 47 47 47 47 47 48 48 49 49 49 48 49 49 50 51 51 51 51 52 53 54 54 55 56 57 58 58 58 59 59 60 61 61 62 62 62 62 62 62
49 49 49 49 49 49 50 50 51 52 52 52 51 52 52 53 53 54 55 55 55 55 55 56 57 57 58 59 60 60 60 60 59 59 59 59 59 59 59 59 59 58
52 52 52 52 52 53 54 55 55 55 54 54 54 55 55 56 56 56 56 56 56 56 55 55 55 55 56 57 58 58 57 56 55 54 53 53 54 54 54 54 54 54
55 55 54 54 55 55 56 56 55 55 54 54 54 53 53 53 53 53 52 52 51 51 51 51 51 51 51 52 52 52 52 51 49 48 48 49 49 49 50 50 51 52
53 53 52 51 51 51 51 51 50 50 50 49 49 48 48 48 48 47 47 47 46 46 46 46 47 47 47 48 48 49 49 48 47 46 47 47 47 46 47 48 49 50
48 46 46 45 45 45 45 45 45 45 45 45 44 44 43 44 44 44 43 44 44 44 44 44 45 44 44 45 46 46 47 47 46 46 47 48 47 45 46 48 49 49

ECMWFNIL_250_spd_054.txt.gz
Wind_Speed
17 15 14 13 12 11 10 9 9 8 7 6 6 6 6 7 7 8 9 9 10 11 13 14 15 16 17 18 18 17 17 18 18 19 19 20 21 21 21 22 23 23
18 17 16 15 13 13 12 12 11 10 9 9 9 9 9 9 10 11 12 12 12 13 14 14 15 17 18 19 19 19 19 19 19 20 20 20 21 22 22 23 23 23
21 20 19 17 16 16 16 14 13 12 12 12 12 12 12 11 12 13 14 15 15 16 16 16 16 17 19 20 21 21 20 20 20 21 21 21 22 23 23 24 24 24
24 22 20 20 19 19 18 17 16 15 16 15 15 15 14 14 14 15 16 17 18 18 18 17 17 18 20 21 22 22 21 21 21 22 23 23 23 24 25 25 25 25
26 24 22 22 21 21 21 20 19 19 18 18 18 18 18 17 17 17 17 18 19 20 19 19 19 19 21 22 23 23 23 23 23 23 24 25 25 25 26 26 26 26
27 25 24 23 23 23 23 23 23 22 21 20 21 21 20 20 19 18 18 19 20 21 21 21 21 22 22 23 24 24 24 24 24 24 25 27 27 27 28 28 28 28
28 26 25 25 25 25 25 25 25 24 23 24 24 23 22 21 21 20 20 19 20 21 22 23 24 25 25 25 26 26 26 25 25 25 26 28 29 30 30 30 30 30
28 27 27 27 27 26 26 25 25 25 25 26 26 25 24 23 22 22 21 21 21 22 24 25 26 27 27 28 27 27 28 28 27 27 27 29 31 32 34 33 33 32
28 28 28 28 27 27 26 26 26 27 28 28 28 27 26 25 24 23 23 23 23 24 25 26 27 28 30 30 30 29 29 29 29 29 29 30 32 34 36 36 36 35
27 27 27 27 27 27 27 27 28 29 30 30 30 29 28 27 26 25 25 25 25 26 26 27 28 29 30 32 32 31 31 31 32 31 31 32 34 35 37 39 39 38
27 27 27 27 27 27 27 28 29 31 32 32 31 31 30 29 28 28 27 27 27 28 28 29 30 31 31 32 33 32 32 33 33 34 34 34 36 37 39 40 41 41
28 29 29 28 28 28 28 28 30 31 31 32 32 32 31 30 29 29 29 29 29 29 30 31 31 32 32 32 33 34 34 34 35 36 36 37 38 40 41 41 42 43
31 30 29 29 29 28 28 29 30 30 30 31 32 31 31 31 30 30 30 31 31 31 32 33 33 33 33 33 34 34 34 35 36 37 39 40 41 42 43 43 44 45
32 31 30 30 30 30 30 30 30 30 30 31 31 31 31 31 31 31 32 32 33 33 34 34 35 34 34 34 34 35 36 37 38 39 41 43 44 45 45 46 47 48
34 33 32 32 32 32 32 32 31 30 31 31 31 31 31 32 32 33 33 34 35 35 35 36 36 35 35 36 36 37 38 39 40 42 43 45 46 47 47 48 49 50
37 36 35 35 35 35 35 34 33 31 32 32 32 32 32 33 33 34 35 36 36 37 37 37 37 37 38 38 39 39 40 42 43 44 45 47 48 49 50 50 51 53
40 39 38 37 38 38 38 37 36 34 34 34 34 34 34 34 35 36 37 38 38 38 39 39 40 40 41 41 42 42 42 44 45 47 48 49 50 52 52 53 54 55
42 41 40 39 40 41 40 39 38 37 37 36 36 35 35 36 37 37 38 39 39 40 41 42 43 43 44 44 44 44 45 46 48 50 52 53 54 55 56 56 57 58
43 43 42 41 42 42 41 40 39 38 38 37 37 36 37 38 38 39 40 40 41 42 43 44 45 46 46 46 46 47 48 49 51 54 55 57 57 58 58 58 58 57
45 45 43 42 42 42 42 40 39 39 39 38 38 38 39 40 40 41 42 42 42 43 45 46 47 48 49 49 50 51 51 53 54 56 58 59 58 58 57 55 54 52
47 45 43 42 42 42 42 41 40 40 40 40 41 41 42 42 42 43 43 44 45 45 47 49 50 51 52 53 54 54 54 54 55 55 55 54 53 52 51 49 48 47
47 45 43 42 42 43 43 43 42 43 43 43 43 44 44 44 45 45 46 47 48 49 50 52 53 54 55 56 56 56 54 52 50 49 48 48 47 47 46 45 45 45
47 45 45 44 45 45 45 45 45 45 45 45 46 46 47 48 48 49 50 52 53 53 53 54 54 54 54 54 53 52 49 47 45 43 43 43 44 43 43 43 44 45
48 47 47 47 46 47 46 46 46 47 47 48 49 50 51 51 52 53 53 54 54 53 53 52 51 50 49 48 48 46 45 44 42 41 41 41 41 41 41 42 44 45
49 49 48 48 48 48 49 49 50 50 51 51 52 52 53 53 53 53 52 52 50 49 48 47 45 44 43 44 44 44 44 44 43 42 42 41 40 40 40 42 43 44
50 50 50 50 51 51 52 52 53 53 53 53 52 52 51 50 49 48 47 46 45 44 43 42 42 41 41 42 43 43 43 42 42 42 41 40 39 39 40 42 43 44

ECMWFNIL_250_spd_057.txt.gz
Wind_Speed
20 20 19 18 17 15 14 12 11 9 8 7 7 7 7 7 8 8 8 8 8 9 9 9 10 10 11 12 14 16 17 16 16 16 16 17 18 18 19 21 22 23
23 22 21 19 17 16 15 14 12 11 10 10 10 10 10 10 10 11 11 11 11 11 11 11 11 12 13 13 14 16 17 18 18 18 18 18 19 19 20 21 22 23
25 23 21 19 18 17 16 15 14 13 13 13 13 13 12 12 12 13 14 14 14 14 14 13 13 13 14 15 16 17 18 19 20 21 20 20 20 21 21 22 23 24
25 23 22 21 20 19 18 17 16 16 16 16 16 15 15 15 15 15 15 16 16 16 16 16 15 15 15 16 18 18 19 20 22 23 23 23 22 22 23 24 24 25
26 25 24 23 22 21 21 20 19 19 18 18 18 18 18 18 17 17 17 18 19 19 18 18 17 17 16 17 19 20 20 21 22 24 25 25 25 25 25 25 26 27
29 27 26 25 24 23 23 21 21 20 20 20 20 20 21 20 19 19 20 20 21 21 21 20 19 19 19 19 19 20 21 22 23 24 25 26 26 26 26 26 27 28
31 30 28 27 26 25 24 23 22 21 21 22 23 23 23 22 22 22 22 22 22 23 23 22 22 22 21 21 21 22 23 24 25 25 26 27 27 28 28 28 28 30
33 32 30 29 28 27 25 24 23 22 22 23 24 25 25 25 24 24 24 24 24 24 24 24 23 23 24 24 24 24 25 25 26 27 27 28 28 29 30 30 31 32
35 33 32 30 29 28 26 25 24 24 24 25 25 25 26 26 26 26 25 25 25 25 25 25 25 25 25 26 26 26 27 28 28 28 29 29 30 30 31 32 33 34
36 34 32 31 30 28 27 26 25 25 26 27 27 27 27 27 27 27 27 26 26 26 26 26 26 26 26 27 27 28 29 30 31 31 31 31 31 31 32 34 35 37
37 35 33 31 30 28 27 26 26 26 27 27 27 27 28 28 28 28 28 28 27 27 27 27 27 27 27 28 28 29 30 31 32 33 33 33 33 34 35 36 37 39
37 35 32 31 29 28 27 26 26 26 26 26 26 27 27 27 28 28 28 28 28 28 28 27 27 27 27 28 29 30 31 32 34 35 36 36 35 36 38 39 40 41
36 33 31 30 28 27 27 27 27 27 26 26 26 27 27 27 28 28 28 28 28 28 28 28 28 28 29 30 31 31 33 34 35 36 37 38 38 39 40 41 43 44
35 32 30 29 27 27 28 28 28 27 26 26 27 27 28 28 28 28 28 28 27 28 28 29 29 29 30 31 32 34 35 35 36 37 38 40 41 42 43 44 45 46
35 33 32 30 29 29 29 29 28 27 27 27 28 28 29 29 29 28 28 28 29 29 29 30 30 30 31 32 34 35 36 36 37 38 40 42 44 45 45 46 48 50
37 36 34 32 31 31 31 30 29 29 29 29 29 30 30 31 30 30 29 30 30 30 30 31 31 32 32 33 34 35 37 38 40 41 43 44 45 47 48 49 51 53
39 37 36 34 33 33 32 32 32 31 31 32 32 31 31 32 32 32 31 31 32 32 32 32 32 33 33 34 35 37 39 41 42 43 45 46 48 49 51 52 54 56
40 39 37 36 35 34 34 34 34 34 34 34 33 33 33 33 33 33 33 34 34 34 34 34 34 34 35 36 38 39 41 43 45 46 47 49 51 52 54 55 56 56
41 40 39 38 36 36 36 36 37 37 36 35 34 34 34 34 34 34 35 35 35 35 35 36 36 37 38 38 39 41 43 45 48 50 51 52 53 54 55 54 53 52
42 41 40 39 38 37 37 38 39 38 36 35 35 35 36 35 35 35 35 35 36 36 37 38 39 39 40 41 42 43 45 48 50 52 54 54 54 53 52 50 47 46
43 42 41 40 39 39 39 40 39 38 37 37 37 37 37 36 36 36 35 36 37 39 40 40 40 41 43 44 45 46 48 50 52 53 53 52 51 48 46 44 43 42
43 43 42 41 41 41 41 41 40 40 39 40 39 39 38 37 36 37 37 38 39 41 42 42 43 45 46 48 49 49 50 50 49 49 48 47 45 43 42 41 40 40
44 44 43 43 43 43 43 42 42 42 41 41 40 39 38 38 38 38 39 40 41 43 44 46 47 48 50 50 51 50 48 46 43 41 40 40 40 39 39 39 39 38
44 45 45 44 44 44 44 44 43 43 42 41 40 40 40 40 40 40 41 43 44 46 47 48 49 50 50 50 48 45 42 39 37 35 35 35 35 35 36 37 38 38
45 46 46 45 45 45 45 44 44 43 42 42 42 42 41 41 42 43 44 46 47 49 49 50 49 49 46 44 42 39 36 35 33 33 32 31 32 33 34 36 37 38
46 46 46 46 45 45 44 44 44 43 43 43 43 42 43 44 45 46 47 48 49 49 49 48 46 43 40 37 35 34 33 32 32 32 32 32 33 34 36 37 38 40

ECMWFNIL_250_spd_060.txt.gz
Wind_Speed
21 21 21 20 20 19 18 17 16 15 13 13 12 12 12 11 11 11 11 10 9 7 7 7 8 10 11 11 12 13 14 15 16 16 17 18 18 19 19 20 21 22
23 23 22 22 21 20 19 18 16 15 15 14 14 13 12 12 12 12 12 11 11 10 9 10 10 11 12 13 13 14 15 16 17 17 18 19 19 20 21 21 22 23
24 24 24 23 22 21 20 19 17 17 16 16 15 14 14 14 14 14 13 13 13 13 12 12 12 12 13 15 15 15 16 17 18 18 19 20 21 22 23 23 24 25
27 26 25 24 23 23 22 20 19 19 18 17 16 15 15 16 16 16 15 15 15 15 15 14 14 14 14 15 16 17 17 18 19 20 20 21 22 23 24 25 25 26
29 28 27 26 25 25 24 22 21 20 19 18 17 17 17 18 18 18 17 17 17 17 17 17 17 16 16 16 17 17 18 19 21 21 22 22 23 24 25 26 27 27
30 30 29 28 28 27 25 24 23 21 20 19 19 19 19 19 20 20 19 19 19 19 19 20 20 19 18 18 18 18 18 19 21 22 23 24 25 26 27 28 29 29
32 31 30 30 30 29 27 26 24 23 22 21 21 22 22 22 22 22 21 21 21 21 21 22 22 22 21 20 20 19 19 19 20 22 24 25 26 28 29 29 30 31
33 32 32 33 32 31 29 28 26 25 24 23 23 24 24 24 24 24 23 23 23 23 23 23 23 23 23 23 22 21 21 21 21 22 24 26 28 29 30 31 31 32
35 35 35 35 34 32 31 30 29 28 27 26 26 27 27 26 25 25 24 24 24 25 25 24 24 24 24 24 24 24 23 23 23 23 24 26 28 30 31 31 32 32
38 37 38 37 36 34 32 32 31 30 29 28 29 29 28 28 27 26 26 26 26 26 26 26 25 25 25 25 25 25 25 25 25 26 26 27 29 31 31 32 32 34
40 40 40 39 37 35 34 34 33 32 32 31 31 30 30 29 28 27 27 27 27 26 26 26 26 26 26 26 26 26 26 26 27 27 28 29 30 31 32 33 34 36
42 42 41 40 39 38 37 37 36 35 34 33 32 31 30 29 28 28 27 27 27 27 26 26 26 26 26 26 27 27 27 27 28 28 29 30 31 32 33 35 36 38
42 41 42 42 40 40 39 39 38 37 36 35 34 32 31 29 28 27 27 27 26 26 26 25 25 25 26 26 26 27 28 29 29 30 30 31 32 33 35 36 38 39
41 40 40 41 42 42 42 41 40 38 37 36 35 33 30 28 27 27 26 26 26 26 25 25 24 25 25 25 26 27 28 29 31 32 32 33 34 35 37 38 40 41
42 41 40 40 42 43 42 41 40 38 37 36 34 32 29 27 26 26 26 26 26 25 25 24 24 24 25 25 26 27 29 30 32 33 34 35 35 36 38 41 43 45
44 43 42 41 41 42 41 40 39 38 37 35 33 30 28 27 26 26 25 26 26 26 26 26 26 26 26 26 28 29 30 31 33 34 36 37 37 39 41 44 46 48
45 45 44 42 41 40 40 39 38 37 36 34 32 30 28 27 27 26 26 26 27 27 28 28 28 27 28 28 29 30 31 32 34 35 37 38 40 42 45 47 48 49
45 45 45 43 41 40 39 38 38 37 36 34 32 30 29 29 28 26 26 27 28 29 29 29 29 29 29 30 31 32 33 34 35 37 39 41 43 45 47 48 48 47
44 45 45 44 42 41 39 38 38 38 37 34 32 30 30 30 29 28 28 29 30 31 31 30 30 30 30 31 32 33 35 36 37 39 41 43 45 47 47 47 45 42
44 44 45 44 43 42 40 40 39 39 37 35 33 32 32 32 31 31 31 31 31 32 32 31 31 30 31 32 33 35 36 38 39 42 44 45 46 46 45 43 39 37
43 44 44 44 44 43 42 41 40 39 38 36 35 34 34 33 33 34 34 33 34 34 34 32 31 32 32 33 34 36 38 40 42 44 46 46 45 43 40 37 35 34
41 43 44 44 44 44 43 42 41 40 39 38 37 36 36 36 36 36 36 36 36 36 35 33 33 33 34 34 35 37 40 43 45 46 46 44 41 38 35 34 32 31
38 40 42 43 44 45 44 43 42 41 40 40 39 39 39 38 37 37 37 38 38 38 36 34 35 35 35 36 37 39 41 44 45 45 44 40 37 34 33 32 30 30
35 37 39 42 44 45 44 44 43 42 42 42 42 41 41 40 39 39 39 40 40 39 37 36 37 37 37 38 39 41 43 44 43 41 38 35 34 33 32 32 31 31
33 35 37 40 42 44 44 44 44 44 43 43 44 44 43 42 41 41 41 41 40 39 39 38 38 38 39 40 41 42 43 41 38 35 32 30 30 31 31 32 32 32
35 35 36 38 40 42 44 45 45 45 45 45 45 44 43 42 42 42 42 41 40 40 40 40 40 40 41 42 43 42 40 37 34 31 29 28 29 30 32 32 32 32

ECMWFNIL_250_spd_063.txt.gz
Wind_Speed
22 20 18 17 16 16 16 16 15 15 15 14 14 14 13 13 13 13 12 10 9 8 8 8 9 9 10 11 12 13 14 14 15 16 16 17 18 18 20 21 22 24
23 21 20 18 17 17 17 17 16 16 15 15 15 15 14 13 13 13 12 12 10 10 10 10 11 12 13 13 13 14 15 16 16 17 17 18 18 19 20 22 23 24
24 23 21 19 19 19 19 18 18 17 17 17 16 16 15 14 13 12 12 12 11 11 11 12 13 14 14 15 15 15 16 17 17 18 18 19 19 20 21 23 24 25
27 25 23 21 21 22 21 20 20 19 19 18 17 17 17 16 15 14 13 13 13 12 12 13 14 15 16 16 17 17 18 18 18 18 19 19 20 21 22 23 25 26
29 27 25 24 24 24 23 22 22 22 21 19 19 19 19 18 17 16 15 15 15 14 15 15 16 17 17 17 18 18 19 19 19 19 20 20 21 22 23 24 25 26
30 28 27 26 25 25 24 24 24 23 22 20 20 21 21 20 19 18 18 17 17 17 17 17 18 18 19 19 19 20 20 20 20 21 21 21 22 22 23 24 25 26
31 30 28 27 27 26 26 26 26 25 23 22 22 22 22 22 21 21 20 19 19 19 19 19 20 20 21 21 22 22 22 22 22 22 22 22 22 22 22 24 25 27
32 31 29 28 28 28 28 29 28 26 25 24 24 24 24 24 23 22 22 21 22 22 22 22 22 22 23 24 24 24 23 23 23 23 23 22 22 23 23 24 26 27
33 32 31 30 30 30 31 31 29 28 27 26 26 26 26 26 25 24 23 23 24 24 25 25 25 25 25 25 25 25 25 24 24 23 22 22 22 23 24 25 26 27
36 35 34 33 33 32 33 32 31 30 29 29 28 28 27 27 27 26 25 25 26 26 27 27 27 27 27 27 26 25 24 23 22 22 22 22 23 23 25 26 27 28
38 38 37 36 35 34 34 34 33 32 31 31 30 29 29 29 28 28 27 28 28 28 28 29 29 29 28 27 26 24 22 20 20 20 21 22 23 24 25 26 27 29
41 40 40 38 37 36 36 36 35 35 34 33 32 32 31 30 30 30 30 30 30 30 30 30 29 28 28 27 25 22 20 18 18 19 20 22 24 25 26 27 28 29
42 42 40 39 38 38 38 38 38 37 36 35 34 34 33 32 32 32 32 32 31 31 30 29 28 27 26 25 23 21 19 18 18 19 21 23 24 25 27 28 29 30
43 42 40 40 40 40 41 41 40 39 38 37 36 35 34 34 33 34 33 32 32 31 30 28 27 25 24 23 22 22 21 20 20 21 22 24 25 26 28 29 30 32
43 42 41 41 42 43 44 43 42 40 39 38 38 37 36 36 36 35 34 33 32 30 28 26 24 23 23 23 23 23 23 23 23 23 24 25 26 27 29 30 32 34
44 43 43 43 44 45 45 44 43 42 41 41 39 38 38 38 37 36 35 33 31 29 27 24 22 22 23 24 25 25 25 25 25 25 25 26 27 29 30 31 33 36
46 46 45 45 45 46 45 45 44 44 43 42 41 40 39 39 38 36 34 32 30 28 25 23 23 23 24 25 26 27 27 27 26 26 27 27 29 30 31 33 35 37
47 47 47 47 47 47 46 45 44 43 43 42 41 40 39 38 37 35 33 32 30 27 24 24 24 24 25 26 28 28 29 28 28 28 29 29 30 31 33 35 37 39
46 46 47 47 47 47 47 46 45 44 43 41 40 38 37 37 36 34 32 31 29 27 26 26 26 26 26 28 29 30 30 29 29 30 31 31 32 33 35 38 39 39
42 43 44 45 46 47 47 47 46 45 43 41 39 38 37 36 34 33 32 31 30 29 29 28 27 27 28 30 31 32 31 30 31 32 32 33 34 35 38 39 40 37
39 41 42 43 44 45 46 47 47 46 45 43 41 39 38 36 35 33 33 32 32 32 32 30 29 30 30 32 33 33 33 32 33 33 34 34 35 37 39 40 39 35
37 38 39 40 42 43 44 46 46 46 45 44 42 41 39 38 36 35 34 34 33 35 34 33 32 32 33 34 34 35 35 34 35 35 35 35 37 39 41 40 37 32
35 35 36 37 39 41 42 44 44 45 45 44 44 43 41 40 38 37 36 35 36 37 37 35 34 35 35 36 36 36 37 36 36 37 36 37 38 40 41 39 34 30
35 33 34 35 37 38 40 41 43 43 44 45 45 44 43 41 40 39 39 39 38 39 38 37 37 37 38 37 37 37 38 38 38 39 38 38 40 41 40 36 32 28
35 33 32 33 35 37 39 40 41 42 43 45 46 46 45 43 42 41 42 42 41 41 40 40 39 39 39 38 38 38 39 39 40 40 40 40 42 41 39 35 31 28
36 34 34 33 34 36 37 39 40 41 42 44 45 46 46 45 44 44 44 44 44 43 42 42 41 40 40 39 38 39 40 40 41 41 41 42 42 40 37 33 30 28

ECMWFNIL_250_spd_066.txt.gz
Wind_Speed
24 22 20 19 18 17 16 15 14 13 12 11 10 8 8 7 7 7 8 8 8 7 7 8 9 10 11 13 14 15 16 16 17 17 18 18 19 20 21 21 21 22
25 23 22 21 20 19 17 16 16 14 13 13 11 10 9 9 8 8 8 9 9 9 9 10 11 11 12 14 15 16 16 17 18 18 19 19 19 20 20 20 21 22
26 25 23 22 21 20 19 18 18 16 15 14 13 11 11 10 9 9 9 9 9 10 10 11 11 12 14 15 16 17 18 18 19 19 20 20 20 19 19 19 20 21
27 26 24 24 23 22 22 21 20 18 17 16 15 14 13 13 11 10 9 9 9 10 11 11 12 13 15 16 17 18 19 20 20 20 21 21 20 19 18 18 20 21
27 26 25 25 25 25 25 24 22 20 19 19 17 16 16 15 13 12 11 10 10 10 11 12 13 14 16 17 19 20 21 21 22 22 22 21 20 18 18 18 19 21
28 27 26 27 27 27 26 25 23 22 22 21 19 18 18 17 15 14 13 12 11 11 12 13 14 15 17 18 20 21 22 22 23 22 22 21 19 17 17 18 19 21
30 28 27 27 28 28 27 26 26 25 24 22 20 20 19 19 18 16 15 13 13 13 14 14 15 16 18 19 20 22 23 23 23 23 21 19 18 16 17 18 19 21
30 29 28 28 28 28 27 28 28 26 25 23 22 22 21 21 19 18 16 15 14 14 15 16 17 18 19 20 22 23 24 23 23 22 20 18 17 16 17 18 20 22
30 29 29 29 29 28 28 29 29 28 26 24 24 24 23 22 21 19 18 17 16 16 16 17 17 19 20 22 23 24 24 23 21 19 18 17 16 16 17 19 21 23
32 32 32 31 30 29 30 30 30 29 28 26 26 25 25 24 23 21 19 18 18 17 17 18 18 20 22 23 24 24 23 21 19 18 16 16 16 16 18 19 21 23
35 35 35 34 32 31 31 32 31 31 29 28 28 27 26 26 24 22 21 21 20 19 19 19 19 21 22 23 23 22 20 19 18 17 16 16 16 17 18 20 21 23
38 38 38 36 34 33 33 33 33 32 30 30 30 29 28 27 26 24 24 23 22 21 20 20 20 21 23 23 21 18 17 17 17 17 17 17 17 18 19 21 22 23
40 40 39 37 35 34 34 34 34 33 32 32 32 31 31 29 28 27 26 26 24 22 22 22 22 22 23 22 18 15 14 16 17 19 19 19 19 20 20 21 22 24
42 41 40 39 36 35 35 36 36 35 34 33 33 33 33 31 30 30 29 27 26 24 24 24 24 24 24 21 16 13 13 15 17 19 20 21 21 21 21 22 23 24
41 41 41 40 38 38 38 38 38 37 35 35 35 35 34 33 33 32 31 29 28 27 27 26 25 24 23 20 15 13 14 15 17 20 21 21 22 22 22 23 25 25
40 41 41 41 41 41 41 41 40 39 37 37 37 36 35 35 36 35 34 32 30 29 29 27 26 25 23 20 17 15 15 16 18 20 22 22 22 22 23 24 26 27
39 41 42 43 43 43 43 42 42 41 40 40 39 38 38 38 38 38 36 34 32 32 30 28 26 25 23 21 19 17 17 18 19 21 22 23 24 24 24 25 27 27
38 40 42 44 44 44 44 44 43 43 43 42 42 41 40 40 40 40 38 35 34 33 32 29 27 26 25 23 21 20 20 20 21 22 23 24 25 25 25 26 27 28
38 39 41 43 44 45 45 45 45 46 45 45 44 43 42 42 42 41 39 37 35 34 32 30 28 27 26 25 24 23 22 22 23 24 25 26 27 27 27 28 28 28
39 39 40 41 43 44 45 46 47 47 47 46 46 45 44 44 43 41 39 37 36 34 32 30 29 28 27 27 26 25 24 25 26 26 27 28 28 29 29 29 29 29
40 40 39 39 40 41 43 45 46 47 47 47 47 46 46 46 44 43 41 39 36 34 32 31 29 28 28 29 28 28 28 28 28 28 29 30 30 30 31 30 30 30
41 40 40 39 39 39 41 42 44 45 46 46 46 47 47 47 46 45 43 41 38 35 33 32 30 29 30 30 30 30 30 31 31 31 32 32 31 31 32 32 31 31
43 41 41 40 39 39 40 40 41 42 42 43 44 45 46 47 47 46 45 43 41 38 35 33 32 31 32 32 31 32 33 33 33 33 34 33 33 33 33 32 32 32
44 43 42 41 40 39 38 38 39 40 40 40 41 42 43 44 45 45 45 45 44 41 38 36 34 33 33 33 33 34 35 35 35 36 36 35 34 34 34 33 33 33
46 44 43 42 41 40 38 37 37 38 39 39 40 40 41 41 42 43 44 44 44 43 41 39 37 35 35 36 35 36 37 37 38 38 37 36 35 35 35 35 34 34
47 45 44 43 43 41 39 37 37 37 37 38 38 39 39 40 40 41 42 42 43 43 43 42 40 38 38 38 37 38 40 40 40 40 38 36 36 36 36 36 35 35

ECMWFNIL_250_spd_069.txt.gz
Wind_Speed
22 21 20 20 19 18 16 15 15 14 13 11 9 9 8 8 8 8 7 7 7 6 5 5 5 7 8 10 12 14 16 17 18 19 20 20 20 20 19 19 20 21
22 22 21 21 21 19 18 17 16 16 15 13 12 11 10 10 9 9 8 8 8 8 7 6 6 7 8 9 12 14 16 17 19 20 20 20 20 19 19 19 20 20
24 23 22 22 21 20 20 19 18 18 17 16 14 13 12 11 10 10 9 9 9 8 8 7 7 7 8 9 11 13 16 17 19 20 20 20 20 19 18 18 19 19
25 25 23 22 21 22 22 22 21 20 19 18 17 15 14 13 12 11 10 9 9 9 9 8 8 8 8 9 11 13 15 17 19 20 20 20 19 18 18 17 17 18
26 25 24 23 23 24 24 23 23 22 21 21 19 17 16 15 14 12 11 11 10 10 10 9 9 9 10 10 12 13 15 17 19 19 20 19 18 17 17 16 16 17
27 26 25 24 25 25 25 24 24 23 23 22 20 19 18 17 15 14 13 12 11 11 11 11 11 11 11 12 12 14 16 17 19 19 18 17 16 16 15 15 16 17
29 28 26 25 25 26 25 25 25 24 24 24 22 20 19 18 17 16 15 14 13 12 12 11 12 12 12 13 13 14 16 17 18 18 17 16 15 15 14 14 15 17
29 28 27 26 26 26 25 25 25 25 25 24 22 21 21 20 19 18 17 16 15 14 13 13 12 13 13 13 14 15 16 17 17 16 15 14 14 14 14 14 15 17
29 29 29 28 27 26 26 25 25 25 25 24 23 22 22 22 21 20 19 18 17 16 15 14 14 13 14 14 14 15 16 16 15 14 13 14 14 14 14 15 16 17
30 31 30 29 28 26 26 26 25 26 26 24 23 23 23 22 22 21 21 20 19 18 17 16 15 15 14 15 15 15 15 15 13 12 12 13 14 14 15 15 16 17
31 33 33 31 29 27 27 26 26 27 26 25 24 23 23 24 24 23 22 22 21 21 19 18 17 16 16 15 15 15 15 14 13 12 12 13 14 15 16 16 16 17
32 34 35 34 31 30 29 28 28 28 27 26 25 24 25 25 25 24 24 24 24 23 21 20 20 18 18 17 16 16 15 13 12 12 12 14 14 15 16 16 16 17
34 36 37 35 33 32 31 31 30 30 28 27 26 26 26 27 26 25 25 26 26 25 23 22 22 21 20 18 17 17 16 14 13 12 13 14 15 16 16 17 16 17
36 37 37 36 34 33 33 33 33 32 30 28 27 28 28 28 27 27 27 28 28 26 25 25 24 23 22 20 20 19 18 16 15 14 14 15 15 16 16 17 17 18
38 37 37 36 35 34 35 35 36 34 32 30 29 29 29 29 29 29 29 29 29 28 27 27 26 25 24 23 22 22 20 18 17 17 16 16 16 16 16 16 17 18
38 38 36 36 35 35 36 37 37 37 35 33 32 32 31 31 30 30 30 30 30 30 29 29 28 27 26 25 25 24 23 21 20 19 18 18 17 17 17 17 17 18
39 38 37 35 35 35 36 37 39 39 38 37 36 35 34 33 33 33 32 32 31 31 31 30 29 28 28 28 27 27 25 23 22 22 20 19 18 18 18 18 18 19
39 39 38 36 35 35 36 37 39 40 40 40 39 38 37 36 36 35 34 33 33 33 33 32 31 31 31 31 30 29 28 26 25 24 23 21 20 20 20 20 19 20
40 40 39 38 36 35 35 37 39 41 42 42 41 40 39 39 39 38 37 36 36 36 35 34 33 33 33 33 32 32 30 28 27 26 25 23 22 21 21 21 21 21
40 40 40 39 38 36 35 37 39 41 42 42 42 42 42 42 42 40 40 39 39 38 38 37 36 35 35 35 34 33 32 31 29 28 26 25 24 24 23 23 23 22
41 41 41 40 39 38 37 38 39 40 40 41 42 43 43 43 43 42 42 41 41 40 40 39 38 37 37 36 35 34 33 33 31 29 28 27 27 26 25 25 24 24
41 42 42 41 41 40 40 39 39 38 38 39 40 42 43 43 44 44 43 42 42 42 42 42 41 39 38 37 36 35 35 35 33 31 30 29 29 28 27 26 26 26
42 43 43 43 42 42 41 41 39 38 37 37 38 39 41 42 43 43 43 43 43 43 44 43 42 40 40 39 37 36 37 36 35 33 32 31 31 30 29 28 28 28
42 43 44 44 44 43 43 42 40 39 37 36 37 37 39 40 41 42 43 44 44 44 44 44 43 41 41 40 39 38 38 38 37 35 34 33 32 31 31 31 30 30
43 44 44 44 45 44 43 42 41 40 38 37 37 37 38 39 40 41 42 43 43 43 44 43 42 41 41 41 40 41 41 40 39 38 37 35 34 33 33 33 32 32
43 44 45 45 45 45 44 43 42 41 40 39 38 38 38 38 39 40 40 41 41 42 42 42 41 40 40 40 41 42 43 43 42 41 40 37 36 35 35 35 34 34

ECMWFNIL_250_spd_072.txt.gz
Wind_Speed
19 19 18 17 16 15 13 13 12 11 10 9 8 8 8 8 7 7 7 6 6 6 6 7 7 8 9 9 10 12 13 14 15 16 17 17 17 17 17 16 16 17
21 20 20 19 18 17 15 15 14 13 13 11 10 10 10 9 9 8 8 8 8 7 7 7 8 8 9 10 11 12 13 15 16 17 17 17 17 17 16 15 16 16
22 22 22 21 20 18 17 18 17 16 15 14 13 12 12 10 10 10 9 9 9 8 7 7 8 8 9 10 11 12 14 15 16 17 17 17 17 16 15 14 15 15
23 23 23 23 21 20 21 20 19 18 17 16 16 15 13 13 12 11 11 10 10 9 8 7 8 8 9 10 11 12 14 15 16 17 17 17 16 15 14 13 14 14
24 24 24 24 23 23 23 22 21 20 19 18 18 17 15 15 14 13 13 12 11 10 9 9 9 9 9 10 11 12 14 15 16 17 17 16 15 14 13 12 13 14
25 25 25 25 25 25 25 24 23 22 21 21 20 18 17 17 16 15 15 14 13 12 11 10 10 10 10 10 11 12 13 15 16 16 16 16 15 14 13 12 12 13
27 27 26 26 26 26 26 25 24 24 23 22 21 20 19 18 17 17 16 16 15 14 13 12 12 11 11 11 11 12 13 14 15 15 15 15 14 14 13 13 13 13
26 28 28 27 27 27 26 26 26 25 25 24 22 21 20 19 19 18 18 17 17 16 15 14 13 13 13 12 12 12 13 14 14 15 15 15 15 14 14 14 14 14
25 27 28 28 28 27 27 27 27 26 26 25 23 22 21 20 20 19 19 19 19 18 17 16 15 15 14 14 14 13 14 14 14 15 15 15 15 14 14 14 14 14
23 26 28 29 29 28 28 28 27 27 27 26 24 23 22 21 20 20 20 20 20 20 19 18 17 17 16 16 15 15 15 15 15 15 15 15 15 15 14 14 14 14
24 26 28 30 30 29 29 28 28 28 28 27 26 24 23 22 22 21 20 21 21 22 21 20 19 19 18 18 17 17 17 17 16 16 16 16 16 15 15 14 14 14
26 26 29 31 31 30 29 29 29 29 29 28 27 26 24 23 23 22 22 22 23 23 23 22 21 21 20 20 20 19 19 19 18 17 16 17 17 16 16 15 14 14
27 28 30 31 31 30 29 29 30 30 30 29 28 27 26 25 24 23 23 24 25 25 24 24 23 22 22 22 22 21 21 21 20 19 18 18 18 18 18 17 15 15
28 29 30 31 32 31 30 30 31 32 32 31 31 30 28 27 26 25 25 26 26 26 25 24 24 24 24 24 24 24 23 23 23 21 20 20 20 20 20 19 18 16
28 30 30 31 31 31 31 32 32 33 33 33 33 32 31 29 28 28 27 27 27 27 26 25 25 25 25 26 26 26 26 26 25 24 23 22 22 22 22 21 21 18
28 30 31 32 32 33 33 33 34 33 34 35 35 34 33 32 31 30 29 28 28 28 27 26 25 25 27 28 28 28 28 28 27 26 26 25 25 24 24 24 23 21
27 29 31 33 34 34 35 35 35 35 35 35 36 35 35 34 33 32 31 30 30 30 29 28 27 27 28 29 29 29 29 29 29 29 29 28 28 27 26 26 26 24
28 29 31 33 35 35 36 36 36 35 36 36 37 37 36 35 35 35 34 33 32 32 32 31 29 28 29 30 30 30 30 30 31 31 31 31 30 30 29 29 28 27
28 29 31 33 35 36 36 36 36 36 37 37 38 37 37 37 37 37 36 36 35 35 34 32 31 30 31 32 32 31 31 32 32 33 33 33 33 32 32 31 30 29
29 30 31 33 35 36 37 37 37 38 38 38 38 38 38 38 38 37 37 37 37 37 36 35 34 33 34 34 34 34 34 34 35 35 36 35 35 35 34 33 33 32
30 31 32 33 35 36 38 39 40 39 39 39 38 38 38 38 37 37 37 37 38 38 38 38 37 36 36 36 36 36 36 37 37 37 37 37 37 36 35 35 35 34
32 32 33 34 35 37 39 41 41 41 40 39 39 39 38 38 37 37 38 38 39 39 40 40 39 38 38 38 38 38 39 40 39 39 39 39 38 38 37 37 36 36
34 34 35 36 37 38 40 42 43 43 42 41 40 39 39 38 37 37 38 38 39 40 40 40 40 40 40 40 40 41 42 42 41 40 40 40 40 39 39 39 38 38
35 35 36 37 38 40 41 43 44 44 44 43 41 40 39 38 37 37 38 38 39 40 40 40 40 40 40 41 41 42 43 43 42 41 41 42 41 41 41 41 41 41
36 36 37 38 40 41 42 43 44 45 45 44 43 41 40 38 37 37 38 38 39 39 39 39 39 39 39 40 41 42 42 42 42 42 43 43 42 42 43 43 44 43
36 37 38 39 41 42 42 43 44 44 45 45 45 43 42 40 39 39 38 38 38 39 39 39 39 39 39 40 40 41 42 42 43 43 44 44 44 44 44 45 46 46

ECMWFNIL_250_spd_075.txt.gz
Wind_Speed
16 15 15 14 14 12 11 10 10 9 8 8 7 7 7 7 7 6 6 6 7 7 7 7 8 8 9 10 11 12 13 15 16 18 19 20 19 18 17 17 16 17
18 17 17 16 15 14 13 12 12 11 10 10 9 8 9 8 8 8 7 7 8 8 8 8 8 8 9 10 11 12 13 14 16 17 19 20 19 18 17 16 16 16
20 19 19 18 17 16 15 15 15 14 13 12 11 11 11 10 10 9 9 9 9 9 9 8 8 8 9 10 11 12 13 14 15 17 18 19 19 18 17 16 15 16
21 21 21 20 19 18 18 18 18 17 16 14 14 14 13 12 12 11 11 10 10 10 10 9 9 9 9 10 11 12 13 14 15 17 18 19 19 19 18 17 16 15
22 22 22 21 21 21 21 21 20 19 18 17 17 16 15 14 14 13 13 12 12 12 12 11 10 9 10 11 12 13 13 14 15 16 18 19 19 19 18 17 16 15
23 23 23 23 23 23 23 22 22 21 20 19 19 19 17 16 16 15 14 14 14 13 13 13 12 11 11 12 13 13 13 14 16 16 17 18 19 19 19 18 17 15
25 24 24 24 24 24 24 23 23 23 22 21 21 20 19 18 17 16 16 15 15 15 15 14 14 13 12 13 14 14 14 14 15 16 17 18 18 19 19 18 17 16
24 25 25 25 25 25 25 25 25 24 23 23 23 22 21 20 19 18 17 17 16 16 16 16 15 15 14 14 15 15 15 15 15 16 17 17 17 18 18 18 18 17
23 24 25 26 27 26 26 26 26 25 25 24 24 23 23 22 21 20 19 19 18 18 17 17 17 16 16 16 16 16 16 16 15 16 16 17 16 17 17 17 17 17
22 24 25 26 27 27 27 27 27 27 26 25 25 24 24 23 22 22 21 20 20 19 19 19 18 18 18 17 17 17 17 17 16 16 16 17 17 16 16 17 17 17
22 23 25 26 27 27 28 28 28 28 27 26 26 25 24 24 23 23 22 21 22 22 21 21 20 19 19 19 19 18 19 19 18 17 17 17 17 17 16 17 17 17
21 23 25 27 28 27 27 28 29 29 29 28 27 26 25 24 24 24 23 22 23 23 23 23 22 21 21 21 20 20 20 20 20 19 18 18 18 18 17 17 17 18
21 22 24 26 27 27 26 27 29 29 29 29 28 28 27 26 26 25 24 23 24 25 25 25 23 22 22 22 22 22 22 22 21 21 20 20 20 20 19 18 18 18
22 21 22 23 25 26 26 27 29 30 30 30 30 30 29 28 28 27 25 25 25 27 27 26 25 23 23 23 24 24 24 24 23 23 22 22 22 21 21 20 19 19
22 22 21 22 23 25 27 28 29 30 31 31 31 32 31 30 30 29 28 27 27 28 29 28 26 25 24 24 25 26 26 25 25 25 24 24 23 23 23 22 21 21
22 22 21 22 23 25 26 28 29 30 31 31 33 33 33 32 32 31 30 29 29 30 30 30 28 26 25 26 27 27 27 27 26 26 26 26 25 25 25 24 23 23
23 23 22 23 23 25 26 28 30 31 31 32 33 34 34 34 34 33 33 32 32 32 32 31 30 28 27 27 28 29 29 28 28 28 28 27 26 26 26 26 26 25
24 24 24 24 24 25 27 28 30 31 32 33 34 34 34 34 35 35 35 34 34 34 34 33 32 30 29 29 30 31 31 31 30 30 29 29 28 28 28 28 28 27
26 26 26 26 26 26 26 28 30 32 33 35 35 34 34 35 35 36 36 36 36 36 35 35 34 33 33 32 32 33 33 33 33 32 31 31 30 30 30 30 30 30
28 28 28 27 27 27 27 28 30 32 33 35 35 36 36 36 37 36 36 36 36 37 37 36 36 36 36 35 35 35 36 36 36 35 34 34 33 33 33 32 32 31
31 31 30 29 29 29 28 29 31 32 33 35 36 37 38 38 38 37 37 37 37 38 38 37 37 38 38 37 38 38 39 39 40 39 38 37 36 36 35 35 34 33
33 32 31 31 30 30 30 30 32 33 34 35 36 38 39 39 39 38 38 38 37 37 38 37 38 39 39 39 40 41 42 43 43 42 41 40 39 38 38 37 36 35
36 34 33 33 32 32 31 32 33 34 35 36 37 38 39 40 40 40 39 38 37 37 38 38 38 39 40 40 41 42 43 44 45 44 43 42 41 40 39 38 37 36
37 36 35 34 34 34 33 33 33 34 36 37 37 38 40 41 41 41 41 40 39 38 38 39 39 40 41 41 42 43 44 45 45 45 45 43 42 40 39 39 38 38
39 37 37 36 36 35 34 34 34 35 36 37 38 39 41 42 42 43 43 42 41 40 40 40 40 41 42 43 43 43 44 45 46 46 45 43 41 39 39 39 39 39
41 39 39 38 38 37 36 35 35 35 36 37 38 39 41 42 43 43 44 44 44 42 42 42 42 42 43 44 45 44 45 45 46 46 45 43 41 39 39 39 40 41

ECMWFNIL_250_spd_078.txt.gz
Wind_Speed
17 16 14 13 12 11 9 8 8 7 7 6 5 4 4 5 5 6 7 8 8 9 9 9 10 10 10 10 11 13 15 16 17 19 20 22 22 22 21 19 19 19
19 18 16 15 14 13 11 11 10 10 9 9 7 6 6 6 6 6 7 8 8 9 9 9 9 9 9 9 10 12 14 15 16 18 19 21 22 22 21 20 19 18
21 20 18 17 16 15 14 14 14 13 12 11 10 9 9 9 8 8 8 8 9 9 9 9 9 9 9 9 9 11 12 14 15 17 18 19 21 22 21 21 19 18
23 22 21 19 18 17 17 17 16 15 14 13 13 13 12 11 10 10 10 9 9 9 9 10 10 10 10 9 9 10 11 13 14 15 17 18 19 20 21 21 20 18
25 24 22 21 20 20 19 19 18 17 16 16 16 16 15 14 13 12 12 11 11 10 10 10 10 10 10 10 10 10 11 12 13 14 15 17 18 19 20 20 19 19
26 25 24 23 22 22 21 20 20 20 19 18 19 19 17 17 16 14 14 13 12 12 11 11 11 11 11 11 11 10 10 11 12 13 14 15 16 17 18 19 19 18
25 25 25 24 24 23 23 22 22 22 21 21 21 21 20 19 18 16 16 15 14 13 13 13 12 12 11 12 12 11 11 11 12 13 14 14 15 16 16 17 17 17
22 22 22 23 24 24 24 23 23 23 23 23 22 22 21 20 20 19 18 16 15 15 15 14 14 14 13 13 13 13 12 12 12 12 14 14 15 15 15 16 16 16
22 22 22 22 23 23 24 24 24 24 24 23 23 23 23 22 21 20 19 18 17 16 16 16 16 15 14 14 14 14 14 14 13 13 14 14 15 15 15 15 15 16
22 23 23 23 23 23 23 23 24 24 24 23 23 23 23 23 22 22 21 20 19 18 18 18 18 16 15 15 16 16 15 16 15 14 14 15 16 16 16 16 16 16
23 23 24 24 24 23 23 23 24 24 24 23 23 23 24 23 23 23 22 21 20 20 20 20 19 18 17 17 17 17 17 17 17 16 16 16 17 17 17 16 17 17
23 24 24 24 23 22 22 23 24 24 24 24 24 24 24 24 24 23 23 22 22 21 21 22 21 20 19 18 18 18 18 19 19 18 17 18 18 19 19 18 18 18
22 23 24 24 23 22 21 22 24 24 25 25 25 26 26 25 25 25 24 23 23 23 23 23 23 22 21 20 20 20 20 20 20 20 19 19 20 20 20 20 19 19
23 22 23 23 24 23 23 23 24 25 25 25 26 26 27 27 27 26 25 25 25 25 25 25 25 24 23 21 21 21 22 22 22 21 21 21 21 21 22 22 21 21
24 23 23 23 23 24 24 24 24 25 26 26 26 27 27 28 28 28 28 27 27 27 27 27 27 26 25 23 23 23 23 23 23 23 23 23 23 23 23 23 23 23
26 25 25 24 23 23 24 24 25 26 27 27 27 27 28 28 29 30 30 29 29 29 29 29 29 28 27 25 25 25 25 25 24 24 24 24 24 24 25 25 25 25
28 27 27 25 24 24 24 25 25 26 27 27 27 28 29 29 30 31 31 31 31 31 31 31 31 30 28 27 27 27 27 27 26 26 26 26 26 26 26 27 27 27
30 29 28 28 27 26 26 26 26 26 26 27 27 28 29 30 30 31 32 33 33 33 34 34 33 32 31 29 29 30 30 29 29 28 28 28 28 28 28 29 29 29
31 30 30 31 30 29 28 27 27 27 27 27 27 27 28 30 31 31 32 33 34 35 36 36 36 35 33 32 31 32 32 32 32 31 31 31 30 30 30 31 31 31
34 32 33 33 32 31 29 28 28 28 28 28 28 27 28 30 31 31 32 34 35 36 36 37 37 37 36 34 34 34 35 35 34 34 34 33 33 32 33 33 33 33
36 35 35 35 34 33 32 31 30 30 30 29 29 28 28 30 31 32 32 34 35 36 37 37 38 38 37 35 35 36 37 38 38 37 36 35 35 35 35 35 35 36
38 38 37 37 36 35 34 33 32 32 31 30 30 29 29 29 31 32 32 33 34 36 37 38 39 39 39 37 36 37 39 40 41 40 39 37 37 36 37 37 37 38
40 40 40 39 38 37 36 35 34 33 33 31 30 30 30 30 30 31 32 33 34 36 38 39 39 40 41 39 37 38 40 41 42 41 40 39 38 38 38 38 39 39
42 42 42 42 40 39 38 37 35 35 34 33 31 31 31 31 30 31 32 33 34 35 37 39 39 40 42 41 39 39 41 43 43 43 42 40 39 39 39 39 40 40
44 44 44 44 42 41 40 39 37 36 35 34 33 32 32 32 32 31 32 33 34 35 37 39 40 41 42 42 41 41 42 44 44 44 43 42 40 39 40 40 40 40
46 46 46 46 44 42 41 41 39 38 37 36 34 33 33 34 33 33 33 34 34 35 36 38 39 41 42 43 42 42 43 45 46 46 45 43 41 41 40 40 40 39

ECMWFNIL_250_spd_081.txt.gz
Wind_Speed
17 16 15 13 12 11 9 8 7 6 6 5 4 3 4 4 5 6 7 8 9 9 10 10 10 10 10 10 11 12 14 15 17 18 20 21 22 23 23 24 24 23
18 17 16 14 13 12 11 10 9 8 8 7 6 6 6 6 6 6 7 8 9 9 10 10 10 9 9 9 10 10 11 13 15 16 18 19 21 21 22 23 23 23
20 19 17 16 15 14 13 13 11 10 9 9 8 8 8 8 8 8 8 9 9 10 10 10 10 10 9 9 9 10 10 11 12 14 15 17 18 19 20 21 22 23
22 21 19 18 17 16 15 14 14 13 12 11 11 11 10 10 10 9 10 10 11 11 11 11 11 11 10 10 9 9 9 10 10 11 13 15 16 17 18 19 20 20
25 24 23 21 20 19 18 17 16 15 14 13 14 13 13 12 12 11 11 12 12 12 12 12 12 12 11 11 10 10 10 10 10 11 11 12 14 15 16 17 18 18
27 26 25 24 23 22 21 19 19 18 17 16 16 16 15 14 14 14 13 13 14 14 13 13 13 12 12 12 12 11 10 10 10 11 11 11 12 13 14 15 16 17
27 26 26 25 24 23 22 21 21 20 19 18 18 18 17 16 16 16 16 15 15 15 15 15 14 14 13 13 13 12 12 11 11 11 11 11 11 12 12 13 14 15
27 26 26 26 25 24 24 23 22 22 21 20 20 20 19 19 18 18 18 17 17 17 17 17 16 16 15 14 14 14 13 13 12 12 12 12 12 12 12 12 13 14
26 26 27 26 25 24 24 23 23 23 22 21 21 21 21 20 20 19 19 19 18 18 19 18 18 18 17 16 16 16 15 15 14 14 13 13 13 13 12 12 12 13
24 24 25 25 24 23 22 22 22 22 23 22 21 21 22 21 21 20 20 19 19 19 20 20 20 19 18 18 17 18 17 17 16 16 15 15 15 15 14 13 13 13
21 21 22 22 22 21 20 20 21 22 22 22 22 22 22 23 22 22 21 20 20 20 21 22 21 20 20 19 19 19 19 19 18 18 17 17 17 17 16 16 15 14
20 19 19 19 19 18 18 19 20 21 22 22 21 22 22 23 23 23 22 22 22 22 22 23 22 21 20 20 20 20 20 21 20 19 19 19 19 19 19 18 17 16
20 19 18 18 18 17 17 18 19 20 21 21 21 21 22 23 24 24 23 24 24 24 24 24 24 23 22 21 22 22 22 22 22 21 20 20 20 20 21 21 20 19
21 20 20 19 18 18 18 18 18 19 19 20 20 20 21 22 23 24 24 25 26 26 26 27 26 25 24 23 23 24 25 24 24 23 22 22 22 22 22 22 22 22
23 22 21 21 20 19 19 19 19 18 18 19 20 20 20 21 22 24 25 26 27 28 28 28 29 28 26 25 25 25 26 26 26 25 24 24 23 23 24 24 24 24
24 23 23 22 21 21 21 21 20 19 19 19 20 20 20 20 21 23 25 26 27 28 29 30 30 30 29 28 28 28 28 28 28 27 26 26 25 25 26 26 26 26
26 25 24 23 23 22 22 22 22 21 21 20 19 20 20 20 20 21 23 25 26 27 29 30 30 31 31 31 31 31 30 30 30 30 29 28 27 27 27 28 29 29
28 27 26 25 24 24 24 23 23 23 23 22 20 20 20 21 22 21 22 23 24 26 28 29 30 30 31 32 32 33 33 33 33 32 32 31 30 30 30 30 30 30
30 29 28 27 26 26 25 25 24 25 25 24 22 21 21 23 24 23 22 22 24 25 27 28 29 29 30 31 32 34 34 34 34 34 35 34 33 33 33 33 32 32
32 31 30 29 28 28 27 27 26 26 26 26 24 23 22 23 24 24 24 23 24 25 26 28 28 28 29 30 32 33 34 35 36 36 36 36 36 36 36 36 35 35
34 33 32 31 30 30 29 28 28 27 26 27 26 25 24 24 24 25 25 24 24 24 26 27 28 28 28 29 31 33 34 35 36 37 37 37 37 38 38 38 38 37
36 35 34 33 32 31 30 30 29 29 28 28 28 27 26 25 25 25 25 25 25 25 25 27 28 28 28 28 30 32 34 35 37 37 38 38 38 39 40 39 39 38
38 37 36 35 33 32 31 31 31 31 30 29 29 29 28 27 26 27 27 26 26 26 26 26 27 28 28 28 29 31 33 35 36 37 38 38 39 40 40 40 39 38
38 38 37 36 35 33 32 32 32 32 32 31 31 30 30 29 28 28 28 28 27 27 27 27 27 28 29 29 29 31 32 34 35 35 37 37 37 38 39 39 39 38
38 38 38 38 37 35 33 32 32 33 33 33 32 32 32 31 30 29 30 29 29 29 29 29 29 29 30 30 30 30 32 34 34 35 36 36 36 36 37 38 38 38
38 38 39 39 38 37 35 34 34 35 35 34 33 33 33 33 32 31 31 31 31 30 30 31 31 31 31 31 30 31 32 33 34 35 36 36 35 35 36 37 38 39

ECMWFNIL_250_spd_084.txt.gz
Wind_Speed
18 17 15 14 12 11 10 10 9 8 6 5 4 3 2 1 1 2 4 5 6 7 8 9 9 10 10 10 10 11 12 13 14 16 18 19 20 21 22 22 23 24
19 17 16 14 13 13 12 11 10 9 8 7 6 5 4 4 3 3 4 5 6 7 8 9 9 10 10 11 11 10 11 12 12 14 15 17 18 19 20 20 21 22
20 18 16 15 15 14 14 13 12 11 10 9 9 8 7 6 6 6 6 6 7 7 8 9 9 10 10 11 11 11 11 11 11 12 13 14 15 17 18 19 19 19
21 20 18 17 17 16 16 14 13 13 12 12 11 10 10 9 9 8 8 8 8 9 9 10 10 11 11 11 11 11 11 11 11 11 11 12 13 14 15 16 17 18
22 22 21 20 19 18 17 16 15 15 15 15 14 13 13 12 12 11 11 11 11 11 11 11 12 12 12 12 12 12 11 11 11 11 11 11 12 13 13 14 15 16
24 24 23 22 21 20 19 18 18 17 17 17 17 16 15 15 14 14 14 14 14 14 14 13 13 13 13 13 13 13 13 12 12 12 12 12 12 12 13 13 13 14
24 24 25 24 23 21 21 21 20 19 18 19 19 19 18 17 17 17 17 17 17 16 16 15 15 15 15 15 15 15 14 14 13 13 13 13 13 13 14 14 14 14
25 25 26 27 25 23 22 22 22 21 20 20 21 21 21 20 19 19 19 19 19 19 18 17 17 16 16 16 16 16 16 15 15 14 13 13 13 14 14 15 15 15
28 27 28 28 27 25 24 23 23 23 22 21 21 22 22 22 21 20 20 20 20 20 20 20 19 18 17 18 18 18 18 17 16 15 15 14 14 14 14 15 16 16
29 28 28 28 27 25 24 24 24 24 23 21 21 21 21 21 21 20 20 20 21 22 22 22 21 20 19 19 20 20 20 19 18 17 16 16 15 15 15 15 15 16
27 27 27 26 25 25 24 24 24 23 22 21 20 19 20 20 20 19 19 20 21 22 23 23 23 22 22 21 21 22 22 22 21 19 18 17 16 16 16 16 16 17
25 24 24 23 23 23 23 22 22 22 21 20 19 18 19 19 19 18 18 19 20 21 22 23 23 24 23 23 23 24 25 24 23 22 21 20 18 18 18 17 17 18
24 23 22 22 22 22 22 21 21 21 21 20 19 18 18 18 18 18 18 18 19 20 21 22 23 23 24 24 25 25 26 26 26 25 24 23 21 20 19 19 19 19
25 24 23 22 22 22 22 21 21 21 20 19 19 18 17 17 17 17 18 18 18 19 20 21 22 22 23 24 25 26 27 27 27 27 26 25 24 23 22 22 21 21
25 24 24 23 23 22 22 22 21 20 20 19 18 17 16 16 16 16 17 18 18 18 19 20 21 21 22 23 24 26 26 27 28 28 28 28 27 26 25 25 24 23
24 24 23 23 23 22 22 21 20 19 18 18 17 16 15 15 15 16 16 17 18 19 19 20 20 21 22 23 24 25 26 27 27 28 29 29 29 28 28 27 27 26
23 23 22 22 22 21 21 20 19 18 17 17 16 15 15 15 15 15 15 16 18 19 19 19 20 20 22 23 24 25 25 26 27 28 29 29 30 30 29 29 29 29
23 23 22 22 21 21 20 20 19 18 17 16 16 15 15 15 15 15 15 16 16 17 18 18 19 19 20 21 22 23 24 25 26 27 28 29 30 30 30 30 30 30
24 24 23 23 22 21 21 20 19 19 18 17 17 16 16 16 16 16 16 16 16 17 18 18 18 18 19 20 21 22 23 24 25 26 27 28 29 30 30 30 31 31
27 26 26 25 24 23 22 21 20 19 19 18 18 18 18 17 17 17 17 18 18 18 18 19 19 19 19 19 20 21 22 22 23 25 26 27 27 28 29 30 31 32
31 30 28 27 26 25 23 22 21 20 20 19 19 20 20 19 19 18 18 18 19 19 19 20 20 20 20 20 20 21 22 22 22 23 25 25 26 26 27 29 30 31
34 33 31 30 29 27 25 23 22 22 21 21 20 21 21 21 21 20 19 19 19 20 20 21 20 20 20 20 21 21 22 23 23 23 23 24 24 25 25 26 28 29
36 35 33 32 30 28 26 24 24 23 22 22 22 22 22 23 23 22 21 21 20 21 21 21 21 22 21 21 21 22 23 23 23 23 23 23 23 24 24 25 26 28
37 35 34 33 31 30 27 25 25 24 24 23 23 23 23 24 24 24 24 23 22 22 22 22 23 23 23 22 22 22 23 24 24 24 24 24 23 23 24 25 26 28
39 36 35 34 33 30 28 26 25 25 25 25 25 24 24 25 25 26 26 25 24 23 23 24 24 25 24 24 23 23 24 24 24 25 25 25 24 23 24 25 26 28
41 39 37 36 34 31 28 27 26 26 26 27 27 26 26 26 27 27 28 27 26 25 25 25 26 26 26 25 24 24 25 25 25 26 26 25 24 24 24 25 25 26

ECMWFNIL_250_spd_087.txt.gz
Wind_Speed
15 14 15 15 13 12 10 9 8 7 6 5 4 4 4 5 5 6 7 8 9 10 11 12 12 12 12 12 12 13 14 15 16 16 17 18 19 20 21 21 21 21
18 17 17 17 15 13 12 10 9 8 8 7 6 6 6 7 7 7 8 8 9 10 11 11 12 12 12 12 12 12 12 13 14 14 15 15 16 17 18 19 19 20
22 20 19 18 16 15 13 12 11 10 9 9 8 8 8 9 9 9 9 10 10 10 11 12 12 12 12 12 12 11 11 11 12 13 13 13 14 14 15 16 17 17
24 22 21 20 18 16 14 13 12 11 11 11 10 10 10 11 11 11 11 11 11 11 12 12 12 12 12 12 11 11 11 11 11 12 13 13 13 13 13 14 14 15
25 24 23 22 20 17 15 14 13 14 13 12 12 12 12 12 13 13 13 13 13 13 13 13 13 13 12 12 11 11 11 11 11 11 12 12 12 12 12 12 12 13
27 27 25 24 21 19 17 16 15 15 15 14 14 14 14 14 14 15 15 15 15 14 14 14 14 13 13 13 12 12 11 11 11 11 11 12 12 12 11 11 11 12
28 27 26 24 22 20 19 18 17 16 16 16 15 15 15 16 16 16 17 17 16 16 15 15 14 14 14 14 14 13 13 12 12 12 12 12 12 12 12 11 11 11
27 27 26 25 23 22 21 20 18 17 17 17 17 17 17 17 17 17 18 17 17 16 16 15 15 15 15 15 15 15 14 14 13 13 12 12 12 13 13 13 12 11
28 28 28 27 25 23 22 21 19 19 19 19 19 19 18 18 17 17 17 17 17 16 15 15 14 15 15 15 15 15 15 15 15 14 14 13 13 13 13 14 13 13
31 30 30 30 28 25 23 22 22 21 20 20 20 19 19 18 17 17 16 16 16 16 15 15 14 14 14 14 14 15 15 15 15 15 15 15 14 14 14 14 14 14
33 32 32 31 30 27 25 24 23 22 21 20 19 19 19 18 17 16 16 16 16 16 16 15 14 14 14 14 14 14 14 15 15 15 15 15 15 15 15 15 15 15
33 32 32 31 30 29 27 26 25 23 21 20 18 18 18 18 17 16 15 16 16 16 16 15 15 14 14 14 14 14 14 15 15 15 15 15 15 15 15 15 16 16
32 32 30 30 30 30 29 27 25 23 21 19 17 17 18 17 17 16 16 16 16 16 15 15 14 14 14 14 14 14 15 15 15 15 15 15 16 16 16 16 16 16
31 30 29 29 30 30 29 28 25 23 21 19 18 18 18 17 17 17 16 16 15 15 14 13 13 13 13 13 14 14 14 15 15 15 16 16 16 17 17 17 17 17
29 29 28 28 29 29 29 28 25 23 21 20 20 19 18 17 17 16 16 15 14 13 13 12 12 12 12 12 13 13 14 14 14 15 15 16 16 17 17 18 18 18
30 30 29 29 29 30 29 28 26 24 23 22 20 18 17 17 16 16 14 13 12 12 12 11 11 11 12 12 12 12 13 13 13 14 15 15 16 17 18 18 18 19
31 31 31 31 31 31 30 28 27 25 23 22 20 18 16 16 16 15 14 12 12 12 11 11 11 11 12 12 12 12 12 12 13 13 14 15 15 16 17 18 18 19
31 31 31 31 31 30 29 28 26 25 23 21 19 17 15 15 16 15 14 13 13 12 11 11 11 12 13 13 13 13 13 12 13 13 13 14 14 15 16 17 18 19
31 30 30 30 30 29 28 26 25 23 21 19 17 16 16 16 16 15 14 14 14 13 13 12 12 13 14 14 14 14 14 13 13 13 14 14 15 15 15 16 17 18
31 31 31 30 29 28 27 26 24 22 20 19 17 17 17 17 16 15 15 16 15 15 15 14 14 13 14 15 15 15 15 15 14 14 14 14 15 16 16 16 17 18
32 32 32 31 31 30 29 27 25 23 21 20 19 19 19 18 17 17 17 16 16 16 16 16 15 15 16 16 17 17 17 16 15 15 15 15 15 16 17 17 18 18
33 33 34 33 33 33 31 29 26 25 23 22 21 21 20 19 19 18 18 18 17 17 17 17 16 17 18 18 18 19 19 18 18 17 16 16 16 16 17 18 18 19
35 36 37 36 35 35 33 30 28 26 25 24 23 22 21 20 20 19 19 19 19 18 18 18 17 18 19 19 20 20 21 20 19 19 18 18 17 17 17 18 19 20
37 38 40 40 38 36 34 31 29 27 26 25 24 23 22 21 21 21 21 20 20 20 19 19 19 19 20 20 21 22 23 22 21 20 20 19 18 18 19 19 20 20
40 41 43 44 42 39 36 32 30 28 26 25 24 24 23 22 22 22 22 22 22 22 22 22 21 21 21 21 22 23 25 24 23 22 22 21 20 19 20 20 21 21
44 43 44 45 44 41 37 34 31 29 27 27 26 24 24 24 24 24 24 24 23 23 24 24 24 23 23 23 23 24 26 26 26 24 23 22 21 21 21 21 21 22

ECMWFNIL_250_spd_090.txt.gz
Wind_Speed
16 14 12 10 9 10 9 7 5 4 3 3 4 5 6 7 8 9 10 12 13 14 14 15 15 15 15 16 16 16 15 15 15 15 16 16 17 17 18 19 19 20
19 17 15 12 11 11 11 10 8 6 4 3 3 4 5 6 7 8 10 11 12 13 13 14 14 14 15 15 15 15 15 15 14 14 14 14 15 15 15 16 17 17
22 20 18 15 14 14 13 12 10 8 6 4 4 4 5 6 7 8 9 10 11 12 13 13 13 14 14 14 14 14 15 15 14 14 14 14 13 13 13 14 14 15
25 23 20 19 18 17 16 14 12 10 8 6 6 5 6 6 7 8 9 10 11 12 13 13 13 13 14 14 14 14 14 14 14 14 14 14 13 13 13 13 13 13
27 25 23 22 21 19 18 16 14 13 11 8 7 7 7 7 8 8 9 11 12 12 13 13 13 13 14 14 14 14 14 14 15 15 14 14 14 13 13 12 12 12
29 28 26 25 24 21 19 18 16 15 12 10 9 8 8 8 8 9 10 11 11 12 12 12 13 13 13 13 13 14 14 14 14 15 14 14 14 13 13 13 12 12
30 29 28 27 25 23 21 20 18 16 14 12 11 10 10 10 10 10 10 10 11 11 10 11 11 11 12 12 12 12 13 13 14 14 14 14 14 14 13 13 13 13
29 29 29 28 26 25 23 21 20 18 16 14 13 12 12 12 12 12 11 11 10 10 9 9 9 9 10 10 10 11 11 11 12 13 13 14 14 14 13 13 13 13
28 28 28 28 27 26 24 22 20 19 18 16 14 14 13 13 13 13 12 11 11 10 10 9 9 9 9 9 10 10 10 10 10 11 11 12 13 13 13 13 13 13
28 28 28 28 27 26 25 23 21 20 19 18 17 16 14 14 14 14 13 12 11 11 10 10 9 9 9 9 10 10 10 10 10 10 10 11 12 12 13 13 13 13
31 30 30 29 27 26 25 24 22 21 21 20 19 17 16 16 15 14 13 12 12 11 11 10 10 10 9 9 10 10 10 10 10 10 10 10 11 11 12 12 12 12
33 32 32 30 27 26 25 24 24 23 22 22 21 19 18 17 16 15 13 13 12 11 10 9 9 9 9 9 9 9 10 10 10 10 10 10 10 11 12 12 13 13
36 35 33 31 29 27 27 26 25 24 23 23 22 21 20 19 17 15 14 13 12 10 9 8 8 7 7 8 8 8 9 9 10 10 10 11 11 11 11 12 13 13
36 36 35 33 32 30 30 29 28 26 24 23 22 22 21 20 18 17 16 14 11 9 7 6 6 5 6 6 6 7 7 8 9 10 10 11 11 11 12 12 12 13
33 34 35 34 34 33 33 31 29 26 24 23 23 22 22 21 20 18 16 13 10 8 6 5 4 4 5 5 5 6 7 7 8 9 10 11 12 12 13 13 13 13
30 31 33 33 34 34 34 32 29 27 25 24 24 23 23 22 20 18 15 12 9 8 7 5 4 4 5 5 5 6 7 7 8 9 10 12 13 13 14 14 14 15
31 31 31 32 33 33 33 32 30 28 26 26 25 24 22 21 19 17 14 11 10 9 7 5 4 5 6 6 6 7 7 7 8 9 11 12 13 14 15 15 15 16
32 32 31 31 32 33 33 31 29 28 26 26 25 22 21 20 19 17 14 12 11 10 8 6 6 6 7 6 6 7 8 8 9 9 10 11 12 13 15 15 16 16
34 33 32 32 32 32 32 30 29 27 25 24 22 20 19 19 19 17 15 13 12 11 9 8 8 8 8 7 7 8 9 9 10 10 10 11 12 13 14 15 16 17
35 35 34 33 33 32 32 31 29 27 24 21 20 19 19 20 19 17 16 15 14 12 11 10 10 9 9 8 8 8 9 10 10 10 10 11 12 13 13 14 15 17
36 35 34 33 33 33 32 32 30 27 23 21 19 19 20 20 20 18 17 17 16 14 13 13 11 10 10 10 9 9 10 10 10 10 11 11 12 13 14 15 15 16
37 36 34 34 33 33 34 33 32 28 25 21 20 20 21 22 21 20 19 18 17 16 16 15 13 11 11 11 10 10 10 10 10 10 11 12 12 13 15 16 16 16
39 38 37 36 36 36 36 36 34 31 27 24 22 22 23 23 23 22 21 20 20 19 18 16 14 13 14 13 11 11 11 11 10 11 11 12 12 13 15 16 17 17
43 42 41 39 39 39 38 36 34 32 30 28 26 24 24 25 26 25 24 23 22 21 19 17 16 15 15 15 13 12 12 11 11 11 11 12 12 13 15 16 17 18
47 46 45 42 42 41 39 35 33 31 31 32 31 29 26 26 28 28 27 26 24 22 21 19 17 16 16 16 14 14 14 13 13 13 13 12 12 13 15 16 17 18
51 49 47 45 44 42 40 37 34 33 33 32 31 30 29 27 28 30 30 28 26 24 23 21 19 17 17 16 15 15 15 14 15 15 14 13 13 13 14 15 16 17

ECMWFNIL_250_spd_093.txt.gz
Wind_Speed
16 14 12 10 9 8 7 5 4 2 2 2 4 6 7 9 10 11 12 13 14 15 15 16 16 17 17 17 17 17 16 16 16 16 16 16 16 16 16 16 17 17
19 17 15 13 11 10 9 7 5 4 2 1 2 4 5 7 8 9 10 11 12 13 14 14 15 15 16 16 16 16 16 16 15 15 14 14 14 14 14 14 14 14
21 20 18 16 14 13 11 9 8 6 4 3 1 2 3 5 6 7 8 9 10 11 12 12 13 13 14 14 14 15 15 15 15 14 14 13 13 12 12 12 12 12
24 22 21 19 18 16 13 11 10 8 7 5 3 2 2 3 5 6 7 8 9 9 10 10 11 11 12 12 13 13 13 14 14 14 14 13 13 13 12 12 12 11
26 25 23 23 21 19 16 13 11 10 9 7 5 4 2 2 3 5 6 7 8 8 8 9 9 9 9 10 11 11 11 12 12 12 12 13 13 13 13 12 12 12
28 27 26 25 23 21 17 15 14 12 10 8 7 5 4 3 3 4 5 6 7 7 7 7 7 7 7 8 8 9 9 10 10 10 11 11 11 12 12 12 12 12
29 29 28 26 24 22 19 18 16 13 12 10 8 7 6 5 4 4 5 6 6 7 7 7 7 7 7 6 7 7 7 8 8 8 8 9 9 10 10 11 11 11
28 29 29 27 25 23 22 20 18 15 14 12 10 9 8 6 6 5 5 6 6 6 6 6 6 7 7 7 7 6 6 7 7 7 7 7 8 8 8 9 9 9
28 28 28 27 26 25 24 22 19 17 16 14 12 10 9 8 7 7 6 7 7 7 6 6 6 6 7 7 7 7 7 7 7 7 7 8 8 8 8 8 8 8
28 28 28 28 27 25 25 23 21 19 17 15 14 12 11 10 9 8 8 8 8 8 7 6 5 5 5 6 7 7 7 7 7 7 7 8 8 8 8 8 8 8
29 29 29 28 27 25 25 24 22 20 18 17 15 14 12 12 10 9 9 9 9 9 8 7 5 4 4 5 5 6 7 7 7 7 7 7 8 9 9 9 9 9
29 30 30 29 26 25 24 23 23 21 19 18 16 15 14 13 12 10 10 10 11 10 9 7 5 4 3 3 3 4 5 6 6 7 7 8 8 9 9 10 10 10
29 30 30 29 26 24 23 23 22 21 20 19 17 16 15 14 12 11 11 11 11 10 9 7 6 4 3 2 2 2 3 4 5 6 7 8 9 9 10 10 11 11
29 29 30 29 27 25 24 24 23 22 21 20 19 19 17 15 13 13 13 13 12 10 8 7 6 4 3 2 1 1 2 3 4 6 7 8 9 10 10 11 11 11
28 28 29 29 28 27 26 26 25 24 22 22 21 21 19 17 16 15 15 14 12 10 9 8 6 5 5 3 2 1 1 2 4 5 6 7 8 9 10 10 11 11
29 28 28 29 30 31 30 29 28 27 25 24 23 22 21 20 18 17 16 14 12 10 9 8 7 6 6 5 3 1 0 1 2 4 5 5 7 7 8 9 10 10
30 29 29 29 31 32 33 33 32 30 28 26 25 24 23 22 21 20 17 15 13 11 10 9 8 8 8 6 4 3 2 1 1 2 3 4 5 6 6 7 8 9
33 31 30 30 31 32 33 34 34 33 31 29 27 26 25 24 24 22 19 16 15 13 12 10 9 9 9 7 6 5 3 2 1 1 1 2 3 4 5 6 7 7
35 34 32 31 31 32 33 33 34 34 33 31 29 27 26 27 26 24 21 18 17 15 13 11 10 11 10 8 7 6 5 4 2 1 1 2 2 3 4 5 6 6
37 36 34 33 32 32 32 32 33 34 33 32 30 29 29 29 27 25 22 21 19 17 15 13 12 12 11 10 9 8 7 5 4 3 2 2 2 3 4 4 5 6
39 38 36 34 33 31 31 32 33 34 34 32 30 29 29 28 26 25 24 23 21 19 17 16 14 13 12 11 10 10 9 7 5 4 3 3 3 3 4 4 5 6
40 39 38 36 34 32 32 33 35 36 35 32 30 28 28 26 25 25 24 23 22 21 20 19 17 15 15 14 12 11 10 8 7 6 4 4 4 4 4 5 5 6
41 41 39 38 36 34 34 35 36 37 35 32 29 28 27 26 25 24 24 23 23 23 22 21 19 18 17 15 14 13 12 10 9 7 6 5 5 5 5 5 5 6
42 42 41 40 39 38 37 36 37 37 35 32 29 28 28 27 26 25 24 24 24 24 23 21 20 19 19 17 15 14 13 12 11 9 8 7 7 7 7 6 6 7
43 43 42 42 42 41 39 37 37 37 34 32 30 30 29 28 27 26 27 27 27 26 24 22 20 19 19 18 17 15 14 13 13 12 9 8 8 8 8 7 7 9
45 45 44 43 43 42 40 38 37 36 35 33 33 32 30 29 29 30 30 29 29 28 26 24 22 20 20 19 17 16 15 15 15 13 10 9 10 9 9 9 9 10

ECMWFNIL_250_spd_096.txt.gz
Wind_Speed
14 13 11 9 7 5 3 3 3 2 2 3 3 5 7 8 10 11 12 12 13 13 13 13 14 14 14 15 15 14 14 14 13 13 13 13 13 13 13 13 14 14
16 15 13 11 9 8 5 2 2 2 2 2 2 3 5 6 8 9 10 11 11 11 11 11 11 12 12 12 13 13 13 13 12 12 12 12 12 12 11 11 11 11
18 17 15 13 12 11 8 5 3 2 2 2 1 2 3 4 6 7 8 9 9 9 9 9 9 9 9 10 10 10 11 11 11 11 11 11 11 11 11 10 10 10
20 19 17 16 15 13 11 8 6 4 3 3 3 2 2 3 4 6 7 8 8 8 8 8 8 8 8 8 8 8 8 8 9 9 10 10 10 10 10 10 9 9
21 20 20 19 17 15 13 11 9 7 5 5 4 3 2 2 3 5 6 7 7 7 7 7 7 7 7 7 7 7 7 7 7 7 7 8 8 8 8 8 8 8
23 22 21 20 19 16 14 13 12 10 7 6 5 4 3 3 2 4 5 6 7 7 7 7 7 7 7 7 7 7 7 7 6 6 5 5 6 6 6 6 6 7
23 23 22 22 20 18 16 15 14 12 10 8 7 6 5 4 3 3 4 5 6 7 7 8 8 8 7 7 7 7 8 7 7 6 6 5 5 4 4 4 4 4
24 24 24 23 21 19 18 17 15 13 12 10 8 8 7 6 5 4 4 4 6 6 7 8 8 9 8 8 8 7 7 7 7 7 6 6 5 5 4 4 4 3
25 25 25 24 22 20 19 18 16 15 14 12 10 10 9 8 6 5 5 5 5 6 7 8 8 8 8 8 8 7 7 7 7 7 7 6 6 6 5 5 5 5
27 26 26 25 23 21 20 18 17 17 15 13 13 12 11 10 9 7 6 5 5 6 6 7 7 8 8 7 7 6 6 6 6 7 7 6 6 6 6 6 6 6
29 28 27 26 24 22 21 20 19 18 17 15 15 14 13 13 11 9 8 6 6 6 6 6 6 7 7 6 6 5 4 5 5 6 6 6 6 6 6 6 6 7
30 29 29 28 25 23 22 21 20 20 19 17 17 16 15 15 13 11 9 8 8 7 7 6 6 5 6 5 5 4 3 3 4 4 5 6 6 6 6 6 7 7
31 31 30 28 27 25 24 23 22 21 21 19 19 18 17 17 15 13 11 10 10 9 8 7 6 5 5 5 5 4 2 1 2 3 4 5 5 6 6 7 7 8
33 32 30 29 28 27 26 26 24 23 22 21 20 20 19 18 16 14 13 12 12 10 10 8 7 6 5 6 6 5 3 2 0 1 2 3 4 5 5 6 7 8
35 33 31 30 29 28 28 28 27 25 23 22 22 21 20 19 18 16 16 15 14 13 12 11 9 7 7 7 7 6 5 4 2 1 1 1 2 3 4 5 6 7
38 36 34 32 30 29 29 29 29 27 26 25 24 23 22 21 20 19 18 17 16 15 15 13 11 9 9 9 9 8 7 5 4 3 2 1 1 2 3 3 4 5
40 39 36 34 32 31 30 30 30 30 29 28 26 25 25 23 22 21 20 19 18 18 17 15 13 11 11 12 12 10 9 8 6 5 4 3 3 3 3 3 3 4
41 40 39 37 35 33 32 31 31 31 32 31 30 28 27 26 24 23 22 21 21 21 19 16 14 14 14 15 14 13 11 10 9 8 7 6 5 4 4 3 3 3
42 41 40 38 36 35 33 31 31 32 34 35 34 32 30 29 28 27 25 24 24 23 20 18 17 17 17 17 15 15 13 12 11 11 10 8 7 6 5 4 4 4
44 42 41 40 38 36 34 32 32 33 35 36 36 35 34 33 31 29 27 26 25 24 21 19 18 19 19 18 17 16 15 14 14 13 12 11 10 8 7 6 6 6
47 46 44 43 40 38 36 34 33 34 35 36 36 36 36 35 33 31 30 28 27 25 22 20 20 20 20 19 18 17 16 15 14 13 12 12 11 10 9 8 7 7
49 49 47 45 42 40 38 37 35 35 36 36 36 36 36 34 34 33 32 29 27 25 24 23 22 22 22 22 20 19 18 16 14 14 13 13 12 11 10 9 8 8
50 50 49 46 43 41 40 38 37 36 36 36 36 36 35 34 34 33 32 29 28 27 27 26 25 24 25 25 23 22 21 18 16 15 15 14 13 12 11 10 9 9
48 50 49 46 43 41 40 39 37 35 34 34 35 34 33 33 33 32 31 30 30 30 29 28 26 26 27 27 25 23 22 20 18 17 17 16 14 14 12 11 11 10
46 48 48 46 43 42 40 38 36 34 33 32 32 32 31 31 31 31 32 32 31 31 30 29 28 29 29 29 26 24 24 22 20 19 19 17 15 15 15 14 13 12
44 45 48 48 45 41 38 36 35 34 32 31 30 31 30 30 30 31 32 32 32 32 31 31 31 31 31 30 28 26 25 23 21 21 19 16 16 17 17 16 14 13

ECMWFNIL_250_spd_099.txt.gz
Wind_Speed
8 6 4 2 1 1 2 3 3 3 4 4 4 5 7 8 9 10 10 10 10 10 10 9 9 10 10 11 11 11 11 11 10 10 10 10 10 10 10 10 10 10
11 9 7 4 3 2 1 2 2 3 3 3 3 4 5 6 8 9 9 9 9 9 9 9 9 8 8 8 8 8 8 9 9 9 8 8 8 8 8 8 8 8
13 12 10 8 7 6 4 2 2 2 2 2 3 3 4 5 6 7 8 8 9 9 9 9 9 8 8 7 7 7 7 6 7 7 6 6 6 6 6 6 6 6
15 14 13 12 11 9 7 5 4 3 3 3 3 3 3 3 4 6 7 8 8 8 9 9 9 9 8 7 7 6 6 5 5 5 5 4 4 4 4 4 4 4
17 17 16 15 13 12 10 8 7 5 4 4 3 3 3 3 3 4 5 6 7 8 8 9 9 9 9 8 7 7 6 5 5 4 4 4 3 3 3 2 2 2
18 19 18 18 16 14 13 11 10 8 6 5 4 4 4 4 3 3 5 5 6 7 8 8 9 9 9 8 8 7 7 6 5 4 4 4 4 4 4 3 3 3
19 20 20 20 18 16 15 14 13 11 8 7 6 6 6 5 4 4 4 5 6 7 7 8 8 8 9 9 8 7 7 6 6 5 4 4 4 4 4 4 4 4
21 21 22 21 20 18 17 16 15 13 11 10 9 8 8 7 6 5 4 5 5 6 6 7 7 8 8 8 8 8 7 6 6 5 5 5 5 5 5 5 5 5
23 22 23 23 22 21 20 18 17 15 13 12 11 10 10 9 9 7 6 6 5 5 5 6 6 7 7 8 8 8 7 6 6 5 5 5 5 5 5 5 5 6
25 24 24 24 24 23 22 21 19 18 16 14 14 13 12 11 11 10 9 8 7 6 5 5 5 5 6 7 8 8 8 7 6 5 5 5 4 4 5 5 6 6
29 27 25 25 25 24 24 23 22 21 19 17 16 16 14 14 13 13 12 10 9 8 7 5 4 4 5 6 7 8 8 8 7 6 5 4 4 4 4 5 5 6
32 29 28 26 25 25 24 24 24 24 22 21 19 18 17 16 16 15 14 13 11 10 8 7 5 5 5 6 7 8 9 9 8 6 5 4 4 4 5 5 5 5
35 33 31 28 26 25 25 24 25 25 24 23 22 21 20 19 18 17 16 15 14 12 10 9 7 6 7 7 8 9 9 9 9 7 5 4 4 4 4 5 5 6
37 35 33 30 29 27 26 25 25 25 24 23 23 22 22 21 20 19 18 18 17 14 12 11 9 8 8 9 9 10 10 10 9 8 6 4 4 3 4 4 5 5
38 37 35 33 31 29 28 27 26 25 25 24 24 23 23 22 22 21 21 20 19 17 15 13 12 10 10 10 11 11 11 10 10 9 8 6 5 4 4 4 4 5
39 38 38 36 34 31 30 29 28 27 26 25 25 24 24 23 23 23 23 22 21 19 18 16 14 12 11 12 13 13 12 11 11 11 9 8 6 5 5 5 4 4
41 41 40 39 36 34 32 30 29 29 28 28 27 26 25 24 24 25 24 24 23 22 20 18 16 13 13 13 14 14 14 13 12 12 11 10 8 7 6 6 5 5
41 44 43 40 38 35 33 31 30 29 29 30 29 28 27 26 26 26 26 26 25 24 22 20 17 14 14 15 16 15 15 15 14 13 12 12 10 9 8 8 7 6
35 41 45 44 40 37 35 32 31 30 30 31 31 30 29 28 28 29 28 28 27 26 24 20 18 16 15 16 17 17 17 17 16 16 14 13 12 11 10 9 8 7
33 36 43 46 44 39 36 34 33 32 32 31 31 31 31 32 31 31 30 29 29 27 25 22 20 18 17 17 18 19 18 19 19 18 16 14 13 12 11 10 10 9
36 38 44 49 46 40 37 35 34 34 33 32 32 32 33 34 33 32 32 31 30 28 26 24 22 21 19 19 20 20 20 21 21 20 17 15 14 14 13 12 11 10
38 42 47 49 45 39 36 34 33 34 34 33 33 33 34 35 35 34 34 33 31 29 28 27 25 23 21 21 22 23 23 23 23 20 18 17 16 15 14 13 12 11
43 47 49 47 43 39 36 33 33 34 34 34 33 33 34 35 35 35 35 33 32 30 30 29 27 24 23 24 24 24 25 24 23 21 19 18 18 16 15 14 13 12
51 52 51 45 41 41 39 38 39 39 38 37 35 34 35 36 35 34 34 34 33 32 31 30 27 25 25 26 26 26 26 25 24 22 20 20 19 17 16 15 14 13
55 54 51 46 42 43 43 43 46 49 48 46 43 41 40 39 36 34 34 34 34 32 31 29 28 26 26 27 28 28 28 26 24 23 21 21 20 18 18 17 16 15
56 55 53 49 48 48 46 47 51 54 51 49 49 49 47 44 40 37 36 35 33 32 31 30 28 27 27 29 29 29 29 27 25 24 22 21 20 19 20 20 19 17

ECMWFNIL_250_spd_102.txt.gz
Wind_Speed
2 3 3 3 4 5 5 7 8 9 9 10 10 11 12 13 13 13 13 13 13 13 12 13 13 13 13 13 12 11 11 10 9 9 9 8 8 8 8 8 8 8
4 4 4 4 5 5 5 5 6 8 9 9 9 10 11 11 12 13 13 13 13 13 12 13 13 13 14 13 13 13 12 12 11 10 10 9 9 8 8 8 8 8
5 5 5 6 6 6 5 5 5 6 7 8 9 9 10 10 11 12 12 12 12 12 12 12 12 13 13 13 13 13 13 12 12 11 11 11 11 10 9 9 9 9
7 7 7 7 7 7 7 7 6 6 6 7 8 8 9 9 10 10 11 12 12 12 12 12 12 12 12 12 12 12 13 12 12 12 12 12 12 11 11 11 11 10
9 9 9 9 8 8 8 8 8 7 6 7 7 8 8 8 9 10 10 11 11 11 11 11 11 11 11 11 11 11 12 12 12 12 12 12 12 12 12 12 12 12
12 11 11 10 9 8 9 10 9 8 7 7 7 8 8 8 8 9 10 10 10 10 11 10 10 10 11 11 11 11 11 11 11 11 11 12 12 12 12 12 13 13
15 13 13 12 11 10 10 10 10 10 9 8 8 8 8 9 9 9 10 10 10 10 10 10 10 10 9 9 10 10 11 11 11 11 11 11 11 11 11 12 12 12
17 16 15 14 13 12 11 11 11 11 10 10 10 10 9 9 10 10 10 11 11 10 10 10 10 9 9 9 9 9 9 10 11 12 12 11 11 11 11 11 11 11
19 19 18 17 16 14 13 12 12 12 11 11 11 11 11 10 10 11 11 12 12 11 10 10 10 10 9 9 9 9 9 9 9 10 11 11 11 11 11 11 11 11
20 20 20 19 19 17 16 15 14 14 13 12 12 12 12 12 12 12 12 13 13 13 12 11 10 10 10 10 10 9 9 9 9 9 9 10 10 10 10 11 11 11
21 21 21 20 20 20 19 18 16 15 15 15 15 14 14 14 14 13 13 13 14 14 14 12 11 10 10 10 10 10 9 9 9 9 9 9 9 9 9 9 10 10
23 24 23 21 20 20 21 21 20 18 17 17 17 17 16 16 16 15 15 15 15 16 15 14 13 12 11 11 11 11 10 9 9 9 9 8 8 8 8 8 9 9
25 26 25 22 20 21 23 24 23 22 20 19 20 20 19 19 18 17 17 17 17 17 17 16 15 13 12 12 12 12 11 10 10 9 9 8 8 8 8 8 8 8
28 30 30 28 24 22 23 25 26 26 24 22 22 22 22 21 21 20 20 20 20 19 19 19 17 15 13 13 13 13 13 11 10 10 9 8 8 8 7 7 7 8
32 34 35 33 29 26 25 26 27 27 27 26 25 24 24 24 24 24 23 23 23 22 21 21 19 17 15 14 14 14 14 13 11 11 10 9 8 8 7 6 6 6
32 33 32 33 32 29 25 25 27 28 28 28 27 27 26 26 27 27 26 26 26 25 24 23 22 19 16 15 16 16 16 14 13 12 11 10 9 8 7 6 5 5
31 32 33 33 33 31 27 25 26 28 28 29 29 29 29 29 29 29 29 28 28 27 26 25 23 21 18 17 17 17 18 16 15 14 12 11 10 9 8 6 5 4
32 36 36 35 34 34 30 27 28 30 29 28 29 30 30 30 30 31 31 30 30 29 28 27 25 22 20 19 19 20 19 18 17 16 14 12 11 10 9 8 7 5
37 37 35 34 36 36 32 30 33 34 31 29 29 30 32 32 32 32 32 32 31 30 30 28 27 24 22 21 21 22 22 21 20 19 17 15 12 11 11 10 9 8
47 44 39 37 38 38 36 37 38 36 33 34 35 33 34 34 33 32 32 32 33 32 31 30 28 27 25 23 22 23 24 23 22 22 20 18 15 13 13 12 11 10
47 49 46 43 41 40 40 40 40 38 38 40 43 42 41 39 35 33 32 33 33 33 33 33 31 29 27 26 24 24 26 26 26 25 22 20 18 16 15 14 13 12
49 48 48 47 46 45 44 43 41 41 42 43 45 46 45 41 37 34 34 33 32 33 34 35 34 31 30 29 26 25 27 28 29 28 25 23 21 20 18 17 15 14
59 55 51 50 50 48 47 45 42 42 44 46 47 47 44 41 38 36 35 33 30 29 32 36 36 34 32 31 28 27 28 31 32 30 28 25 23 22 21 20 18 17
62 59 54 51 51 51 49 46 43 43 46 48 49 48 45 44 42 40 37 35 31 29 30 33 35 35 34 33 32 30 30 32 34 32 30 28 25 24 23 22 21 20
62 61 57 51 49 50 50 48 44 42 45 48 49 49 47 47 47 45 43 39 35 33 32 31 31 33 34 34 34 33 32 34 35 35 33 30 27 25 24 24 23 22
63 64 64 58 53 51 50 49 46 45 46 47 48 50 51 51 50 48 47 43 38 35 32 30 28 31 34 35 35 35 35 36 37 38 36 31 28 26 25 25 25 24

ECMWFNIL_250_spd_105.txt.gz
Wind_Speed
4 3 1 1 3 5 6 8 9 10 11 11 12 12 13 14 15 15 15 15 15 15 14 14 14 14 14 13 13 13 14 13 13 13 13 14 14 14 13 13 12 12
5 5 4 2 0 2 3 5 6 7 8 9 10 10 10 11 13 13 13 13 13 13 13 13 13 13 13 13 13 13 13 13 13 13 13 13 13 13 13 13 13 13
6 7 7 5 3 2 0 1 3 4 5 7 7 8 8 9 10 11 12 12 12 12 12 12 12 12 12 13 13 13 13 13 13 13 13 13 12 12 13 13 13 13
8 8 8 7 6 5 3 2 1 1 3 4 5 6 6 6 7 8 9 10 11 11 10 10 10 10 11 11 12 12 13 13 13 13 13 13 13 12 12 12 12 12
11 10 9 8 8 8 6 4 3 2 1 1 2 3 4 5 5 6 7 8 9 9 9 9 9 9 9 10 10 11 11 12 12 13 13 13 13 13 13 13 13 13
12 12 11 10 10 10 9 7 6 5 4 3 2 1 2 3 3 4 5 5 6 7 8 8 8 8 8 9 9 10 10 11 11 12 13 14 14 14 14 14 14 14
13 13 14 13 12 12 11 10 8 7 7 6 5 3 2 1 1 2 3 4 5 6 6 7 8 7 8 8 8 9 10 11 11 12 13 14 14 14 14 15 15 15
15 14 15 15 14 14 13 12 11 10 9 9 8 7 5 4 3 3 3 4 5 5 6 6 7 7 8 8 8 8 9 10 11 12 13 13 14 14 15 15 16 16
19 17 16 16 16 16 15 14 13 13 11 11 11 10 9 8 7 6 6 6 6 6 6 6 7 7 8 9 8 8 9 9 10 11 12 13 13 14 15 15 16 16
24 22 20 18 17 17 17 16 16 15 14 13 13 12 12 11 10 10 9 9 8 8 7 7 7 7 7 9 9 9 8 8 9 10 10 11 12 13 13 14 15 15
28 27 24 22 20 18 18 18 18 17 16 16 15 15 15 14 14 13 12 12 11 10 9 9 8 8 8 8 9 9 8 8 8 8 8 9 9 10 11 12 13 14
32 31 28 25 23 21 20 19 19 19 18 18 17 17 17 17 17 16 16 15 14 13 12 11 10 10 9 9 9 9 8 7 7 7 7 7 8 8 9 10 11 12
35 33 30 28 26 24 23 23 21 20 19 19 19 19 19 19 19 19 19 19 18 16 15 13 12 11 11 10 10 10 9 7 6 6 5 5 6 7 7 8 9 10
36 34 32 30 28 26 26 26 24 23 21 21 20 20 19 19 20 20 21 22 22 20 18 17 15 13 13 12 11 11 10 8 7 6 5 4 5 5 6 6 7 8
37 36 34 33 31 28 27 28 27 26 23 22 22 22 21 20 20 21 22 23 23 23 22 20 18 16 14 14 13 12 11 9 8 7 6 4 4 4 4 4 5 6
39 38 36 35 33 30 29 30 31 30 27 23 23 24 24 23 22 22 22 23 23 24 24 24 22 19 17 15 15 14 13 11 9 8 7 5 4 3 3 3 3 4
41 39 38 36 34 33 33 33 33 34 32 27 24 24 25 26 25 24 23 22 22 23 24 24 22 20 19 17 17 16 16 14 11 10 9 7 5 4 3 1 1 2
42 40 38 37 36 35 34 33 33 34 36 32 29 27 27 28 27 27 26 25 23 23 23 22 21 20 19 18 18 18 18 17 14 12 10 9 7 6 5 3 1 0
43 41 39 39 39 37 34 34 33 34 36 36 34 33 31 30 29 28 28 27 26 24 24 22 21 19 18 18 19 19 19 19 18 15 13 11 10 8 7 6 4 3
42 42 42 42 41 39 37 37 36 36 36 37 37 36 34 32 31 30 30 29 29 27 25 24 22 20 19 19 19 20 20 20 21 19 17 14 12 11 10 9 8 6
45 43 43 44 43 41 39 39 39 38 38 38 38 38 36 35 35 34 32 32 32 30 27 25 23 21 19 19 19 19 21 22 23 22 20 18 15 13 12 12 11 9
51 46 45 45 44 42 41 41 41 40 39 39 40 39 37 37 38 37 36 35 36 35 32 28 24 21 19 18 17 18 20 23 25 24 23 21 18 16 14 14 14 13
56 52 49 48 46 43 41 42 44 43 40 40 41 41 39 39 39 41 40 38 38 39 39 34 28 23 21 20 19 18 19 22 25 26 26 24 21 18 16 16 15 15
61 58 56 55 53 49 43 40 42 44 42 40 41 42 41 40 40 41 42 40 39 41 43 40 33 28 26 26 24 21 20 22 24 26 27 27 24 21 19 18 17 17
65 64 63 62 61 59 52 45 41 41 42 44 45 43 42 42 42 41 42 43 41 42 43 43 40 36 33 31 28 25 22 21 22 25 28 28 26 23 21 20 19 18
68 68 68 68 68 67 62 56 51 48 47 49 50 48 44 44 44 44 43 43 43 42 43 43 44 44 40 34 32 30 27 24 22 24 26 27 27 26 24 22 21 20

ECMWFNIL_250_spd_108.txt.gz
Wind_Speed
8 9 8 8 7 8 8 9 9 10 10 11 12 13 14 16 16 17 17 16 16 16 16 16 15 15 15 15 15 15 14 14 14 13 14 14 13 13 13 13 13 13
9 10 9 9 8 8 7 7 8 9 9 10 10 11 12 13 14 15 16 16 16 16 16 16 15 15 15 15 16 16 15 14 14 14 14 13 13 13 13 13 13 13
9 10 11 10 9 8 7 7 7 7 8 8 9 9 10 11 12 13 14 15 15 15 15 16 16 16 16 16 17 16 16 15 15 15 15 15 15 15 15 15 14 14
8 10 11 12 11 10 9 8 7 7 6 7 8 8 9 9 10 11 13 14 15 15 15 16 16 16 16 17 17 17 16 17 17 17 17 17 17 17 17 17 17 16
9 10 11 13 14 13 11 10 9 8 7 7 7 7 8 9 9 10 11 12 13 14 15 15 15 15 16 16 17 17 17 17 18 18 18 19 19 19 19 18 18 18
8 10 11 13 15 15 14 12 11 9 9 8 7 7 8 8 9 10 10 11 12 13 14 15 15 15 15 15 16 16 16 17 17 18 18 19 19 19 19 19 19 19
9 11 12 13 14 15 16 15 13 11 10 9 9 9 8 9 9 10 10 11 11 12 13 14 14 15 15 15 15 16 16 17 17 17 18 18 19 19 19 19 19 19
11 13 16 16 16 16 17 17 16 14 12 11 10 10 10 10 10 10 11 11 11 11 11 12 13 14 14 14 14 15 15 16 16 17 18 18 19 19 19 19 19 19
14 14 17 19 20 20 19 18 17 17 15 13 12 11 11 11 11 11 12 12 11 11 11 11 12 12 13 14 14 14 14 15 16 16 17 18 18 19 19 19 19 19
18 16 16 19 22 24 23 20 18 18 17 16 14 13 12 12 12 12 13 13 13 13 12 12 11 11 12 13 13 13 13 14 15 15 16 17 18 18 18 19 19 19
20 20 19 20 22 25 26 23 19 18 18 18 17 16 15 15 14 14 15 15 14 14 14 13 12 12 12 12 12 12 12 13 14 15 15 16 16 16 17 17 18 18
20 24 25 24 23 25 27 27 24 21 20 20 19 19 18 18 17 16 16 16 15 14 14 13 13 13 12 12 12 12 11 11 12 13 14 14 14 14 15 15 15 16
24 26 27 25 24 25 27 29 30 28 25 23 22 21 21 21 20 19 18 17 16 14 14 13 12 12 12 12 12 12 11 10 11 12 12 12 12 12 12 13 13 13
24 26 27 27 29 31 31 31 32 32 30 27 24 24 24 23 22 21 20 19 18 17 15 14 13 12 11 12 12 11 11 10 9 9 10 10 10 10 9 9 10 9
24 28 31 32 34 35 35 33 32 33 33 30 28 28 27 26 24 22 21 20 20 19 17 16 15 14 12 12 11 11 10 9 8 8 7 7 7 7 7 6 6 6
31 34 36 36 36 36 36 35 34 34 34 34 33 31 29 28 26 23 21 20 20 20 18 16 15 14 13 12 11 11 11 10 8 7 6 5 5 4 4 3 3 3
37 38 39 38 38 38 38 38 37 35 35 36 36 33 30 30 30 27 23 21 21 21 20 17 15 13 13 13 12 11 12 11 10 8 6 5 4 3 3 3 2 2
43 44 44 43 42 41 40 39 39 37 36 36 37 35 32 32 32 31 28 25 24 23 21 18 16 14 14 14 13 13 13 13 13 11 9 7 6 6 5 5 5 5
44 47 47 46 44 44 42 41 41 40 38 37 36 35 34 33 32 31 30 29 28 26 23 21 18 15 14 14 15 15 15 15 15 15 13 10 8 8 7 8 8 7
44 46 49 48 45 44 43 43 44 43 40 38 38 37 36 35 33 31 30 30 30 29 26 24 22 18 15 14 15 16 16 16 16 15 15 12 10 9 9 9 10 10
50 49 50 51 48 44 44 45 46 45 42 40 40 40 39 38 36 33 32 32 32 31 29 28 26 21 17 16 15 17 18 18 16 15 14 13 11 10 10 10 11 11
59 56 53 52 51 48 45 45 46 47 45 43 42 42 42 42 40 38 36 35 34 33 32 31 29 26 22 20 18 17 18 19 18 17 16 15 15 14 13 12 12 13
63 62 60 58 56 53 50 47 47 48 47 46 45 44 44 45 44 41 39 37 35 34 34 32 31 29 27 25 22 20 19 19 20 20 19 19 18 18 18 17 16 15
65 64 63 62 60 60 58 54 51 50 48 46 45 45 46 47 46 43 41 38 37 36 36 35 33 31 29 27 25 25 24 23 22 23 23 22 19 18 19 20 19 18
68 67 65 64 64 63 63 61 58 56 54 51 48 47 48 49 49 46 43 41 40 39 39 39 37 34 30 28 27 27 28 28 27 27 27 25 21 19 20 21 22 21
71 69 68 67 67 66 66 65 63 62 61 59 55 51 50 51 52 50 47 45 44 43 42 42 41 37 34 32 30 29 30 32 32 33 32 29 26 25 24 23 22 22

ECMWFNIL_250_spd_111.txt.gz
Wind_Speed
10 11 12 13 14 14 15 16 16 17 17 18 18 18 19 19 20 21 22 22 22 22 22 22 21 21 21 21 21 21 21 20 19 19 18 17 16 16 15 14 14 13
9 10 12 13 13 14 14 15 16 17 17 17 18 18 18 19 19 20 21 21 22 22 23 23 22 22 22 22 22 23 22 22 21 21 20 19 19 18 17 16 15 14
8 9 10 12 13 13 14 15 16 17 18 17 18 18 18 19 19 19 19 20 21 21 22 22 23 23 23 23 23 23 23 23 23 22 22 21 21 20 19 18 17 16
5 7 9 10 12 13 13 14 15 16 18 18 19 19 19 19 19 19 19 19 20 20 21 22 22 23 23 23 24 24 24 24 24 24 23 23 22 21 21 20 19 18
3 5 7 9 10 11 12 13 13 15 16 18 19 20 21 20 20 19 19 19 19 20 20 20 21 22 22 23 23 24 24 24 24 24 24 24 23 23 22 21 21 20
1 3 5 7 8 9 11 12 13 13 14 17 18 20 21 22 22 21 20 19 19 19 19 20 20 21 21 22 22 23 24 24 24 24 24 24 24 23 23 23 22 21
5 2 2 4 6 7 9 11 13 13 14 15 17 18 20 21 22 23 22 20 19 18 18 19 19 20 20 21 21 22 23 23 23 24 24 23 23 23 23 23 23 22
10 8 4 1 3 6 7 9 12 14 15 16 17 18 19 20 21 22 23 22 21 20 19 19 18 19 19 20 20 21 22 22 23 23 23 23 22 22 22 22 22 22
13 13 10 5 2 5 7 9 11 13 15 17 18 19 19 20 21 21 22 23 23 22 21 20 19 19 19 19 19 19 20 21 21 21 22 22 21 21 21 21 21 21
15 15 12 7 4 4 6 8 10 12 14 16 18 20 20 20 21 22 22 23 23 23 22 22 21 20 19 18 18 18 18 18 19 19 20 20 19 19 19 19 19 19
18 16 13 10 7 7 7 8 9 11 13 15 17 19 20 20 21 22 22 23 22 22 22 21 21 20 20 19 18 17 16 16 16 16 17 17 17 17 16 17 17 17
18 16 15 14 12 11 10 9 8 10 14 16 17 18 19 21 22 22 23 23 21 20 19 19 19 19 19 18 18 16 15 14 14 13 13 14 14 13 13 14 14 14
18 16 17 19 19 17 15 12 10 10 13 17 18 18 18 20 22 23 24 23 21 19 18 17 17 17 17 17 16 16 15 13 12 12 11 11 12 11 11 11 11 11
21 19 16 17 18 17 17 16 14 13 14 16 18 20 20 20 21 23 24 24 22 19 17 15 15 16 16 16 15 15 14 13 12 11 10 10 10 10 10 9 9 9
24 22 17 15 15 13 13 16 17 16 16 16 19 22 23 21 21 22 24 25 24 22 19 17 15 14 15 15 14 14 13 13 12 11 10 10 9 9 9 9 8 8
27 25 20 17 14 12 13 16 17 18 18 18 19 22 24 23 21 21 23 24 25 25 23 20 16 14 14 14 13 12 12 12 12 11 10 10 8 8 8 8 8 7
29 27 23 20 17 16 17 20 22 22 20 20 21 22 24 25 24 23 23 24 24 25 25 24 20 16 15 15 13 12 11 11 11 10 10 9 8 8 8 8 8 7
32 29 27 24 22 21 20 21 24 23 19 20 24 26 28 30 29 27 26 25 25 25 25 25 23 20 18 17 15 14 12 11 11 11 10 9 9 8 8 8 8 8
36 32 30 28 28 26 24 23 23 21 18 18 22 27 33 36 35 32 30 28 28 27 27 26 25 23 21 20 18 16 15 13 12 12 11 10 9 9 9 9 9 9
38 34 32 31 31 28 25 23 22 19 18 21 24 28 33 36 36 34 32 31 31 31 31 29 27 25 24 22 21 20 18 16 14 12 12 12 11 11 10 10 10 10
38 33 31 31 31 27 24 25 24 22 23 28 32 32 31 31 36 36 33 34 35 35 35 33 29 28 26 25 25 24 22 20 17 14 13 13 13 13 13 13 13 13
41 35 31 30 28 25 23 25 27 26 26 30 34 34 29 27 34 39 38 38 39 39 39 37 33 31 30 29 28 28 26 24 21 18 15 14 14 15 15 15 15 15
49 45 41 38 37 35 32 30 28 25 25 27 30 31 29 29 35 42 44 44 43 42 42 41 38 36 35 33 32 31 30 28 25 22 20 18 16 16 16 17 18 18
59 56 53 52 52 50 47 43 36 29 26 26 27 28 30 35 40 45 47 46 46 46 45 43 42 40 39 38 35 32 30 29 28 27 25 23 21 19 19 19 19 19
67 66 64 63 62 60 57 54 49 44 40 39 38 38 40 44 48 50 49 48 47 48 48 47 45 44 42 41 39 36 33 30 29 29 29 28 26 24 23 23 21 20
72 73 72 71 69 66 64 61 60 58 57 57 58 58 58 58 58 56 54 52 50 48 48 48 48 47 45 44 42 41 39 37 35 34 33 30 29 29 28 27 25 23

ECMWFNIL_250_spd_114.txt.gz
Wind_Speed
13 15 16 17 18 19 20 22 23 24 25 26 26 27 27 27 27 28 28 28 28 28 28 28 28 27 26 25 25 24 23 21 20 19 18 17 16 15 15 14 14 13
9 11 14 15 16 17 18 19 20 21 22 23 24 25 25 26 26 26 26 26 27 27 27 28 28 27 27 26 26 25 24 23 22 21 20 19 18 17 17 16 16 16
7 9 11 13 14 15 16 17 18 19 19 20 21 22 23 24 24 25 25 25 25 26 26 26 27 27 27 27 26 26 25 24 23 22 22 21 20 20 20 19 19 19
5 7 9 11 13 13 14 15 16 17 17 18 19 20 21 22 23 24 25 25 25 25 26 25 26 26 27 27 27 26 26 25 25 24 24 23 23 22 22 22 22 22
3 5 8 10 11 12 12 12 13 15 16 16 17 18 19 20 21 22 23 25 25 25 26 25 25 25 25 26 26 26 26 26 26 25 25 25 24 24 24 24 24 24
4 4 5 7 9 10 11 11 11 12 13 14 16 17 18 19 20 22 23 24 25 25 26 26 25 25 25 24 25 25 25 25 25 25 25 25 25 25 25 25 26 26
7 7 5 4 6 7 8 8 9 10 12 13 14 15 17 18 19 21 22 22 23 24 24 25 25 24 24 23 23 23 23 24 24 24 25 25 25 25 25 26 26 26
10 11 10 7 3 4 6 7 7 9 11 12 13 14 15 16 17 18 20 21 21 22 22 22 23 23 23 22 22 22 22 22 22 23 23 24 24 24 24 25 25 24
11 12 14 12 8 4 4 6 7 8 9 11 13 14 14 14 16 17 17 18 19 20 20 20 21 21 21 21 21 20 20 20 21 21 22 22 23 23 23 23 23 23
11 12 14 14 12 9 4 5 7 7 8 10 10 12 13 13 14 15 16 17 18 18 18 18 19 19 19 20 19 19 19 19 19 19 20 21 21 21 21 21 21 21
11 10 12 14 14 13 9 3 5 6 8 9 9 9 10 11 12 13 14 15 17 17 17 17 17 18 18 18 18 18 17 17 17 17 18 19 19 19 19 19 19 19
12 12 13 16 15 14 13 9 5 4 5 7 8 8 9 10 11 12 12 13 14 16 17 16 16 17 17 18 17 16 16 15 15 15 15 16 17 17 17 17 17 17
15 16 17 18 15 13 14 14 11 8 6 6 8 8 8 9 10 10 10 11 12 13 15 16 16 17 16 17 16 15 14 14 13 13 13 13 14 15 15 15 15 15
15 17 18 18 17 14 15 15 15 14 12 12 12 9 8 9 9 9 9 9 10 11 13 14 15 16 16 16 16 16 14 13 12 11 11 11 11 11 12 12 12 12
13 17 20 21 20 17 14 14 16 17 17 17 17 15 12 9 8 8 9 10 10 10 10 11 12 14 15 14 15 15 15 14 12 11 10 10 9 9 8 8 8 9
16 19 23 24 22 20 17 16 17 18 18 19 20 19 16 12 10 9 9 11 13 12 10 10 10 11 13 13 13 14 15 15 14 12 10 9 9 7 6 5 5 5
22 23 25 24 22 23 22 20 20 20 19 20 20 19 16 14 13 12 12 14 16 16 14 11 9 10 11 12 13 14 14 15 15 14 12 10 9 8 6 5 3 2
25 24 25 26 24 24 25 24 25 24 22 21 20 18 15 15 16 15 15 15 17 18 16 13 11 10 11 11 13 14 15 15 16 16 14 12 10 9 8 7 5 5
27 26 27 28 26 25 26 26 27 28 27 24 21 19 18 18 18 17 16 16 16 16 16 15 13 12 13 13 13 14 15 15 16 16 16 15 14 11 10 9 8 8
31 31 31 31 29 27 26 26 28 31 31 28 24 22 22 21 20 18 17 15 14 16 17 17 16 14 15 16 15 15 16 16 16 17 17 17 17 15 13 12 11 11
37 37 36 34 31 29 28 27 29 33 35 32 28 27 26 25 23 22 19 15 14 17 20 19 19 19 19 19 18 18 19 19 19 19 19 19 19 18 16 14 14 13
41 41 39 35 31 29 28 28 30 35 38 36 33 31 30 28 26 24 21 17 16 18 21 22 21 22 23 21 20 20 21 22 22 22 22 20 20 20 19 18 16 15
46 45 40 37 36 34 33 33 35 38 39 38 36 35 33 30 27 25 21 19 19 20 22 24 22 23 24 24 23 22 23 24 25 26 25 24 22 21 22 22 21 19
53 51 47 45 44 43 41 40 40 41 41 41 40 37 34 31 29 28 25 22 22 23 24 24 23 24 26 28 27 26 26 26 28 29 29 28 26 24 24 24 24 23
59 58 56 53 51 49 48 45 44 43 42 44 44 40 35 32 30 30 29 26 25 26 27 25 26 28 29 31 31 31 30 30 31 32 32 32 31 29 28 28 27 27
64 64 63 61 58 55 52 50 48 47 46 47 47 43 38 35 34 32 32 31 31 31 30 29 30 32 33 33 34 34 35 35 34 33 33 33 33 33 33 33 33 32

ECMWFNIL_250_spd_117.txt.gz
Wind_Speed
16 16 17 19 20 21 23 24 24 25 25 27 28 29 29 30 30 30 31 31 31 30 30 30 30 29 29 28 28 27 27 26 25 24 23 22 21 20 20 19 18 17
14 15 15 16 16 18 19 21 21 22 23 24 26 27 29 29 30 30 30 30 31 30 30 30 30 29 29 29 28 28 27 27 26 25 24 24 23 23 23 22 22 21
11 13 14 15 15 15 16 18 19 20 21 22 24 25 27 28 29 29 30 30 30 29 29 29 29 29 29 28 28 28 27 27 27 27 26 26 25 25 25 25 25 25
8 10 12 14 15 15 15 16 17 18 19 20 22 22 24 25 27 27 28 28 28 28 28 28 28 28 28 28 28 28 27 27 27 27 27 27 27 27 27 28 28 28
5 7 9 12 14 15 15 15 16 17 17 18 19 20 21 22 23 25 26 26 27 27 27 27 27 27 27 27 27 27 27 28 27 27 28 28 28 29 29 29 30 30
3 3 6 9 11 13 14 14 15 16 16 16 16 17 18 19 20 21 23 23 24 25 25 26 26 26 26 26 26 27 27 27 27 27 28 28 28 29 30 30 31 31
5 4 3 4 7 10 11 12 14 15 15 16 16 15 16 17 18 19 19 20 21 22 23 24 24 25 25 25 25 25 26 26 27 27 27 28 28 29 29 30 30 30
4 5 6 4 2 5 8 10 12 13 13 14 14 15 15 15 16 17 18 18 18 19 20 21 22 22 23 23 24 24 24 25 25 26 26 27 27 27 28 28 28 29
4 4 5 7 5 1 3 7 9 10 11 11 12 13 14 14 14 15 16 16 16 17 18 18 19 20 20 21 22 22 22 23 23 24 25 25 25 25 25 26 26 26
6 5 4 5 7 6 3 1 4 7 8 9 9 11 12 12 11 12 13 15 15 15 16 17 17 17 18 19 20 20 21 21 21 21 22 22 22 22 22 23 23 23
7 7 6 5 5 7 7 5 3 1 4 5 6 8 10 11 11 10 10 12 13 14 14 15 16 16 17 17 18 18 19 19 19 19 19 19 19 19 19 19 20 20
9 10 9 8 6 7 8 8 7 6 2 2 4 5 6 8 10 10 10 10 11 12 12 13 14 15 16 16 17 17 17 17 17 16 16 16 16 16 16 16 16 17
11 12 12 11 10 10 9 9 9 8 7 5 5 6 5 5 6 8 9 9 10 10 10 11 12 13 14 15 15 16 16 15 15 14 14 14 13 13 13 13 12 13
16 15 14 15 14 12 10 10 9 10 11 10 8 7 8 7 5 5 7 8 8 8 8 9 10 11 12 13 13 13 14 14 14 13 12 11 11 11 10 10 9 9
21 20 18 17 16 14 11 11 12 13 14 13 11 10 10 10 10 6 3 5 6 6 6 6 6 7 9 10 10 11 11 12 12 12 11 10 9 8 7 7 7 6
27 25 23 20 18 16 14 15 15 16 16 16 16 15 14 13 14 12 7 2 3 4 4 5 4 4 4 6 7 8 9 10 10 11 11 10 8 7 5 5 4 4
34 32 28 24 22 20 18 19 19 18 16 17 19 20 19 16 16 15 11 8 6 3 4 4 4 4 3 2 3 5 6 7 8 9 9 9 8 7 5 3 2 2
37 36 32 29 27 25 21 21 22 21 19 19 20 21 21 19 17 15 12 11 11 7 4 3 4 6 6 5 3 2 3 4 6 6 7 7 7 6 5 4 2 2
38 38 35 32 31 29 25 23 23 24 24 23 22 22 21 20 17 15 13 13 13 10 7 5 5 7 8 7 6 6 5 4 4 4 4 4 5 5 5 5 4 3
41 39 38 36 34 32 29 27 26 26 26 26 25 24 23 22 20 17 15 15 15 13 11 10 9 9 11 10 10 9 9 8 7 6 4 4 4 3 4 5 6 6
43 42 42 41 39 36 33 30 29 28 28 29 28 27 26 25 23 20 19 18 17 16 16 14 12 12 14 15 14 13 13 12 11 10 9 8 7 6 5 5 7 8
48 47 47 46 44 42 38 35 33 31 31 32 31 28 28 28 27 25 24 23 21 21 20 18 16 15 16 18 17 16 15 15 14 13 12 12 11 10 8 8 8 9
52 51 50 48 47 45 42 40 37 34 32 33 33 31 30 30 30 29 29 28 27 26 25 23 21 19 20 21 20 18 17 18 18 17 16 14 14 13 12 11 11 11
53 52 51 50 50 48 44 42 41 37 34 34 36 35 34 33 33 33 33 33 31 30 29 29 27 25 23 23 24 23 22 21 21 21 20 18 16 15 14 14 14 14
57 55 54 54 54 53 50 48 46 41 36 36 39 39 38 37 38 37 37 35 33 33 33 33 32 29 27 26 26 27 27 25 25 25 26 24 21 17 15 14 14 15
63 61 59 59 59 57 55 53 51 47 40 38 42 43 42 42 42 41 40 38 35 35 37 38 35 32 31 30 29 29 30 30 29 29 30 30 27 21 17 15 14 15

ECMWFNIL_250_spd_120.txt.gz
Wind_Speed
17 18 19 20 21 22 24 26 27 26 26 26 27 27 27 27 27 27 27 27 27 27 27 27 27 28 28 29 29 29 28 27 27 26 25 25 24 23 23 23 23 23
15 16 17 18 19 20 21 23 24 25 25 25 25 26 26 26 26 27 27 27 27 27 27 27 27 29 29 30 31 31 31 31 30 30 29 29 28 27 27 27 27 27
14 15 16 16 17 18 19 20 21 23 23 24 24 24 24 25 25 25 26 26 26 27 27 26 27 28 29 30 31 32 33 33 33 33 32 32 31 31 30 30 30 30
12 13 14 15 16 16 17 18 19 20 21 21 22 22 22 23 23 24 24 25 25 25 26 26 26 27 28 29 30 31 32 33 33 33 33 33 33 33 33 32 33 33
11 12 13 13 14 15 15 16 17 17 18 19 20 20 20 20 21 22 23 23 24 24 25 25 26 26 27 28 29 30 31 32 32 32 33 33 34 34 34 34 34 34
6 8 10 11 12 13 14 14 14 14 15 16 18 18 18 18 18 19 20 21 22 22 23 24 25 25 26 26 27 28 29 30 30 31 31 32 33 33 34 34 34 34
2 3 6 8 11 13 13 13 13 13 12 13 14 15 16 16 16 17 18 19 20 21 22 22 23 24 24 25 25 26 27 28 28 29 29 30 31 32 32 33 33 32
3 2 2 4 8 12 14 14 13 13 12 11 12 12 13 14 15 15 16 17 18 19 20 21 22 22 22 23 23 24 25 26 26 27 27 28 29 30 30 30 31 31
7 6 4 2 4 8 11 13 12 12 12 11 11 11 11 13 14 14 15 16 17 18 18 19 20 20 21 21 21 22 23 24 24 25 25 25 26 27 27 28 28 28
10 9 7 4 3 4 6 8 9 9 11 10 10 10 10 11 13 14 15 15 16 17 18 18 18 18 19 19 19 19 20 21 22 22 23 23 23 24 24 25 25 26
13 11 10 7 5 4 3 3 4 6 7 8 8 8 10 11 12 13 14 15 14 15 17 17 17 16 17 16 16 17 17 18 19 19 20 20 21 21 22 22 23 23
14 13 12 10 9 7 5 2 3 5 6 5 5 5 6 9 11 12 13 13 13 13 14 15 15 15 15 15 14 14 15 15 16 16 17 18 18 18 19 19 20 20
13 14 14 13 11 11 10 8 5 5 6 5 3 2 1 5 10 11 11 12 12 11 11 12 12 13 13 13 13 13 13 13 13 13 14 14 15 15 16 17 17 17
16 15 15 15 14 12 13 12 10 8 8 8 8 6 4 3 7 8 8 10 11 10 9 9 9 10 10 11 11 11 11 11 11 11 11 11 12 12 12 13 14 14
21 19 17 17 16 15 14 14 14 14 12 11 11 11 10 7 4 4 5 7 8 8 8 7 7 7 8 9 10 10 10 10 10 10 9 9 9 9 9 9 10 11
25 24 22 20 19 18 17 16 16 17 17 16 14 13 14 12 10 7 5 3 3 3 4 5 6 6 7 9 9 9 9 9 8 8 7 7 7 7 6 6 6 7
30 29 27 25 23 21 20 19 18 18 19 19 18 18 18 17 16 14 12 10 7 5 3 3 5 6 6 7 8 9 9 9 8 7 6 5 5 4 4 3 3 3
34 33 32 30 28 26 24 22 21 20 19 21 21 21 21 22 21 20 17 15 14 12 9 7 6 5 7 7 7 7 8 8 8 7 7 5 4 3 3 2 2 2
38 37 36 36 34 32 30 28 26 24 22 22 24 24 24 24 24 23 20 18 17 16 15 13 10 8 9 8 8 7 7 7 7 7 6 6 5 4 3 2 2 3
43 42 41 41 40 39 36 33 32 30 26 24 25 26 25 25 25 25 23 21 20 19 18 17 15 13 13 12 11 10 9 8 7 7 7 7 6 6 5 5 4 4
47 46 45 44 42 41 40 37 36 34 30 27 28 29 28 28 28 27 25 23 21 20 20 19 17 16 16 15 15 14 14 12 10 8 7 8 8 8 7 7 6 6
48 48 47 46 44 42 41 40 38 37 34 31 31 32 32 31 31 30 29 26 23 22 23 22 20 19 19 18 17 17 17 16 15 13 12 11 10 10 10 9 9 9
49 50 50 49 48 46 45 44 42 41 39 36 35 35 35 34 34 33 32 30 27 26 26 25 22 22 22 21 20 19 19 19 19 19 19 18 18 16 14 13 12 12
51 53 54 53 53 52 50 49 48 47 45 42 39 38 38 37 37 36 35 33 32 31 30 29 27 25 25 25 24 23 23 23 23 23 23 23 23 23 20 17 15 14
55 56 57 57 57 56 55 55 55 53 50 47 44 43 41 41 41 40 38 36 35 34 34 34 33 31 29 29 29 28 28 28 28 27 26 24 24 25 24 20 18 17
59 59 59 59 59 58 58 58 58 56 54 52 50 49 47 46 45 45 43 40 39 39 38 38 38 37 35 34 34 33 33 33 32 32 30 28 27 26 26 25 23 23